[[{"header":{"parameterUnit":"m.s-1","parameterCategory":1,"la1":30.6,"la2":29.2853,"lo1":-89.7004,"lo2":-87.6739,"dy":0.0162,"dx":0.0183,"nx":112,"ny":82,"refTime":"2024-08-06T06:00:00:Z","depth":0,"parameterNumber":2,"parameterNumberName":"U-component_of_WINDS"},"data":[0.0,0.0,0.0,0.0,0.0,0.0,0.0,0.0,0.0,0.0,0.0,0.0,0.0,0.0,0.0,0.0,0.0,0.0,0.0,0.0,0.0,0.0,0.0,0.0,0.0,0.0,0.0,0.0,0.0,0.0,0.0,0.0,0.0,0.0,0.0,0.0,0.0,0.0,0.0,0.0,0.0,0.0,0.0,0.0,0.0,0.0,0.0,0.0,0.0,0.0,0.0,0.0,0.0,0.0,0.0,0.0,0.0,0.0,0.0,0.0,0.0,0.0,0.0,0.0,0.0,0.0,0.0,0.0,0.0,0.0,0.0,0.0,0.0,0.0,0.0,0.0,0.0,0.0,0.0,0.0,0.0,0.0,0.0,0.0,0.0,0.0,0.0,0.0,0.0,0.0,1.8278,2.146,2.4803,2.7002,2.7474,2.7581,2.5952,2.206,0.0,0.0,0.0,0.0,0.0,0.0,0.0,0.0,0.0,0.0,0.0,0.0,0.0,0.0,0.0,0.0,0.0,0.0,0.0,0.0,0.0,0.0,0.0,0.0,0.0,0.0,0.0,0.0,0.0,0.0,0.0,0.0,0.0,0.0,0.0,0.0,0.0,0.0,0.0,0.0,0.0,0.0,0.0,0.0,0.0,0.0,0.0,0.0,0.0,0.0,0.0,0.0,0.0,0.0,0.0,0.0,0.0,0.0,0.0,0.0,0.0,0.0,0.0,0.0,0.0,0.0,0.0,0.0,0.0,0.0,0.0,0.0,0.0,0.0,0.0,0.0,0.0,0.0,0.0,0.0,0.0,0.0,0.0,0.0,0.0,0.0,0.0,0.0,0.0,0.0,0.0,0.0,0.0,0.0,0.0,0.0,0.0,0.0,0.0,0.0,0.0,0.0,0.0,0.0,1.8521,2.394,2.5885,2.6667,2.6291,2.6589,2.5364,2.2023,0.0,0.0,0.0,0.0,0.0,0.0,0.0,0.0,0.0,0.0,0.0,0.0,0.0,0.0,0.0,0.0,0.0,0.0,0.0,0.0,0.0,0.0,0.0,0.0,0.0,0.0,0.0,0.0,0.0,0.0,0.0,0.0,0.0,0.0,0.0,0.0,0.0,0.0,0.0,0.0,0.0,0.0,0.0,0.0,0.0,0.0,0.0,0.0,0.0,0.0,0.0,0.0,0.0,0.0,0.0,0.0,0.0,0.0,0.0,0.0,0.0,0.0,0.0,0.0,0.0,0.0,0.0,0.0,0.0,0.0,0.0,0.0,0.0,0.0,0.0,0.0,0.0,0.0,0.0,0.0,0.0,0.0,0.0,0.0,0.0,0.0,0.0,0.0,0.0,0.0,0.0,0.0,0.0,0.0,0.0,0.0,0.0,0.0,0.0,0.0,0.0,0.0,0.0,1.8021,2.0602,2.4927,2.6215,2.6843,2.6972,2.6746,2.5236,2.2005,1.9005,0.0,0.0,0.0,0.0,0.0,0.0,0.0,0.0,0.0,0.0,0.0,0.0,0.0,0.0,0.0,0.0,0.0,0.0,0.0,0.0,0.0,0.0,0.0,0.0,0.0,0.0,0.0,0.0,0.0,0.0,0.0,0.0,0.0,0.0,0.0,0.0,0.0,0.0,0.0,0.0,0.0,0.0,0.0,0.0,0.0,0.0,0.0,0.0,0.0,0.0,0.0,0.0,0.0,0.0,0.0,0.0,0.0,0.0,0.0,0.0,0.0,0.0,0.0,0.0,0.0,0.0,0.0,0.0,0.0,0.0,0.0,0.0,0.0,0.0,0.0,0.0,0.0,0.0,0.0,0.0,0.0,0.0,0.0,0.0,0.0,0.0,0.0,0.0,0.0,0.0,0.0,0.0,0.0,0.0,0.0,0.0,0.0,0.0,0.0,0.0,0.0,0.0,2.0389,2.2613,2.4962,2.5985,2.6655,2.7086,2.6277,2.4538,2.1657,1.8262,0.0,0.0,0.0,0.0,0.0,0.0,0.0,0.0,0.0,0.0,0.0,0.0,0.0,0.0,0.0,0.0,0.0,0.0,0.0,0.0,0.0,0.0,0.0,0.0,0.0,0.0,0.0,0.0,0.0,0.0,0.0,0.0,0.0,0.0,0.0,0.0,0.0,0.0,0.0,0.0,0.0,0.0,0.0,0.0,0.0,0.0,0.0,0.0,0.0,0.0,0.0,0.0,0.0,0.0,0.0,0.0,0.0,0.0,0.0,0.0,0.0,0.0,0.0,0.0,0.0,0.0,0.0,0.0,0.0,0.0,0.0,0.0,0.0,0.0,0.0,0.0,0.0,0.0,0.0,0.0,0.0,0.0,0.0,0.0,0.0,0.0,0.0,0.0,0.0,0.0,0.0,0.0,0.0,0.0,0.0,0.0,0.0,0.0,0.0,0.0,0.0,0.0,2.0711,2.3477,2.4058,2.4998,2.5465,2.5118,2.3959,2.2483,2.0686,1.6853,0.0,0.0,0.0,0.0,0.0,0.0,0.0,0.0,0.0,0.0,0.0,0.0,0.0,0.0,0.0,0.0,0.0,0.0,0.0,0.0,0.0,0.0,0.0,0.0,0.0,0.0,0.0,0.0,0.0,0.0,0.0,0.0,0.0,0.0,0.0,0.0,0.0,0.0,0.0,0.0,0.0,0.0,0.0,0.0,0.0,0.0,0.0,0.0,0.0,0.0,0.0,0.0,0.0,0.0,0.0,0.0,0.0,0.0,0.0,0.0,0.0,0.0,0.0,0.0,0.0,0.0,0.0,0.0,0.0,0.0,0.0,0.0,0.0,0.0,0.0,0.0,0.0,0.0,0.0,0.0,0.0,0.0,0.0,0.0,0.0,0.0,0.0,0.0,0.0,0.0,0.0,0.0,0.0,0.0,0.0,0.0,0.0,0.0,0.0,0.0,0.0,0.0,1.9273,2.1703,0.0,2.4339,2.466,2.4874,2.4447,2.2918,1.9934,0.0,0.0,0.0,0.0,0.0,0.0,0.0,0.0,0.0,0.0,0.0,0.0,0.0,0.0,0.0,0.0,0.0,0.0,0.0,0.0,0.0,0.0,0.0,0.0,0.0,0.0,0.0,0.0,0.0,0.0,0.0,0.0,0.0,0.0,0.0,0.0,0.0,0.0,0.0,0.0,0.0,0.0,0.0,0.0,0.0,0.0,0.0,0.0,0.0,0.0,0.0,0.0,0.0,0.0,0.0,0.0,0.0,0.0,0.0,0.0,0.0,0.0,0.0,0.0,0.0,0.0,0.0,0.0,0.0,0.0,0.0,0.0,0.0,0.0,0.0,0.0,0.0,0.0,0.0,0.0,0.0,0.0,0.0,0.0,0.0,0.0,0.0,0.0,0.0,0.0,0.0,0.0,0.0,0.0,0.0,0.0,0.0,0.0,0.0,0.0,0.0,0.0,1.6637,1.8811,2.0961,0.0,2.3544,2.3745,2.4171,2.3925,2.2453,1.9383,0.0,0.0,0.0,0.0,0.0,0.0,0.0,0.0,0.0,0.0,0.0,0.0,0.0,0.0,0.0,0.0,0.0,0.0,0.0,0.0,0.0,0.0,0.0,0.0,0.0,0.0,0.0,0.0,0.0,0.0,0.0,0.0,0.0,0.0,0.0,0.0,0.0,0.0,0.0,0.0,0.0,0.0,0.0,0.0,0.0,0.0,0.0,0.0,0.0,0.0,0.0,0.0,0.0,0.0,0.0,0.0,0.0,0.0,0.0,0.0,0.0,0.0,0.0,0.0,0.0,0.0,0.0,0.0,0.0,0.0,0.0,0.0,0.0,0.0,0.0,0.0,0.0,0.0,0.0,0.0,0.0,0.0,0.0,0.0,0.0,0.0,0.0,0.0,0.0,0.0,0.0,0.0,0.0,0.0,0.0,0.0,0.0,0.0,0.0,0.0,0.0,0.0,1.6791,1.9705,2.1764,2.2254,2.2537,2.2695,2.2721,2.1856,2.0622,0.0,0.0,0.0,0.0,0.0,0.0,0.0,0.0,0.0,0.0,0.0,0.0,0.0,0.0,0.0,0.0,0.0,0.0,0.0,0.0,0.0,0.0,0.0,0.0,0.0,0.0,0.0,0.0,0.0,0.0,0.0,0.0,0.0,0.0,0.0,0.0,0.0,0.0,0.0,0.0,0.0,0.0,0.0,0.0,0.0,0.0,0.0,0.0,0.0,0.0,0.0,0.0,0.0,0.0,0.0,0.0,0.0,0.0,0.0,0.0,0.0,0.0,0.0,0.0,0.0,0.0,0.0,0.0,0.0,0.0,0.0,0.0,0.0,0.0,0.0,0.0,0.0,0.0,0.0,0.0,0.0,0.0,0.0,0.0,0.0,0.0,0.0,0.0,0.0,0.0,0.0,0.0,0.0,0.0,0.0,0.0,0.0,0.0,0.0,0.0,0.0,0.0,0.0,1.6742,1.945,2.1477,2.2209,2.236,2.2581,2.3021,2.2575,2.1387,1.9312,0.0,0.0,0.0,0.0,0.0,0.0,0.0,0.0,0.0,0.0,0.0,0.0,0.0,0.0,0.0,0.0,0.0,0.0,0.0,0.0,0.0,0.0,0.0,0.0,0.0,0.0,0.0,0.0,0.0,0.0,0.0,0.0,0.0,0.0,0.0,0.0,0.0,0.0,0.0,0.0,0.0,0.0,0.0,0.0,0.0,0.0,0.0,0.0,0.0,0.0,0.0,0.0,0.0,0.0,0.0,0.0,0.0,0.0,0.0,0.0,0.0,0.0,0.0,0.0,0.0,0.0,0.0,0.0,0.0,0.0,0.0,0.0,0.0,0.0,0.0,0.0,0.0,0.0,0.0,0.0,0.0,0.0,0.0,0.0,0.0,0.0,0.0,0.0,0.0,0.0,0.0,0.0,0.0,0.0,0.0,0.0,0.0,0.0,0.0,0.0,0.0,0.0,1.6717,1.9335,2.1323,2.2209,2.231,2.2443,2.2824,2.2764,2.1709,1.9416,0.0,0.0,0.0,0.0,0.0,0.0,0.0,0.0,0.0,0.0,0.0,0.0,0.0,0.0,0.0,0.0,0.0,0.0,0.0,0.0,0.0,0.0,0.0,0.0,0.0,0.0,0.0,0.0,0.0,0.0,0.0,0.0,0.0,0.0,0.0,0.0,0.0,0.0,0.0,0.0,0.0,0.0,0.0,0.0,0.0,0.0,0.0,0.0,0.0,0.0,0.0,0.0,0.0,0.0,0.0,0.0,0.0,0.0,0.0,0.0,0.0,0.0,0.0,0.0,0.0,0.0,0.0,0.0,0.0,0.0,0.0,0.0,0.0,0.0,0.0,0.0,0.0,0.0,0.0,0.0,0.0,0.0,0.0,0.0,0.0,0.0,0.0,0.0,0.0,0.0,0.0,0.0,0.0,0.0,0.0,0.0,0.0,0.0,0.0,0.0,0.0,0.0,1.6747,1.9431,2.142,2.2252,2.2383,2.2412,2.244,2.2588,2.171,1.9492,0.0,0.0,0.0,0.0,0.0,0.0,0.0,0.0,0.0,0.0,0.0,0.0,0.0,0.0,0.0,0.0,0.0,0.0,0.0,0.0,0.0,0.0,0.0,0.0,0.0,0.0,0.0,0.0,0.0,0.0,0.0,0.0,0.0,0.0,0.0,0.0,0.0,0.0,0.0,0.0,0.0,0.0,0.0,0.0,0.0,0.0,0.0,0.0,0.0,0.0,0.0,0.0,0.0,0.0,0.0,0.0,0.0,0.0,0.0,0.0,1.776,0.0,0.0,0.0,0.0,0.0,0.0,0.0,0.0,0.0,0.0,0.0,0.0,0.0,0.0,0.0,0.0,0.0,0.0,0.0,0.0,0.0,0.0,0.0,0.0,0.0,0.0,0.0,0.0,0.0,0.0,0.0,0.0,0.0,0.0,0.0,0.0,0.0,0.0,0.0,0.0,0.0,1.7007,1.997,2.207,2.2562,2.2945,2.3272,2.3536,2.2822,2.1824,2.0552,1.8882,0.0,0.0,0.0,0.0,0.0,0.0,0.0,0.0,0.0,0.0,0.0,0.0,0.0,0.0,0.0,0.0,0.0,0.0,0.0,0.0,0.0,0.0,0.0,0.0,0.0,0.0,0.0,0.0,0.0,0.0,0.0,0.0,0.0,0.0,0.0,0.0,0.0,0.0,0.0,0.0,0.0,0.0,0.0,0.0,0.0,0.0,0.0,0.0,0.0,0.0,0.0,0.0,0.0,0.0,0.0,0.0,0.0,0.0,0.0,0.0,1.8912,0.0,0.0,0.0,0.0,0.0,0.0,0.0,0.0,0.0,0.0,0.0,0.0,0.0,0.0,0.0,0.0,0.0,0.0,0.0,0.0,0.0,0.0,0.0,0.0,0.0,0.0,0.0,0.0,0.0,0.0,0.0,0.0,0.0,0.0,0.0,0.0,0.0,0.0,0.0,0.0,1.7827,2.0463,2.2377,2.3112,2.3622,2.3854,2.3671,2.3153,2.2296,2.107,1.9803,0.0,0.0,0.0,0.0,0.0,0.0,0.0,0.0,0.0,0.0,0.0,0.0,0.0,0.0,0.0,0.0,0.0,0.0,0.0,0.0,0.0,0.0,0.0,0.0,0.0,0.0,0.0,0.0,0.0,0.0,0.0,0.0,0.0,0.0,0.0,0.0,0.0,0.0,0.0,0.0,0.0,0.0,0.0,0.0,0.0,0.0,0.0,0.0,0.0,0.0,0.0,0.0,0.0,2.4298,2.4298,2.4298,2.4298,2.4298,2.4163,2.1994,2.0797,2.0363,2.0363,0.0,0.0,0.0,0.0,0.0,0.0,0.0,0.0,0.0,0.0,0.0,0.0,0.0,0.0,0.0,0.0,0.0,0.0,0.0,0.0,0.0,0.0,0.0,0.0,2.0797,2.034,0.0,0.0,0.0,0.0,0.0,0.0,0.0,0.0,0.0,0.0,0.0,0.0,1.8991,2.1151,2.2846,2.3818,2.4392,2.4441,2.3833,2.3545,2.2868,2.1678,2.0858,2.0021,0.0,0.0,0.0,0.0,0.0,0.0,0.0,0.0,0.0,0.0,0.0,0.0,0.0,0.0,0.0,0.0,0.0,0.0,0.0,0.0,0.0,0.0,0.0,0.0,0.0,0.0,0.0,0.0,0.0,0.0,0.0,0.0,1.2269,1.4959,0.0,0.0,0.0,0.0,0.0,0.0,0.0,0.0,0.0,0.0,0.0,0.0,0.0,2.2742,2.3071,2.3086,2.4418,2.7085,2.7085,2.7085,2.7085,2.7085,2.7085,2.7021,2.6726,0.0,2.3086,2.3086,0.0,0.0,0.0,0.0,0.0,0.0,0.0,0.0,0.0,0.0,0.0,0.0,0.0,0.0,0.0,0.0,0.0,0.0,0.0,0.0,0.0,0.0,2.2981,2.3056,2.3146,2.3071,0.0,2.0347,1.814,1.7145,1.658,0.0,0.0,0.0,0.0,0.0,0.0,0.0,2.0573,2.2645,2.4155,2.4759,2.5212,2.5423,2.5321,2.4137,2.3308,2.3122,2.1813,2.1088,2.1105,1.9314,0.0,0.0,0.0,0.0,0.0,0.0,0.0,0.0,0.0,0.0,0.0,0.0,0.0,0.0,0.0,0.0,0.0,0.0,0.0,0.0,0.0,0.0,0.0,0.0,0.0,0.0,0.0,0.0,0.0,1.2047,1.5316,1.7721,1.8002,1.6968,0.0,0.0,0.0,0.0,0.0,0.0,0.0,0.0,0.0,2.4073,2.5226,2.5824,2.5824,2.5824,2.7171,2.9804,2.9804,2.9804,2.9804,2.9804,2.9804,2.9804,2.9804,2.9146,2.7949,2.6437,2.4268,2.1699,0.0,0.0,0.0,0.0,1.9014,2.1874,2.1874,2.2637,0.0,2.3595,0.0,0.0,0.0,0.0,0.0,0.0,0.0,0.0,0.0,0.0,2.4268,2.4642,2.4732,2.4732,2.4732,2.3782,2.2433,0.0,2.0118,1.9479,1.7782,0.0,0.0,0.0,0.0,2.031,2.2297,2.378,2.4882,2.5485,2.5967,2.6048,2.5642,2.5017,2.4272,2.3444,2.2784,2.2439,2.2433,2.118,2.0087,0.0,0.0,0.0,0.0,0.0,0.0,0.0,0.0,0.0,0.0,0.0,0.0,0.0,0.0,0.0,0.0,0.0,0.0,0.0,0.0,0.0,0.0,0.0,0.0,0.0,0.0,0.0,0.0,1.3736,1.7308,1.9514,2.0333,1.966,0.0,0.0,0.0,0.0,0.0,0.0,2.1665,2.355,2.5839,2.8502,2.8592,2.8592,2.8592,2.8592,2.9579,3.1482,3.1482,3.1482,3.1482,3.1482,3.1482,3.1482,3.1482,3.1482,3.1317,2.94,2.7021,2.4507,2.3212,2.109,1.8948,1.9953,2.216,2.4612,2.4612,2.4612,2.4612,2.4612,2.5959,2.749,2.6767,0.0,0.0,0.0,0.0,2.6437,2.56,2.5375,2.5495,2.5989,2.6108,2.6108,2.6108,2.645,2.6021,0.0,2.3452,2.3058,2.1209,0.0,0.0,0.0,0.0,2.2302,2.4216,2.4927,2.5489,2.609,2.647,2.6471,2.593,2.571,2.5135,2.4036,2.3613,2.3363,2.3272,2.2629,2.1854,2.0898,0.0,0.0,0.0,0.0,0.0,0.0,0.0,0.0,0.0,0.0,0.0,0.0,0.0,0.0,0.0,0.0,0.0,0.0,0.0,0.0,0.0,0.0,0.0,0.0,0.0,0.0,0.0,0.0,0.0,1.9693,2.201,0.0,0.0,0.0,0.0,1.948,2.1919,2.4507,2.7085,2.7355,2.8592,3.1198,3.1273,3.1273,3.1273,3.1273,3.1347,3.1482,3.1482,3.1482,3.1482,3.1482,3.1482,3.1482,3.1482,3.1482,3.1467,3.1332,2.9774,2.7415,2.7315,2.7145,2.7025,2.706,2.724,2.7415,2.7415,2.7415,2.7415,2.7415,2.7505,2.7096,2.4567,2.5375,0.0,0.0,2.9325,2.9086,2.7769,2.7475,2.749,2.7505,2.752,2.752,2.752,2.7845,2.7635,0.0,2.5961,2.6118,2.4929,0.0,2.5287,2.5321,2.4913,2.506,2.6387,2.6179,2.6142,2.6607,2.6691,2.6674,2.664,2.5998,2.5575,2.5507,2.4171,2.3405,2.3384,2.3231,2.2764,2.1927,1.9784,0.0,0.0,0.0,0.0,0.0,0.0,0.0,0.0,0.0,0.0,0.0,0.0,0.0,0.0,0.0,0.0,0.0,0.0,0.0,0.0,0.0,0.0,0.0,0.0,0.0,0.0,0.0,0.0,2.4124,2.404,0.0,2.4687,2.168,2.1096,2.4552,2.7215,2.9116,3.0073,3.0118,3.0552,3.1437,3.1482,3.1482,3.1482,3.1482,3.1482,3.1482,3.1482,3.1482,3.1482,3.1482,3.1482,3.1482,3.1482,3.1482,3.1482,3.1482,3.0971,3.0118,3.0118,3.0118,3.0118,3.0118,3.0118,3.0118,3.0118,3.0118,3.0118,3.0118,3.0118,2.9624,2.6961,2.6861,2.791,2.9205,3.0193,3.0537,2.9205,2.8861,2.8861,2.8861,2.8861,2.8757,2.8323,2.8976,2.9332,2.8243,2.8089,2.7891,2.6975,2.6927,2.6995,2.6995,2.6841,2.7075,2.8061,2.802,2.7782,2.7435,2.7418,2.7232,2.6742,2.6454,2.5896,2.4932,2.4391,2.3765,2.2966,2.2903,2.2946,2.3088,2.12,1.9272,0.0,0.0,0.0,0.0,0.0,0.0,0.0,0.0,0.0,0.0,0.0,0.0,0.0,0.0,0.0,0.0,0.0,0.0,0.0,0.0,0.0,0.0,0.0,0.0,0.0,0.0,2.1002,2.4682,2.4997,2.4899,2.4941,2.3398,2.4178,2.8577,3.0537,3.1482,3.1482,3.1482,3.1482,3.1482,3.2407,3.2871,3.2871,3.2871,3.2871,3.2871,3.2871,3.2871,3.2871,3.2871,3.2871,3.2871,3.2871,3.2871,3.2871,3.2871,3.2871,3.2781,3.1825,3.1482,3.1482,3.1482,3.1482,3.1482,3.1482,3.1482,3.1482,3.1482,3.1482,3.121,2.9445,2.8906,2.9086,2.9983,3.0866,3.1285,3.0178,2.9894,2.9834,2.9624,2.9579,2.9567,2.9297,3.0042,3.0701,3.048,3.007,2.9482,2.8721,2.8602,2.8602,2.8602,2.8366,2.8501,2.9262,2.9144,2.8789,2.8264,2.8213,2.7909,2.7148,2.6843,2.6268,2.5287,2.4526,2.3925,2.3482,2.3076,2.3117,2.3692,2.192,2.0019,1.8018,0.0,0.0,0.0,0.0,0.0,0.0,0.0,0.0,0.0,0.0,0.0,0.0,0.0,0.0,0.0,0.0,0.0,0.0,0.0,0.0,0.0,0.0,0.0,1.8955,2.1053,2.243,2.1249,2.4894,2.5502,2.0542,2.4807,2.8891,3.1407,3.1601,3.1601,3.1601,3.1601,3.1601,3.1601,3.4158,3.5504,3.5504,3.5504,3.5504,3.5504,3.5504,3.5504,3.5504,3.5504,3.5504,3.5504,3.5504,3.5504,3.5504,3.5504,3.5504,3.525,3.2662,3.1601,3.1644,3.1612,3.164,3.164,3.1524,3.1482,3.1482,3.1482,3.1482,3.1482,3.1482,3.1482,3.1482,3.1482,3.1482,3.1317,3.0717,3.0537,3.0387,2.9789,2.9639,2.9825,3.0469,3.1079,3.1693,3.2315,3.1792,3.0999,3.0294,3.0159,3.0142,3.0142,2.9516,0.0,3.004,2.9499,2.9042,2.9062,2.9008,2.8704,2.7926,2.7165,2.6708,2.6657,2.4628,2.3891,2.4908,2.3831,2.3359,2.3707,2.1935,2.0159,1.8415,0.0,0.0,0.0,0.0,0.0,0.0,0.0,0.0,0.0,0.0,0.0,0.0,0.0,0.0,0.0,0.0,0.0,0.0,0.0,0.0,0.0,2.197,2.4004,2.3166,2.4013,2.4887,2.5258,2.7512,2.8803,2.8301,3.133,3.3634,3.4367,3.4412,3.4412,3.4412,3.4412,3.4412,3.4412,3.513,3.5504,3.5504,3.5504,3.5504,3.5504,3.5504,3.5504,3.5504,3.5504,3.5504,3.5504,3.5504,3.5504,3.5504,3.5504,3.5504,3.5429,3.4696,3.4412,3.4407,3.4438,3.4496,3.4186,3.2201,3.1482,3.1482,3.1482,3.1482,3.1482,3.1482,3.1482,3.1482,3.1482,3.1482,3.1437,3.1243,3.1255,3.121,3.1046,3.1001,3.0908,3.0603,3.0975,3.1326,3.1108,3.1621,3.1964,3.1719,3.1241,3.0903,3.0903,3.0717,0.0,3.0869,3.0717,3.0378,2.9854,2.9803,2.9482,2.8721,2.796,2.7046,2.5981,2.4831,2.4096,2.3845,2.3517,2.3498,2.3841,2.2394,2.1414,0.0,0.0,0.0,0.0,0.0,0.0,0.0,0.0,0.0,0.0,0.0,0.0,0.0,0.0,0.0,0.0,0.0,0.0,0.0,0.0,0.0,0.0,2.4017,2.6189,2.6189,2.6317,2.6985,2.8539,3.0234,3.1749,3.3066,3.4607,3.5504,3.5504,3.5504,3.5504,3.5504,3.5504,3.5504,3.5504,3.5504,3.5504,3.5504,3.5504,3.5504,3.5504,3.5504,3.5504,3.5504,3.5504,3.5504,3.5504,3.5504,3.5504,3.5504,3.5504,3.5504,0.0,0.0,0.0,0.0,0.0,3.5573,3.5342,3.3739,3.32,3.3021,3.1898,3.1482,3.1482,3.1482,3.1482,3.1482,3.1482,3.1482,3.1482,3.1482,3.1482,3.1482,3.1482,3.1482,3.1477,3.1394,3.1658,3.1896,3.1804,3.2386,0.0,3.2811,3.2412,3.2019,3.1698,3.1647,3.1546,3.1241,3.119,3.1038,3.0615,3.0565,3.026,2.9516,2.8755,0.0,0.0,0.0,2.4703,2.4086,2.4196,0.0,0.0,0.0,0.0,0.0,0.0,0.0,0.0,2.1617,2.2073,0.0,0.0,0.0,0.0,0.0,0.0,0.0,0.0,0.0,0.0,0.0,0.0,0.0,0.0,0.0,0.0,2.6364,2.8298,2.8298,2.8061,2.8652,3.0819,3.2537,3.4023,3.537,3.5504,3.5504,3.5504,3.5504,3.5504,3.5504,0.0,0.0,0.0,0.0,3.5504,3.5504,3.5504,3.5504,3.5504,3.5504,3.5504,3.5504,3.5504,3.5504,3.5504,3.5504,3.5504,3.5504,3.5504,3.5504,3.5504,3.5504,3.5504,3.5504,3.5504,3.5504,3.5504,3.5504,0.0,0.0,3.2751,3.1915,3.1915,3.1915,3.1915,3.1915,3.1915,3.1706,3.1511,3.1719,3.1586,3.1497,3.1571,3.1584,3.1697,3.2327,3.2492,3.2641,3.3235,3.3386,3.3401,3.3496,3.3462,3.3186,3.251,3.2408,3.2138,3.141,3.1309,3.1275,3.1207,0.0,0.0,3.0294,2.9533,2.8772,2.801,2.664,2.57,2.5333,2.5701,2.584,2.5752,2.612,2.6285,2.6285,2.7301,2.7571,2.7012,2.4323,2.4458,0.0,0.0,0.0,0.0,0.0,0.0,0.0,0.0,0.0,0.0,0.0,0.0,0.0,0.0,0.0,2.8072,2.9051,2.9465,2.9465,2.9025,2.913,3.0524,3.2378,3.4023,3.537,3.5504,3.5504,3.5504,3.5504,3.5504,3.5504,3.5504,3.5504,3.5504,3.5504,3.5504,3.5504,3.5504,3.5504,3.5504,0.0,0.0,3.5504,3.5504,3.5504,3.5504,3.5504,3.5504,3.5504,3.5504,3.5504,3.5504,3.5504,3.5504,3.5504,3.5504,3.5504,3.5504,3.5504,3.5504,3.5415,3.4906,3.4741,3.4741,3.4741,3.4741,0.0,3.4741,3.32,3.1779,3.2841,3.2332,3.1616,3.2198,3.1913,3.1539,3.1682,3.1682,3.1739,3.1894,3.2369,3.2956,3.3492,3.3462,3.3355,3.322,3.3186,3.2916,3.2171,3.211,3.185,3.1258,3.119,3.114,3.1004,3.0311,2.9567,2.8805,2.7892,2.7317,2.7267,2.793,2.7998,2.7368,2.7437,2.7487,2.7487,2.7672,2.8383,2.9414,2.8247,2.7994,0.0,0.0,0.0,0.0,0.0,0.0,0.0,0.0,0.0,0.0,0.0,1.7877,2.2309,0.0,2.7193,2.9428,2.9792,2.9792,2.9792,2.9541,2.9757,3.0785,3.2179,3.3696,3.5365,3.5504,3.5504,3.5504,3.5504,3.5504,3.5504,3.5504,3.5504,3.5504,3.5504,3.5504,3.5504,3.5504,3.5504,3.5504,3.5504,3.5504,3.5504,3.5504,3.5504,3.5504,3.5504,3.5504,3.5504,3.5504,3.5504,3.5504,3.5504,3.5504,3.5504,3.5504,3.5504,3.5504,3.5504,3.5504,3.5504,3.5504,3.5504,3.5504,3.5504,3.5504,3.5504,3.5504,3.4547,3.3679,3.4337,3.3694,3.2901,3.2976,3.2751,3.2422,3.2093,3.2018,3.1928,3.1541,3.212,3.2695,3.3039,3.3306,3.3499,3.3439,3.3148,3.2685,3.1945,3.1863,3.1583,3.0859,3.0793,3.079,3.0733,3.0359,2.9939,2.9567,2.8822,2.8399,2.8399,2.8772,2.8805,2.8416,2.8772,2.8958,2.8958,2.9702,3.0446,3.119,3.119,3.0987,0.0,0.0,0.0,0.0,0.0,0.0,0.0,0.0,2.6779,2.6779,2.5523,2.4971,2.6779,2.7105,2.7695,2.9503,2.9792,2.9792,2.9792,2.9792,3.0075,3.0833,3.1609,3.2975,3.5294,3.5504,3.5504,3.5504,3.5504,3.5504,3.5504,3.5504,3.5504,3.5504,3.5504,3.5504,3.5504,3.5504,3.5504,3.5504,3.5504,3.5504,3.5504,3.5504,3.5504,3.5504,3.5504,3.5504,3.5504,3.5504,3.5504,3.5504,3.5504,3.5504,3.5504,3.5504,3.5504,3.5504,3.5504,3.5504,3.5504,3.5504,3.5504,3.5504,3.5504,3.5504,3.5504,3.5504,3.5504,3.5504,3.5504,3.4861,3.4113,3.3769,3.3589,3.335,3.2826,3.2602,3.2362,3.1824,3.2042,3.2437,3.2602,3.2933,3.3252,3.3485,3.3047,3.246,3.1693,3.1613,3.1342,3.0687,3.0607,3.0615,3.0685,3.0599,3.0578,3.0751,3.0176,2.9837,2.9837,2.9837,2.9837,2.9837,3.0446,3.0751,3.0751,3.1918,3.2493,3.251,3.3271,3.3288,1.3921,1.5224,1.7203,1.9927,2.2702,2.4908,0.0,0.0,2.7921,2.7921,2.8524,2.9126,2.9377,2.9415,2.9503,2.9754,2.9792,2.9792,2.9792,2.9792,2.9869,2.9934,3.0075,3.1502,3.5148,3.5504,3.5504,3.5504,3.5504,3.5504,3.5504,3.5504,3.5504,3.5504,3.5504,3.5504,3.5504,3.5504,3.5504,3.5504,3.5504,3.5504,3.5504,3.5504,3.5504,3.5504,3.5504,3.5504,3.5504,3.5504,3.5504,3.5504,3.5504,3.5504,3.5504,3.5504,3.5504,3.5504,3.5504,3.5504,3.5504,3.5504,3.5504,3.5504,3.5504,3.5504,3.5504,3.5504,3.5504,3.5504,3.5504,3.4861,3.4233,3.4337,3.3918,3.3469,3.3395,3.2931,3.2497,3.2422,3.1987,3.1853,3.2492,3.212,3.217,3.3383,3.3521,3.323,3.2476,3.2396,3.2075,3.1358,3.1294,3.1549,3.2101,3.2154,3.2403,3.2992,3.2949,3.2916,3.2916,3.2916,3.2916,3.2916,3.3,3.3034,3.3034,3.3203,3.3288,3.3288,3.4032,3.432,1.6686,1.8392,2.0222,0.0,2.399,2.6289,2.6427,2.7155,2.8034,2.8913,2.9465,2.9792,2.9792,2.9792,2.9792,0.0,2.9792,2.9792,2.9792,2.9792,2.9792,2.9792,2.9792,3.0444,3.2015,3.2146,3.2146,3.2146,3.3199,3.4341,3.5439,3.6207,3.6282,3.5534,3.5504,3.5504,3.5504,3.5504,3.5504,3.5504,3.5504,3.5504,3.5504,3.5504,3.5504,3.5504,3.5504,3.5504,3.5504,3.5504,3.5504,3.5504,3.5504,3.5504,3.5504,3.5504,3.5504,3.5504,3.5504,3.5504,3.5504,3.5504,3.5504,3.5504,3.5504,3.5504,3.5504,3.5504,3.5504,3.5504,3.5504,3.5235,3.4981,3.5055,3.4861,3.4562,3.4158,3.3844,3.3544,3.3155,3.2557,3.2152,3.2485,3.1938,3.1682,3.2296,3.2351,3.2259,3.1982,3.1897,3.162,3.0929,3.0861,3.1162,3.1835,3.2177,3.2707,3.3364,3.3406,3.3406,3.3406,3.3406,3.3406,3.3406,3.3406,3.3406,3.3406,3.3829,3.4032,3.4066,3.481,3.5385,1.8045,0.0,0.0,2.2229,2.492,2.7306,2.7118,2.7645,2.8486,2.9566,2.9792,2.9792,2.9792,2.9792,2.9792,2.9792,2.9792,2.9792,2.9792,2.9792,2.9792,2.9792,2.9792,2.9792,2.9792,2.9792,2.9792,2.9792,3.1346,3.299,3.4636,3.5848,3.6362,3.6186,3.5983,3.5923,3.6028,3.6028,3.6028,3.6028,3.6028,3.6028,3.6013,3.5669,3.5639,3.5848,3.5609,3.5504,3.5504,3.5504,3.5504,3.5504,3.5504,3.5504,3.5504,3.5504,3.5504,3.5504,3.5504,3.5504,3.5504,3.5504,3.5504,3.5504,3.5504,3.5504,3.5504,3.5504,3.5504,3.5504,3.5504,3.5504,3.5504,3.5504,3.5504,3.537,3.4861,3.4607,3.4337,3.3858,3.323,3.2781,3.2781,3.2392,3.2018,3.1824,3.1809,3.1676,3.1497,3.1482,3.1345,3.0836,3.0782,3.1151,3.1997,3.2465,3.3106,3.3972,3.4015,3.4015,3.4015,3.4015,3.4015,3.4015,3.4015,3.4015,3.4015,3.4539,3.4912,3.5131,3.569,3.6349,0.0,0.0,1.9746,2.2842,2.5637,2.7805,2.8461,2.9202,2.9741,2.9779,2.9792,2.9792,2.9792,2.9792,2.9792,2.9792,2.9792,2.9792,2.9792,2.9792,2.9792,2.9792,2.9792,2.9792,0.0,2.9792,2.9792,2.9792,3.0826,3.187,3.28,3.3614,3.5238,3.7963,3.721,3.6956,3.7345,3.7345,3.7345,3.7345,3.7345,3.7345,3.7315,3.6073,3.5968,3.6716,3.5878,3.5504,3.5504,3.5504,3.5504,3.5504,3.5504,3.5504,3.5504,3.5504,3.5504,3.5504,3.5504,3.5504,3.5504,3.5504,3.5504,3.5504,3.5504,3.5504,3.5504,3.5504,3.5504,3.5504,3.5504,3.5504,3.5504,3.5504,3.5504,3.5489,3.5474,3.4951,3.4472,3.4442,3.3918,3.3469,3.3469,3.344,3.3215,3.2587,3.2482,3.2258,3.1556,3.1482,3.1467,3.1437,3.148,3.2043,3.3415,3.3569,3.4137,3.5448,3.5554,3.5554,3.5554,3.5554,3.5554,3.5554,3.5554,3.5554,3.5554,3.5571,3.5977,3.6705,3.6738,3.7144,0.0,0.0,2.1913,2.3606,2.6026,2.8021,2.8276,2.9102,2.9792,2.9792,2.9792,2.9792,2.9792,2.9792,2.9792,2.9792,2.9792,2.9792,2.9792,2.9792,2.9792,2.9792,2.9792,0.0,0.0,0.0,0.0,2.9792,3.047,3.1261,3.2233,3.3264,3.4356,3.5574,3.5762,3.5631,3.5348,3.6014,3.6385,3.6399,3.7426,3.7868,3.7883,3.8033,3.7943,3.7629,3.6746,3.6282,3.6118,3.5684,3.5504,3.5504,3.5504,3.5504,3.5504,3.5504,3.5504,3.5504,3.5504,3.5504,3.5504,3.5504,3.5504,3.5504,3.5504,3.5504,3.5504,3.5504,3.5504,3.5504,3.5504,3.5504,3.5504,3.5504,3.5504,3.5504,3.5504,3.5325,3.516,3.516,3.4607,3.4143,3.4143,3.3784,3.3425,3.32,3.2422,3.1779,3.1497,3.1482,3.1482,3.1482,3.1482,3.1894,3.2841,3.3339,3.3987,3.4894,3.5362,3.5622,3.5622,3.5622,3.5622,3.5622,3.5622,3.5876,3.64,3.64,3.6789,3.7533,3.7533,3.7922,2.0205,2.1188,2.2087,2.3969,2.5815,2.7279,2.7775,2.853,2.9118,2.9702,2.9792,2.9553,2.875,2.7959,2.7934,2.9528,3.0118,3.0369,3.0369,3.0369,3.0419,3.0557,3.0583,3.052,0.0,0.0,0.0,3.0093,3.0771,3.1402,3.2057,3.3031,3.3844,3.4411,3.4855,3.5012,3.5002,3.5686,3.6222,3.6619,3.7521,3.8186,3.8586,3.8916,3.8751,3.8153,3.7225,3.6731,3.6552,3.5804,3.5504,3.5504,3.5504,3.5504,3.5504,3.5504,3.5504,3.5504,3.5504,3.5504,3.5504,3.5504,3.5504,3.5504,3.5504,3.5504,3.5504,3.5504,3.5504,3.5504,3.5504,3.5504,3.5504,3.5504,3.5504,3.5504,3.5504,3.5504,3.5504,3.5504,3.5145,3.4846,3.4846,3.4292,3.3844,3.3844,3.2931,3.2228,3.2228,3.2228,3.2228,3.2228,3.2018,3.2243,3.3255,3.3482,3.3987,3.4894,3.5362,3.5622,3.5622,3.5893,3.6028,3.6028,3.6299,3.6688,3.7178,3.7178,3.7567,3.8294,3.8294,3.8684,2.085,2.0391,2.0361,2.3815,2.5062,2.5746,2.7128,2.7533,2.7959,2.9378,2.9702,2.9001,2.6277,0.0,2.4484,2.8787,3.0528,3.1411,3.1461,3.1436,3.1562,0.0,0.0,0.0,0.0,0.0,0.0,3.0733,0.0,3.2215,3.2215,3.2767,3.3556,3.4594,3.4581,3.5047,3.6039,3.6132,3.6696,3.7753,3.7753,3.8308,3.9322,3.8736,3.8437,3.8377,3.7345,3.6896,3.6821,3.5953,3.5594,3.5549,3.5549,3.5534,3.5504,3.5504,3.5504,3.5504,3.5504,3.5504,3.5504,3.5504,3.5504,3.5504,3.5504,3.5504,3.5504,3.5504,3.5504,3.5504,3.5504,3.5504,3.5504,3.5504,3.5504,3.5504,3.5504,3.5504,3.5504,3.5504,3.5504,3.5504,3.5504,3.4966,3.4532,3.4532,3.3993,3.3574,3.3499,3.3499,3.3499,3.3499,3.2931,3.3099,3.4473,3.4026,3.425,3.5588,3.5695,3.574,3.574,3.6451,3.684,3.684,3.7533,3.7922,3.7973,3.7973,3.8345,3.9056,3.9056,3.9411,2.1435,2.1934,2.2399,2.3305,2.4211,2.5041,2.5462,2.6625,2.7545,2.7383,2.8633,2.7065,1.8035,0.0,0.0,2.4623,2.8518,0.0,3.2528,3.2177,0.0,3.1976,0.0,3.1499,3.1399,3.1763,0.0,0.0,3.2064,3.2215,3.2215,3.2767,3.324,3.3471,3.3471,3.3628,3.3869,3.465,3.5601,3.6604,3.742,3.7919,3.8219,3.8854,3.9155,3.911,3.8332,3.7988,3.7928,3.721,3.6656,3.6237,3.6237,3.5938,3.5504,3.5504,3.5504,3.5504,3.5504,3.5504,3.5504,3.5504,3.5504,3.5504,3.5504,3.5504,3.5504,3.5504,3.5504,3.5504,3.5504,3.5504,3.5504,3.5504,3.5504,3.5504,3.5504,3.5504,3.5504,3.5504,3.5504,3.5504,3.5504,3.5355,3.525,3.525,3.51,3.4637,3.3619,3.3499,3.3499,3.3499,3.335,3.3637,3.4581,3.4951,3.5522,3.6456,3.7026,3.733,3.733,3.7516,3.7618,3.7618,3.7804,3.8176,3.8717,3.8717,3.9089,3.98,3.98,3.9901,2.2539,2.3115,2.3525,2.3525,2.375,2.4049,2.4049,2.4882,2.507,2.3185,2.3746,0.0,1.4821,1.775,0.0,0.0,0.0,0.0,3.1404,3.1925,3.2177,0.0,3.2478,0.0,3.2491,3.2993,3.3319,0.0,3.3093,3.2842,3.2604,3.3131,3.3319,3.3081,3.3081,3.3081,3.3081,3.3713,3.4498,3.5507,3.616,3.688,3.7829,3.8383,3.8943,3.9394,0.0,3.8841,3.8811,3.8437,3.7853,3.7195,3.7195,3.6686,3.5938,3.5938,3.5744,3.5504,3.5504,3.5504,3.5504,3.5504,3.5504,3.5504,3.5504,3.5504,3.5504,3.5504,3.5504,3.5504,3.5504,3.5504,3.5504,3.5504,3.5504,3.5504,3.5504,3.5504,3.5504,3.5504,3.5504,3.5504,3.5504,3.5504,3.5504,3.5504,3.5504,3.5235,3.4472,3.4382,3.4382,3.4382,3.4098,3.438,3.5457,3.5665,3.6125,3.7203,3.7663,3.7905,3.7905,3.821,3.8379,3.8379,3.87,3.9056,3.9462,3.9462,3.9681,4.007,4.007,4.007,2.3603,2.3965,2.4189,2.3955,2.3516,2.3076,2.2852,2.2617,2.1592,1.8525,0.0,1.6641,1.4385,1.6506,1.9244,2.1081,0.0,2.7018,2.9296,3.099,3.2284,3.3106,3.3608,3.3922,3.3997,3.4449,3.4726,3.4726,3.4349,3.3872,3.3319,3.3746,3.3796,3.3307,3.3294,3.3294,3.3294,3.3219,3.3671,3.4616,3.4703,3.5615,3.7434,3.7677,3.8308,3.9177,3.9337,3.9424,3.9424,3.9424,3.8916,3.8153,3.8153,3.7524,3.6611,3.6611,3.6193,3.5639,3.5639,3.5579,3.5504,3.5504,3.5504,3.5504,3.5504,3.5504,3.5504,3.5504,3.5504,3.5504,3.5504,3.5504,3.5504,3.5504,3.5504,3.5504,3.5504,3.5504,3.5504,3.5504,3.5504,3.5504,3.5504,3.5504,3.5504,3.5504,3.5504,3.5504,3.5504,3.5504,3.5504,3.5504,3.4966,3.5186,3.6537,3.6278,3.6592,3.7982,3.8128,3.8193,3.8193,3.8802,3.914,3.914,3.9749,4.007,4.007,4.007,4.007,4.007,4.007,4.007,2.3232,2.4326,2.5088,2.3652,2.3213,2.2764,2.1338,1.9912,0.0,0.0,1.541,1.3633,1.3184,1.5476,1.771,1.8574,0.0,0.0,0.0,0.0,3.1625,0.0,0.0,0.0,0.0,0.0,0.0,0.0,0.0,3.5014,3.4462,3.4525,3.4537,3.4449,3.4437,3.4437,3.4437,3.3985,3.3834,3.4071,3.4497,3.491,3.5305,3.7035,3.7904,3.8144,3.9017,0.0,3.9424,3.9424,3.899,3.8347,3.8347,3.7898,3.724,3.724,3.6851,3.6312,3.6312,3.5953,3.5504,3.5504,3.5504,3.5504,3.5504,3.5504,3.5504,3.5504,3.5504,3.5504,3.5504,3.5504,3.5504,3.5504,3.5504,3.5504,3.5504,3.5504,3.5504,3.5504,3.5504,3.5504,3.5504,3.5504,3.5504,3.5504,3.5504,3.5504,3.5504,3.5504,3.5504,3.5504,3.54,3.5664,3.6551,3.7096,3.7834,3.8669,3.9345,3.9698,3.9698,3.9817,3.9884,3.9884,4.0003,4.007,4.007,4.007,4.007,4.007,4.007,4.007,2.3594,2.4639,2.5537,2.4697,2.3477,2.1445,1.7471,0.0,0.0,0.0,1.3838,1.2881,1.2881,0.0,0.0,0.0,0.0,0.0,0.0,0.0,0.0,0.0,0.0,0.0,0.0,0.0,0.0,0.0,0.0,3.5604,3.4763,3.4726,3.4726,3.4726,3.4726,3.4726,3.4726,3.4462,3.4324,3.4324,3.455,3.499,3.5561,3.6307,3.6882,3.7501,3.8214,0.0,3.862,3.9177,3.923,3.8931,3.8931,3.8512,3.7913,3.7913,3.7524,3.6971,3.6971,3.6761,3.6447,3.6118,3.5789,3.5504,3.5504,3.5504,3.5504,3.5504,3.5504,3.5504,3.5504,3.5504,3.5504,3.5504,3.5504,3.5504,3.5504,3.5504,3.5504,3.5504,3.5504,3.5504,3.5504,3.5504,3.5504,3.5504,3.5504,3.5504,3.5504,3.5504,3.5504,3.5504,3.5504,3.5782,3.6554,3.6964,3.7499,3.8302,3.9049,3.9489,3.9489,3.9901,4.007,4.007,4.007,4.007,4.007,4.007,4.007,4.007,4.007,4.007,2.4043,2.4766,2.541,2.5225,2.3516,2.0469,1.5039,1.4111,0.0,0.0,1.2939,1.2881,1.2881,0.0,0.0,0.0,0.0,0.0,0.0,0.0,0.0,0.0,0.0,0.0,0.0,0.0,0.0,0.0,0.0,0.0,3.5115,3.5077,3.5077,3.5077,3.5077,3.5077,3.5077,3.4964,3.4901,3.4901,3.4776,3.5137,3.5957,3.5759,3.6049,3.6798,3.76,0.0,0.0,3.8943,3.9424,3.9424,3.9424,3.9095,3.8601,3.8601,3.8182,3.7614,3.7614,3.7524,3.733,3.6851,3.6252,3.5684,3.5549,3.5504,3.5504,3.5504,3.5504,3.5504,3.5504,3.5504,3.5504,3.5504,3.5504,3.5504,3.5504,3.5504,3.5504,3.5504,3.5504,3.5504,3.5504,3.5504,3.5504,3.5504,3.5504,3.5504,3.5504,3.5504,3.5504,3.5504,3.5504,3.5718,3.6337,3.6492,3.6843,3.7515,3.8246,3.869,3.869,3.9437,3.9833,3.9833,4.002,4.007,4.007,4.007,4.007,4.007,4.007,4.007,2.417,2.4453,2.4355,2.3574,2.2627,2.0986,1.7549,0.0,0.0,1.3701,1.3145,1.2881,1.2881,1.3281,1.4307,0.0,0.0,2.0031,0.0,0.0,0.0,0.0,0.0,0.0,0.0,0.0,0.0,0.0,0.0,0.0,3.6219,3.6207,3.6207,3.6207,3.6207,3.6207,3.6207,3.5717,3.5466,3.5466,3.4964,3.4713,3.4893,3.583,3.6023,3.5774,3.7737,0.0,0.0,3.8943,3.9424,3.9424,3.9424,3.9379,3.9334,3.9334,3.8886,3.8302,3.8302,3.7913,3.7404,3.7345,3.6896,3.6282,3.5684,3.5504,3.5504,3.5504,3.5504,3.5504,3.5504,3.5504,3.5504,3.5504,3.5504,3.5504,3.5504,3.5504,3.5504,3.5504,3.5504,3.5504,3.5504,3.5504,3.5504,3.5504,3.5504,3.5504,3.5504,3.5504,3.5504,3.5504,3.5504,3.5504,3.5619,3.6228,3.66,3.6737,3.744,3.7921,3.7921,3.8635,3.9016,3.9016,3.9731,4.007,4.007,4.007,4.007,4.007,4.007,4.007,2.3555,2.4023,2.4209,2.335,2.2109,2.0303,1.7314,0.0,1.5293,1.3506,1.2998,1.2881,1.2881,1.3018,1.3807,1.5894,1.5899,1.7542,2.2977,0.0,0.0,0.0,0.0,0.0,0.0,0.0,0.0,0.0,0.0,0.0,3.6383,3.6358,3.6358,3.6358,3.6358,3.6358,3.6358,3.6144,3.6031,3.6031,3.5818,3.5705,3.5705,3.5798,3.5686,3.5545,3.6766,3.6948,0.0,3.7585,3.7762,3.7482,3.7482,3.789,3.8472,3.8472,3.8693,3.9005,3.9005,3.8841,3.8556,3.8138,3.7838,3.7509,3.6851,3.6387,3.6088,3.6088,3.5804,3.5504,3.5504,3.5504,3.5504,3.5504,3.5504,3.5504,3.5504,3.5504,3.5504,3.5504,3.5504,3.5504,3.5504,3.5504,3.5504,3.5504,3.5504,3.5504,3.5504,3.5504,3.5504,3.5504,3.5504,3.5504,3.5504,3.5782,3.5943,3.5943,3.6631,3.7084,3.7084,3.7847,3.8246,3.8246,3.8541,3.8941,3.9368,3.9368,3.961,4.007,4.007,4.007,2.2911,2.3584,2.3896,2.3291,2.1943,2.0068,0.0,1.6416,1.5517,1.332,1.2881,1.2881,1.2881,1.2881,1.3531,1.5562,1.5423,1.6784,2.1688,2.2992,0.0,0.0,0.0,0.0,0.0,0.0,0.0,0.0,0.0,0.0,3.6872,3.6684,3.6521,3.637,3.6358,3.6358,3.6358,3.6358,3.6358,3.6358,3.6358,3.6358,3.6358,3.5968,3.5705,3.5516,3.6235,3.624,0.0,3.6729,3.6888,3.646,3.6281,3.6682,3.7343,3.7663,3.8308,3.8943,3.9265,3.9424,3.9334,3.8856,3.8691,3.8616,3.8138,3.7419,3.6761,3.6761,3.6432,3.6028,3.5848,3.5804,3.5744,3.5549,3.5504,3.5504,3.5504,3.5504,3.5504,3.5504,3.5504,3.5504,3.5504,3.5504,3.5504,3.5504,3.5504,3.5504,3.5504,3.5504,3.5504,3.5504,3.5504,3.5504,3.5504,3.5504,3.5504,3.5504,3.6006,3.6275,3.6275,3.704,3.7456,3.7456,3.769,3.8035,3.858,3.858,3.887,3.9401,3.9401,3.9558,2.2494,2.3144,2.3154,2.3135,2.2178,2.0664,0.0,1.6992,1.5517,1.332,1.2881,1.2881,1.2881,1.2881,1.3531,1.5562,1.6705,1.8588,2.2221,2.4215,0.0,0.0,0.0,0.0,0.0,0.0,0.0,0.0,0.0,0.0,3.799,3.7475,3.6923,3.6383,3.6358,3.6358,3.6358,3.6358,3.6358,3.6358,3.6358,3.6358,3.6358,3.6358,3.6056,3.5542,3.6651,3.6832,0.0,3.6906,3.707,3.7001,3.6446,3.6198,3.6369,3.742,3.7829,3.7994,3.9017,3.9424,3.9424,3.9409,3.9409,3.9409,3.9394,3.8467,3.7404,3.7404,3.7404,3.724,3.6626,3.6477,3.6312,3.5669,3.5504,3.5504,3.5504,3.5504,3.5504,3.5504,3.5504,3.5504,3.5504,3.5504,3.5504,3.5504,3.5504,3.5504,3.5504,3.5504,3.5504,3.5504,3.5504,3.5504,3.5504,3.5504,3.5504,3.5504,3.5504,3.5504,3.5504,3.6228,3.66,3.66,3.7397,3.7806,3.7806,3.7806,3.7822,3.7806,3.7806,3.8189,1.834,1.92,1.9568,1.9626,1.9111,1.8184,1.6592,1.5693,1.4756,1.3203,1.2881,1.2881,1.2881,1.2881,1.373,1.6363,1.6632,1.7947,0.0,0.0,0.0,0.0,0.0,0.0,0.0,0.0,0.0,0.0,0.0,0.0,3.8027,3.7839,3.75,3.6935,3.6558,3.6358,3.6358,3.6358,3.6358,3.6358,3.6358,3.6358,3.6358,3.6358,3.627,3.6107,3.6455,3.631,0.0,3.5942,3.5577,3.4852,3.4671,3.484,3.521,3.5534,3.616,3.6774,3.7084,3.7238,3.7329,3.8069,3.8308,3.8472,3.9177,3.8796,3.7988,3.7539,3.7404,3.736,3.7165,3.712,3.706,3.6851,3.6806,3.6806,3.6806,3.6477,3.6178,3.6178,3.5804,3.5504,3.5504,3.5504,3.5504,3.5504,3.5504,3.5504,3.5504,3.5504,3.5504,3.5504,3.5504,3.5504,3.5504,3.5504,3.5504,3.5504,3.5504,3.5504,3.5504,3.5718,3.5831,3.5831,3.6085,3.6477,3.6964,3.6964,3.7515,3.8467,3.8467,3.8841,1.5434,1.6729,1.7657,1.7929,1.7568,1.6836,1.5674,1.4961,1.4228,1.3115,1.2881,1.2881,1.2881,1.3008,1.385,1.6081,1.6632,0.0,0.0,0.0,0.0,0.0,0.0,0.0,0.0,0.0,0.0,0.0,0.0,0.0,3.8668,3.8442,3.8178,3.7826,3.7073,3.6671,3.6671,3.6471,3.6358,3.6358,3.6358,3.6358,3.6358,3.6358,3.6358,3.6358,3.6358,3.6169,0.0,3.5629,3.514,3.45,3.4299,3.4285,3.4432,3.4826,3.5234,3.5668,3.6053,3.6198,3.629,3.7021,3.751,3.7919,3.862,3.8807,3.8691,3.8287,3.8167,3.8108,3.7838,3.7778,3.7719,3.7464,3.7404,3.7404,3.7404,3.7105,3.6836,3.6836,3.6507,3.6222,3.6222,3.6222,3.6222,3.6222,3.6028,3.5878,3.5878,3.5669,3.5504,3.5504,3.5504,3.5504,3.5504,3.5504,3.5504,3.5504,3.5504,3.5504,3.5504,3.5504,3.5504,3.5504,3.5504,3.5733,3.6165,3.6425,3.7123,3.8278,3.8591,3.8951,0.0,1.5331,1.6819,1.7379,1.6996,1.6279,1.543,1.4639,0.0,1.3047,1.2881,1.292,1.3037,1.333,1.3967,1.5299,1.6953,0.0,0.0,0.0,0.0,0.0,0.0,0.0,0.0,0.0,0.0,0.0,0.0,0.0,3.9697,3.9207,3.8931,3.8931,3.7877,3.7287,3.7249,3.6697,3.642,3.642,3.6383,3.6358,3.6358,3.6358,3.6358,0.0,3.6358,3.6358,0.0,3.5818,3.5579,3.5491,3.4977,3.4449,3.4035,3.5102,3.5063,3.4799,3.5722,3.6001,3.5974,3.6053,3.6852,3.7677,3.7677,3.8472,3.9424,3.9424,3.9424,3.9275,3.8631,3.8467,3.8302,3.7704,3.7554,3.7554,3.7554,3.7509,3.7479,3.7479,3.7434,3.7404,3.7404,3.7404,3.7404,3.7404,3.6926,3.6552,3.6552,3.6013,3.5639,3.5639,3.5639,3.5639,3.5639,3.5549,3.5504,3.5504,3.5504,3.5534,3.5579,3.5579,3.5594,3.5639,3.5639,3.5639,3.5639,3.6252,3.6866,3.7479,3.8244,3.8589,1.149,0.0,1.366,1.3314,1.3765,1.4121,0.0,1.3564,1.3506,1.2988,0.0,1.3281,1.458,1.4365,1.5047,0.0,0.0,0.0,0.0,0.0,0.0,0.0,0.0,0.0,0.0,0.0,0.0,0.0,0.0,3.9697,3.9697,3.9572,3.9496,3.9496,3.8831,3.8266,3.7814,3.7262,3.6985,3.6985,3.6571,3.6358,3.6358,3.6358,3.6358,3.6358,3.6358,3.6358,3.6358,3.6219,3.5931,3.5529,3.5403,3.5014,3.4525,3.4781,3.459,3.4107,3.4341,3.4144,3.394,3.4815,3.5748,3.6604,3.6604,3.789,3.9424,3.9424,3.9424,3.9379,3.923,3.917,3.914,3.899,3.8945,3.8945,3.8945,3.8542,3.8153,3.8153,3.7749,3.7404,3.7404,3.7404,3.7404,3.7404,3.7285,3.7195,3.7195,3.706,3.6956,3.6956,3.6956,3.6956,3.6956,3.6073,3.5504,3.5504,3.5504,3.5729,3.6237,3.6252,3.6477,3.6956,3.6956,3.6956,3.6956,3.712,3.7524,3.8167,3.8361,3.8702,1.1166,1.2228,1.3203,1.3187,1.3633,1.4033,1.3809,0.0,0.0,0.0,0.0,1.3506,1.4619,0.0,0.0,0.0,0.0,0.0,0.0,0.0,0.0,0.0,0.0,0.0,0.0,0.0,0.0,0.0,0.0,3.9697,3.9697,3.9697,3.9697,3.9697,3.9408,3.8981,3.8417,3.7839,3.7563,3.755,3.6998,3.6734,3.6734,3.6471,3.6358,3.6358,3.6358,3.6358,3.6358,3.6358,3.6194,3.5918,3.5918,3.5579,3.5102,3.5102,3.4751,3.4274,3.4274,3.3922,3.3532,3.4183,3.4875,3.5507,3.5507,3.6618,3.7965,3.7965,3.7965,3.7965,3.7965,3.7965,3.7965,3.7965,3.7965,3.7965,3.7965,3.8002,3.8149,3.8149,3.8258,3.8332,3.8332,3.8332,3.8332,3.8332,3.7668,3.7093,3.7093,3.6474,3.6157,3.6681,3.6681,3.6891,3.7336,3.6776,3.6372,3.6372,3.6372,3.6537,3.6896,3.6911,3.706,3.7404,3.7404,3.7554,3.7853,3.7853,3.8197,3.8856,3.8856,3.9065,1.1888,1.3186,1.438,1.44,1.4729,1.4951,1.4814,0.0,0.0,0.0,0.0,0.0,0.0,0.0,0.0,0.0,0.0,0.0,0.0,0.0,0.0,0.0,0.0,0.0,0.0,0.0,0.0,0.0,0.0,3.9697,3.9697,3.9697,3.9697,3.9697,3.9697,3.9471,3.9007,3.8429,3.814,3.8128,3.7575,3.7312,3.7287,3.6734,3.6483,3.6483,0.0,0.0,3.6358,3.6358,3.6358,3.6358,3.6358,3.6081,3.5667,3.5667,3.5316,3.4839,3.4751,3.4412,3.4022,3.4022,3.4353,3.4677,3.4585,3.5181,3.5843,3.5762,3.5974,3.6198,3.6198,3.6198,3.6198,3.6198,3.6198,3.6198,3.6198,3.693,3.7587,3.7587,3.8383,3.9104,3.8943,3.9031,3.9104,3.8943,3.7651,3.6682,3.6682,3.5479,3.5022,3.6085,3.6172,3.6605,3.7635,3.7719,3.7719,3.7719,3.7524,3.7464,3.7554,3.7659,3.7719,3.7719,3.7719,3.7988,3.8542,3.8542,3.8841,3.9424,3.9424,3.9424,1.3186,1.5157,1.6196,1.3524,1.4392,1.5743,1.4951,0.0,0.0,0.0,0.0,0.0,0.0,0.0,0.0,0.0,0.0,0.0,0.0,0.0,0.0,0.0,0.0,0.0,0.0,0.0,0.0,0.0,0.0,3.9697,3.9697,3.9697,3.9697,3.9697,3.9697,3.9647,3.9572,3.9019,3.8743,3.873,3.8153,3.7889,3.7864,3.7312,3.7061,3.7023,0.0,3.6358,3.6358,3.6358,3.6358,3.6358,3.6358,3.6307,3.6232,3.6232,3.5893,3.5353,3.4889,3.4663,3.46,3.46,3.4627,3.4629,3.4161,3.4096,3.4155,3.3683,3.4884,3.6198,3.6198,3.6198,3.6198,3.6198,3.6198,3.6198,3.6198,3.6369,3.6448,3.6448,3.7329,3.7738,3.6852,3.742,3.7738,3.6852,3.6443,3.6295,3.6295,3.6069,3.6339,3.739,3.7541,3.7928,3.9023,3.911,3.911,3.911,3.8033,3.7659,3.8212,3.8796,3.911,3.911,3.911,3.9155,3.926,3.926,3.932,3.9424,3.9424,3.9424,1.2552,1.4468,1.5962,1.4301,1.6075,1.7978,1.7363,0.0,0.0,0.0,0.0,0.0,0.0,0.0,0.0,0.0,0.0,0.0,0.0,0.0,0.0,0.0,0.0,0.0,0.0,0.0,0.0,0.0,0.0,0.0,3.9697,3.9697,3.9697,3.9697,3.9697,3.9697,3.9697,3.9446,3.932,3.9308,3.8743,3.8479,3.8454,3.7889,3.7462,3.7174,0.0,3.6634,3.6358,3.6358,3.6358,3.6358,3.6358,3.6358,3.6358,3.6358,3.6194,3.5943,3.5692,3.5416,3.5165,3.5165,3.4964,3.4675,3.4424,3.4349,3.4248,3.3796,3.4093,3.4485,3.4485,3.4485,3.4485,3.4485,3.4485,3.4485,3.4485,3.4485,3.4733,3.5278,3.6225,3.6774,3.6277,3.6604,3.6774,3.6277,3.5734,3.5359,3.5359,3.4884,3.4966,3.6015,3.6094,3.6554,3.7572,3.7648,3.813,3.9337,3.8841,3.8631,3.8931,3.8693,3.8782,3.9424,3.8855,3.8782,3.9424,3.9424,3.9424,3.9424,3.9783,3.9948,1.2319,1.4003,1.5575,1.5604,0.0,1.9365,1.9551,0.0,0.0,0.0,0.0,0.0,0.0,0.0,0.0,0.0,0.0,0.0,0.0,0.0,0.0,0.0,0.0,0.0,0.0,0.0,0.0,0.0,0.0,0.0,3.9697,3.9697,3.9697,3.9697,3.9697,3.9697,3.9697,3.9697,3.9697,3.9685,3.927,3.9057,3.9044,3.8467,3.7977,3.7575,3.7437,3.7061,3.6558,3.6558,3.6471,3.6358,3.6358,3.6358,3.6358,3.6358,3.6358,3.6358,3.6358,3.6094,3.573,3.573,3.5454,3.5077,3.4901,3.4851,3.4776,3.4399,3.3897,3.3407,3.3144,3.3206,3.3282,3.3119,3.3081,3.3081,3.3081,3.3081,3.3313,3.4191,3.4966,3.5494,3.5494,3.5654,3.5734,3.5494,3.4815,3.4345,3.4345,3.3641,3.3471,3.4594,3.4664,3.5129,3.6119,3.6198,3.6916,3.8531,3.862,3.862,3.862,3.789,3.7814,3.8605,3.7814,3.7901,3.8855,3.9165,3.9328,3.9491,4.0234,4.0621,1.3917,1.5312,1.6221,1.7006,1.7432,0.0,2.0029,1.9814,0.0,2.1279,0.0,0.0,0.0,0.0,0.0,0.0,0.0,0.0,0.0,0.0,0.0,0.0,0.0,0.0,0.0,0.0,0.0,0.0,0.0,0.0,3.9697,3.9697,3.9697,3.9697,3.9697,3.9697,3.9697,3.9697,3.9697,3.9697,3.9647,3.9634,3.9622,3.9057,3.8781,3.8718,3.8178,3.7638,3.7123,3.7123,3.6822,3.6358,3.6358,3.6358,3.6358,3.6358,3.6358,3.6358,3.6358,3.6332,3.6307,3.6307,3.627,3.6119,3.5429,3.5228,3.5152,3.4788,3.465,3.4374,3.3345,3.3583,3.3922,3.3232,3.3081,3.3081,3.3081,3.3081,3.3167,3.324,3.3227,3.3313,3.3313,3.4191,3.4511,3.3471,3.324,3.324,3.324,3.3154,3.3471,3.4594,3.4664,3.5129,3.6119,3.6198,3.629,3.6448,3.6448,3.6448,3.6448,3.6369,3.6369,3.6448,3.6355,3.666,3.7243,3.8304,3.9087,3.9571,4.0793,4.1309,1.2805,1.4495,1.6208,1.659,1.7677,0.0,0.0,2.1553,2.2422,2.3623,2.4092,0.0,0.0,0.0,0.0,0.0,0.0,0.0,0.0,0.0,0.0,0.0,0.0,0.0,0.0,0.0,0.0,0.0,0.0,0.0,3.9697,3.9697,3.9697,3.9697,3.9697,3.9697,3.9697,3.9697,3.9697,3.9697,3.9697,3.9697,3.9685,3.9484,3.9195,3.8856,3.8642,3.8216,3.7663,3.7324,3.7061,3.6835,3.6496,3.6358,3.6358,3.6358,3.6358,3.6358,3.6358,3.6358,3.6358,3.6358,3.6358,3.6307,3.6031,3.5943,3.5918,3.578,3.5742,3.5491,3.4387,3.3796,3.342,3.3144,3.4123,3.5115,3.5115,3.5115,3.4989,3.4525,3.4073,3.3834,3.406,3.4426,3.4601,3.4186,3.3809,3.3709,3.406,3.3796,3.3795,3.4318,3.3995,3.3869,3.4249,3.4249,3.4457,3.4927,3.5778,3.6377,3.6764,3.6144,3.6238,3.7262,3.6617,3.6739,3.7635,3.8045,3.8319,3.8557,4.0198,4.0894,1.2777,1.4372,1.6237,1.6675,0.0,0.0,2.1475,2.2744,2.3955,2.5225,2.5615,0.0,0.0,0.0,0.0,0.0,0.0,0.0,0.0,0.0,0.0,0.0,0.0,0.0,0.0,0.0,0.0,0.0,0.0,0.0,3.9697,3.9697,3.9697,3.9697,3.9697,3.9697,3.9697,3.9697,3.9697,3.9697,3.9697,3.9697,3.9697,3.9697,3.9484,3.9132,3.9132,3.8806,3.8253,3.7877,3.75,3.7123,3.6571,3.6358,3.6358,3.6358,3.6358,3.6358,3.6358,3.6358,3.6358,3.6358,3.6358,3.6358,3.6358,3.6358,3.6358,3.6358,3.6358,3.6182,3.5441,3.4675,3.411,3.411,3.5265,3.6358,3.6358,3.6358,3.6207,3.5717,3.5203,3.4839,3.4738,3.4726,3.4726,3.4726,3.4399,3.4173,3.4198,3.4173,3.4211,3.4336,3.3897,3.3596,3.3596,3.3596,3.3809,3.4311,3.5241,3.5935,3.6364,3.5641,3.5738,3.6882,3.6131,3.6223,3.7163,3.7493,3.7758,3.8034,3.9648,4.0527,1.4492,1.542,1.6396,0.0,0.0,0.0,2.2666,2.3174,2.3799,2.5967,0.0,0.0,0.0,0.0,0.0,0.0,0.0,0.0,0.0,0.0,0.0,0.0,0.0,0.0,0.0,0.0,0.0,0.0,0.0,3.8137,3.9581,3.9697,3.9697,3.9697,3.9697,3.9697,3.9697,3.9697,3.9697,3.9697,3.9697,3.9697,3.9697,3.9697,3.9697,3.9697,3.9697,3.9383,3.8881,3.8868,3.8203,3.7136,3.6584,3.637,3.637,3.6358,3.6358,3.6358,3.6358,3.6358,3.6358,3.6358,3.6358,3.6358,3.6358,3.6358,3.6358,3.6358,3.6358,3.6358,3.6358,3.6358,3.6358,3.6358,3.6358,3.6358,3.6358,3.6358,3.6358,3.6358,3.6358,3.6019,3.4926,3.4738,3.4738,3.4738,3.4738,3.4336,3.3232,3.406,3.4738,3.4738,3.4738,3.4738,3.4738,3.4738,3.4738,3.4738,3.4738,3.4726,3.4726,3.4726,3.4726,3.4738,3.4738,3.5002,3.5554,3.6753,3.7553,3.8107,3.936,4.049,1.4321,1.585,0.0,0.0,0.0,0.0,0.0,2.4746,0.0,0.0,0.0,0.0,0.0,0.0,0.0,0.0,0.0,0.0,0.0,0.0,0.0,0.0,0.0,0.0,0.0,0.0,0.0,0.0,0.0,3.769,3.8137,3.9129,3.9697,3.9697,3.9697,3.9697,3.9697,3.9697,3.9697,3.9697,3.9697,3.9697,3.9697,3.9697,3.9697,3.9697,3.9697,3.9597,3.9421,3.9032,3.8429,3.7713,3.7161,3.6935,3.6897,3.6508,3.6358,3.6358,3.6358,3.6358,3.6358,3.6358,3.6358,3.6358,3.6358,3.6358,3.6358,3.6358,3.6358,3.6358,3.6358,3.6358,3.6358,3.6358,3.6358,3.6358,3.6358,3.6358,3.6358,3.6358,3.6358,3.6257,3.5931,3.5881,3.5881,3.5881,3.5881,3.5479,3.4374,3.519,3.5881,3.5881,3.5881,3.5881,3.5881,3.5881,3.5881,3.5881,3.5881,3.5529,3.4751,3.4964,3.5353,3.5868,3.5881,3.5956,3.6119,3.6468,3.673,3.6883,3.8121,3.8814,1.5762,0.0,0.0,0.0,0.0,0.0,0.0,0.0,0.0,0.0,0.0,0.0,0.0,0.0,0.0,0.0,0.0,0.0,0.0,0.0,0.0,0.0,0.0,0.0,0.0,0.0,0.0,0.0,3.5277,3.6259,3.7465,3.836,3.9129,3.9685,3.9697,3.9697,3.9697,3.9697,3.9697,3.9697,3.9697,3.9697,3.9697,3.9697,3.9697,3.9697,3.9697,3.9697,3.9647,3.9094,3.8668,3.8291,3.7726,3.7513,3.745,3.6885,3.6684,3.6659,3.6433,3.6358,3.6358,3.6358,3.6358,3.6358,3.6358,3.6358,3.6358,3.6358,3.6358,3.6358,3.6358,3.6358,3.6358,3.6358,3.6358,3.6358,3.6358,3.6358,3.6358,3.6358,3.6358,3.6358,3.6358,3.6358,3.6358,3.6358,3.6358,3.6119,3.5454,3.5956,3.6358,3.6358,3.6358,3.6358,3.6358,3.6358,3.6358,3.6358,3.6358,3.6069,3.5403,3.5592,3.5906,3.6358,3.6358,3.6358,3.6358,3.6358,3.6358,3.6452,3.7057,3.7678,0.0,0.0,0.0,0.0,0.0,0.0,0.0,0.0,0.0,0.0,0.0,0.0,0.0,0.0,0.0,0.0,0.0,0.0,0.0,0.0,0.0,0.0,0.0,0.0,0.0,0.0,0.0,3.2747,3.2964,3.4281,3.6918,3.7252,3.7914,3.9258,3.9465,3.9465,3.9258,3.9581,3.9581,3.9478,3.9685,3.9697,3.9697,3.9697,3.9697,3.9697,3.9697,3.9697,3.9647,3.9145,3.8944,3.8881,3.8316,3.809,3.8015,3.7462,3.7262,3.7186,3.6646,3.6471,3.6458,3.6383,3.6358,3.6358,3.6358,3.6358,3.6358,3.6358,3.6358,3.6358,3.6358,3.6358,3.6358,3.6358,3.6358,3.6358,3.6358,3.6358,3.6358,3.6358,3.6358,3.6358,3.6358,3.6358,3.6358,3.6358,3.6358,3.6358,3.6358,3.6358,3.6358,3.6358,3.6358,3.6358,3.6358,3.6358,3.6358,3.6358,3.6358,3.6358,3.6358,3.6358,3.6358,3.6358,3.6358,3.6358,3.6358,3.6358,3.6358,3.6358,3.6358,3.6977,0.0,0.0,0.0,0.0,0.0,0.0,0.0,0.0,0.0,0.0,0.0,0.0,0.0,0.0,0.0,0.0,0.0,0.0,0.0,0.0,0.0,0.0,0.0,0.0,0.0,0.0,3.0995,3.1325,3.2426,3.3406,3.4069,3.5167,3.5945,3.6283,3.737,3.737,3.6283,3.8594,3.9141,3.8019,3.9141,3.9697,3.9697,3.9697,3.9697,3.9697,3.9697,3.9697,3.9685,3.9572,3.9521,3.9459,3.8906,3.868,3.8617,3.804,3.7826,3.7776,3.7387,3.7262,3.7161,3.6558,3.6358,3.6358,3.6358,3.6358,3.6358,3.6358,3.6358,3.6358,3.6358,3.6358,3.6358,3.6358,3.6358,3.6358,3.6358,3.6358,3.6358,3.6358,3.6358,3.6358,3.6358,3.6358,3.6358,3.6358,3.6358,3.6358,3.6358,3.6358,3.6358,3.6358,3.6358,3.6358,3.6358,3.6358,3.6358,3.6358,3.6358,3.6358,3.6358,3.6358,3.6358,3.6358,3.6358,3.6358,3.6358,3.6358,3.6358,3.6358,3.6358,3.6534,0.0,0.0,0.0,0.0,0.0,0.0,0.0,0.0,0.0,0.0,0.0,0.0,0.0,0.0,0.0,0.0,0.0,0.0,0.0,0.0,0.0,0.0,0.0,0.0,0.0,0.0,3.0889,3.0889,3.1662,3.2311,3.3077,3.3856,3.4515,3.53,3.6054,3.6054,3.5288,3.7489,3.8243,3.7465,3.9025,3.9697,3.9697,3.9697,3.9697,3.9697,3.9697,3.9697,3.9697,3.9697,3.9697,3.9672,3.9383,3.927,3.9195,3.863,3.8417,3.8329,3.7713,3.7613,3.7588,3.6659,3.6358,3.6358,3.6358,3.6358,3.6358,3.6358,3.6358,3.6358,3.6358,3.6358,3.6358,3.6358,3.6358,3.6358,3.6358,3.6358,3.6358,3.6358,3.6358,3.6358,3.6358,3.6358,3.6358,3.6358,3.6358,3.6358,3.6358,3.6358,3.6358,3.6358,3.6358,3.6358,3.6358,3.6358,3.6358,3.6358,3.6358,3.6358,3.6358,3.6358,3.6358,3.6358,3.6358,3.6358,3.6358,3.6358,3.6358,3.6358,3.6358,3.6358,0.0,0.0,0.0,0.0,0.0,0.0,0.0,0.0,0.0,0.0,0.0,0.0,0.0,0.0,0.0,0.0,0.0,0.0,0.0,0.0,0.0,0.0,0.0,0.0,0.0,3.0889,3.0889,3.0889,3.0889,3.1441,3.2644,3.2747,3.3304,3.4526,3.4748,3.4858,3.4526,3.6271,3.7145,3.7133,3.8908,3.9697,3.9697,3.9697,3.9697,3.9697,3.9697,3.9697,3.9697,3.9697,3.9697,3.9697,3.9697,3.9697,3.9634,3.9182,3.9007,3.8906,3.8153,3.8065,3.8153,3.7236,3.6935,3.6935,3.6935,3.6935,3.6935,3.6935,3.6935,3.6935,3.6935,3.6935,3.6935,3.6935,3.6935,3.6835,3.6445,3.6358,3.6358,3.6358,3.6358,3.6358,3.6358,3.6358,3.6358,3.6358,3.6358,3.6358,3.6358,3.6358,3.6358,3.6358,3.6358,3.6358,3.6358,3.6358,3.6358,3.6358,3.6358,3.6358,3.6358,3.6358,3.6358,3.6358,3.6358,3.6358,3.6358,3.6358,3.6358,3.6358,3.6496,3.6483,0.0,0.0,0.0,0.0,0.0,0.0,0.0,0.0,0.0,0.0,0.0,0.0,0.0,0.0,0.0,0.0,0.0,0.0,0.0,0.0,0.0,0.0,0.0,0.0,3.0889,3.0889,3.0889,3.0889,3.0889,3.1005,3.1218,3.1218,3.1334,3.1441,3.2758,3.2758,3.1441,3.4191,3.5617,3.5617,3.836,3.9697,3.9697,3.9697,3.9697,3.9697,3.9697,3.9697,3.9697,3.9697,3.9697,3.9697,3.9697,3.9697,3.9685,3.9609,3.9584,3.9572,3.9446,3.9433,3.9446,3.9295,3.9245,3.9245,3.9245,3.9245,3.9245,3.9245,3.9245,3.9245,3.9245,3.9245,3.9245,3.9245,3.9245,3.8718,3.6772,3.6358,3.6358,3.6358,3.6358,3.6358,3.6358,3.6358,3.6358,3.6358,3.6358,3.6358,3.6358,3.6358,3.6358,3.6358,3.6358,3.6358,3.6358,3.6358,3.6358,3.6358,3.6358,3.6358,3.6358,3.6358,3.6358,3.6358,3.6358,3.6358,3.6358,3.6358,3.6358,3.6383,3.7048,3.6998,0.0,0.0,0.0,0.0,0.0,0.0,0.0,0.0,0.0,0.0,0.0,0.0,0.0,0.0,0.0,0.0,0.0,0.0,0.0,0.0,0.0,0.0,0.0,0.0,3.0889,3.0889,3.0889,3.0889,3.0889,3.0889,3.0889,3.0889,3.0889,3.0889,3.1546,3.1546,3.0898,3.2985,3.4515,3.53,3.6607,3.7263,3.7263,3.7263,3.8149,3.9697,3.9697,3.9697,3.9697,3.9697,3.9697,3.9697,3.9697,3.9697,3.9697,3.9697,3.9697,3.9697,3.9697,3.9697,3.9697,3.9697,3.9697,3.9697,3.9697,3.9697,3.9697,3.9697,3.9697,3.9697,3.9697,3.9697,3.9697,3.9697,3.9697,3.9421,3.8442,3.7249,3.6358,3.6358,3.6358,3.6358,3.6358,3.6358,3.6358,3.6358,3.6358,3.6358,3.6358,3.6358,3.6358,3.6358,3.7475,3.8228,3.8228,3.8228,3.8228,3.8228,3.8228,3.8228,3.8228,3.8228,3.8228,3.8228,3.6998,3.6358,3.6358,3.6358,3.6358,3.6383,3.7337,3.7613,0.0,0.0,0.0,0.0,0.0,0.0,0.0,0.0,0.0,0.0,0.0,0.0,0.0,0.0,0.0,0.0,0.0,0.0,0.0,0.0,0.0,0.0,0.0,3.0762,3.0879,3.0889,3.0889,3.0889,3.0889,3.0889,3.0889,3.0889,3.0889,3.0889,3.0889,3.0889,3.0889,3.2311,3.3631,3.4736,3.5068,3.5288,3.5288,3.5288,3.6499,3.8582,3.9025,3.9362,3.9697,3.9697,3.9697,3.9697,3.9697,3.9697,3.9697,3.9697,3.9697,3.9697,3.9697,3.9697,3.9697,3.9697,3.9697,3.9697,3.9697,3.9697,3.9697,3.9697,3.9697,3.9697,3.9697,3.9697,3.9697,3.9697,3.9697,3.9697,3.9697,3.8379,3.7211,3.7211,3.7211,3.7211,3.7211,3.7211,3.7211,3.7211,3.7211,3.7211,3.7211,3.7211,3.7211,3.7211,3.8705,3.9697,3.9697,3.9697,3.9697,3.9697,3.9697,3.9697,3.9697,3.9697,3.9697,3.9697,3.8065,3.7211,3.7211,3.7211,3.7211,3.7224,3.8052,3.8429,0.0,0.0,0.0,0.0,0.0,0.0,0.0,0.0,0.0,0.0,0.0,0.0,0.0,0.0,0.0,0.0,0.0,0.0,0.0,0.0,0.0,0.0,3.0234,3.04,3.085,3.0889,3.0889,3.0889,3.0889,3.0889,3.0889,3.0889,3.0889,3.0889,3.0889,3.0889,3.0889,3.2311,3.3191,3.318,3.4626,3.5288,3.5288,3.5288,3.5398,3.5617,3.7037,3.8465,3.9697,3.9697,3.9697,3.9697,3.9697,3.9697,3.9697,3.9697,3.9697,3.9697,3.9697,3.9697,3.9697,3.9697,3.9697,3.9697,3.9697,3.9697,3.9697,3.9697,3.9697,3.9697,3.9697,3.9697,3.9697,3.9697,3.9697,3.9697,3.9697,3.9597,3.9521,3.9521,3.9521,3.9521,3.9521,3.9521,3.9521,3.9521,3.9521,3.9521,3.9521,3.9521,3.9521,3.9521,3.9622,3.9697,3.9697,3.9697,3.9697,3.9697,3.9697,3.9697,3.9697,3.9697,3.9697,3.9697,3.9584,3.9521,3.9521,3.9521,3.9521,3.9521,3.9584,3.9609,0.0,0.0,0.0,0.0,0.0,0.0,0.0,0.0,0.0,0.0,0.0,0.0,0.0,0.0,0.0,0.0,0.0,0.0,0.0,0.0,0.0,2.9775,2.9795,2.9961,3.04,3.0449,3.0566,3.0869,3.0889,3.0889,3.0889,3.0889,3.0889,3.0889,3.0889,3.0889,3.0889,3.1441,3.1662,3.1652,3.2207,3.2436,3.2436,3.2436,3.2975,3.3968,3.4392,3.5497,3.6834,3.6834,3.6834,3.6942,3.7571,3.857,3.9697,3.9697,3.9697,3.9697,3.9697,3.9697,3.9697,3.9697,3.9697,3.9697,3.9697,3.9697,3.9697,3.9697,3.9697,3.9697,3.9697,3.9697,3.9697,3.9697,3.9697,3.9697,3.9697,3.9697,3.9697,3.9697,3.9697,3.9697,3.9697,3.9697,3.9697,3.9697,3.9697,3.9697,3.9697,3.9697,3.9697,3.9697,3.9697,3.9697,3.9697,3.9697,3.9697,3.9697,3.9697,3.9697,3.9697,3.9697,3.9697,3.9697,3.9697,3.9697,3.9697,3.9697,3.9697,3.9697,3.9697,3.9697,0.0,0.0,0.0,0.0,0.0,0.0,0.0,0.0,0.0,0.0,0.0,0.0,0.0,0.0,0.0,0.0,0.0,0.0,0.0,0.0,2.9189,2.9336,2.9355,2.9521,2.9941,2.999,3.0117,3.043,3.0576,0.0,3.0664,3.0801,3.0889,3.0889,3.0889,3.0889,3.0889,3.0889,3.0889,3.0889,3.0889,3.0889,3.0889,3.0889,3.1441,3.2311,3.2311,3.3529,3.5288,3.5288,3.5508,3.5825,3.614,3.769,3.9478,3.7489,3.6727,3.6727,3.6727,3.6727,3.6727,3.6727,3.8043,3.9697,3.9697,3.9697,3.9697,3.9697,3.9697,3.9697,3.9697,3.9697,3.9697,3.9697,3.9697,3.9697,3.9697,3.9697,3.9697,3.9697,3.9697,3.9697,3.9697,3.9697,3.9697,3.9697,3.9697,3.9697,3.9697,3.9697,3.9697,3.9697,3.9697,3.9697,3.9697,3.9697,3.9697,3.9697,3.9697,3.9697,3.9697,3.9697,3.9697,3.9697,3.9697,3.9697,3.9697,3.9697,3.9697,3.9697,3.9697,3.9697,0.0,0.0,0.0,0.0,0.0,0.0,0.0,0.0,0.0,0.0,0.0,0.0,0.0,0.0,0.0,0.0,0.0,0.0,0.0,0.0,2.8447,2.8848,2.8896,2.9072,2.9512,2.9551,2.956,2.957,2.9941,3.0176,3.0176,3.0625,3.0869,3.0869,3.0889,3.0889,3.0889,3.0889,3.0889,3.0889,3.0889,3.0889,3.0889,3.0889,3.0889,3.0889,3.0889,3.255,3.5178,3.5178,3.5715,3.6453,3.5497,3.6942,3.8699,3.2985,3.0889,3.0889,3.0889,3.0889,3.0889,3.0889,3.4748,3.9465,3.9465,3.9465,3.9465,3.9465,3.9581,3.9697,3.9697,3.9697,3.9697,3.9697,3.9697,3.9697,3.9697,3.9697,3.9697,3.9697,3.9697,3.9697,3.9697,3.9697,3.9697,3.9697,3.9697,3.9697,3.9697,3.9697,3.9697,3.9697,3.9697,3.9697,3.9697,3.9697,3.9697,3.9697,3.9697,3.9697,3.9697,3.9697,3.9697,3.9697,3.9697,3.9697,3.9697,3.9697,3.9697,3.9697,3.9697,3.9697,1.2335,0.0,0.0,0.0,0.0,0.0,0.0,0.0,0.0,0.0,0.0,0.0,0.0,0.0,0.0,0.0,0.0,0.0,0.0,2.8096,2.834,2.8447,2.8467,2.8633,2.9053,2.9092,2.9228,0.0,2.9678,2.9746,2.9746,3.0156,3.0391,3.0391,3.0713,3.0889,3.0889,3.0889,3.0889,3.0889,3.0889,3.0889,3.0889,3.0889,3.0889,3.0889,3.0889,3.1334,3.2102,3.2102,3.2322,3.2426,3.2207,3.2654,3.3098,3.1441,3.0889,3.0889,3.0889,3.0889,3.0889,3.0889,3.1998,3.3314,3.3314,3.3314,3.3314,3.3314,3.6391,3.9697,3.9697,3.9697,3.9697,3.9697,3.9697,3.9697,3.9697,3.9697,3.9697,3.9697,3.9697,3.9697,3.9697,3.9697,3.9697,3.9697,3.9697,3.9697,3.9697,3.9697,3.9697,3.9697,3.9697,3.9697,3.9697,3.9697,3.9697,3.9697,3.9697,3.9697,3.9697,3.9697,3.9697,3.9697,3.9697,3.9697,3.9697,3.9697,3.9697,3.9697,3.9697,3.9697,0.0,0.0,0.0,0.0,0.0,0.0,0.0,1.7919,0.0,0.0,0.0,0.0,0.0,0.0,0.0,0.0,0.0,0.0,2.7344,2.7607,2.7832,2.8008,2.8027,2.8193,2.8613,2.8662,2.876,2.9023,2.9199,2.9375,2.956,2.9805,3.0019,3.0185,3.0459,3.0693,3.0889,3.0889,3.0889,3.0889,3.0889,3.0889,3.0889,3.0889,3.0889,3.0889,3.0889,3.0889,3.0889,3.0889,3.0889,3.0889,3.0889,3.0889,3.0889,3.0889,3.0889,3.0889,3.0889,3.0889,3.0889,3.0889,3.0889,3.0889,3.0889,3.0889,3.0889,3.0889,3.3427,3.6065,3.6065,3.6065,3.6607,3.9141,3.9697,3.9697,3.9697,3.9697,3.9697,3.9697,3.9697,3.9697,3.9697,3.9697,3.9697,3.9697,3.9697,3.9697,3.9697,3.9697,3.9697,3.9697,3.9697,3.9697,3.9697,3.9697,3.9697,3.9697,3.9697,3.9697,3.9697,3.9697,3.9697,3.9697,3.9697,3.9697,3.9697,3.9697,3.9697,3.9697,3.9697,3.9697,1.5361,1.5176,0.0,0.0,1.5761,0.0,1.8531,1.751,1.6618,0.0,0.0,0.0,0.0,0.0,0.0,0.0,0.0,2.5732,2.6728,2.6953,2.7158,2.7549,2.7598,2.7744,2.8115,2.8193,2.8223,2.8223,2.8613,2.9014,2.9404,2.9473,2.9668,3.0039,3.0146,3.0391,3.081,3.0869,3.0889,3.0889,3.0889,3.0889,3.0889,3.0889,3.0889,3.0889,3.0889,3.0889,3.0889,3.0889,3.0889,3.0889,3.0889,3.0889,3.0889,3.0889,3.0889,3.0889,3.0889,3.0889,3.0889,3.0889,3.0889,3.0889,3.0889,3.0889,3.0889,3.0889,3.0889,3.0889,3.0889,3.0889,3.2217,3.7489,3.8699,3.8699,3.8699,3.9258,3.9697,3.9697,3.9697,3.9697,3.9697,3.9697,3.9697,3.9697,3.9697,3.9697,3.9697,3.9697,3.9697,3.9697,3.9697,3.9697,3.9697,3.9697,3.9697,3.9697,3.9697,3.9697,3.9697,3.9697,3.9697,3.9697,3.9697,3.9697,3.9697,3.9697,3.9697,3.9697,3.9697,3.9697,1.7519,1.7627,1.7734,1.7129,0.0,0.0,1.6373,1.6389,1.677,0.0,0.0,0.0,0.0,0.0,0.0,0.0,0.0,2.3809,2.5713,2.6582,2.7041,2.7139,2.7139,2.7178,2.7256,2.7588,2.7783,2.7783,2.8174,2.8457,2.8535,2.8857,2.9082,2.916,2.9834,3.0244,3.0332,3.0703,3.0889,3.0889,3.0889,3.0889,3.0889,3.0889,3.0889,3.0889,3.0889,3.0889,3.0889,3.0889,3.0889,3.0889,3.0889,3.0889,3.0889,3.0889,3.0889,3.0889,3.0889,3.0889,3.0889,3.0889,3.0889,3.0889,3.0889,3.0889,3.0889,3.0889,3.0889,3.0889,3.0889,3.0889,3.1228,3.2322,3.2654,3.2654,3.2654,3.6391,3.9697,3.9697,3.9697,3.9697,3.9697,3.9697,3.9697,3.9697,3.9697,3.9697,3.9697,3.9697,3.9697,3.9697,3.9697,3.9697,3.9697,3.9697,3.9697,3.9697,3.9697,3.9697,3.9697,3.9697,3.9697,3.9697,3.9697,3.9697,3.9697,3.9697,3.9697,3.9697,3.9697,3.9697,1.9199,1.9111,1.917,1.875,0.0,0.0,0.0,1.7178,1.7158,1.8662,1.8291,0.0,0.0,0.0,0.0,0.0,2.1689,2.3057,2.3721,2.4912,2.5801,2.6016,2.6045,2.6221,2.666,2.6904,2.7119,2.7324,2.7734,2.7978,2.7978,2.8379,2.8701,2.8916,2.9336,2.9766,3.0195,3.043,3.0664,3.0889,3.0889,3.0889,3.0889,3.0889,3.0889,3.0889,3.0889,3.0889,3.0889,3.0889,3.0889,3.0889,3.0889,3.0889,3.0889,3.0889,3.0889,3.0889,3.0889,3.0889,3.0889,3.0889,3.0889,3.0889,3.0889,3.0889,3.0889,3.0889,3.0889,3.0889,3.0889,3.0889,3.0889,3.0889,3.0889,3.0889,3.0889,3.5508,3.9697,3.9697,3.9697,3.9697,3.9697,3.9697,3.9697,3.9697,3.9697,3.9697,3.9697,3.9697,3.9697,3.9697,3.9697,3.9697,3.9697,3.9697,3.9697,3.9697,3.9697,3.9697,3.9697,3.9697,3.9697,3.9697,3.9697,3.9697,3.9697,3.9697,3.9697,3.9697,3.9697,3.9697,0.0,0.0,0.0,0.0,0.0,1.8994,0.0,0.0,0.0,1.9678,0.0,0.0,0.0,0.0,0.0,0.0,0.0,0.0,0.0,2.2598,0.0,2.4502,2.4717,2.5107,2.582,2.581,2.6045,2.6719,2.6934,2.7187,2.7529,2.7939,2.8369,2.8779,2.8877,2.9248,2.9941,3.0117,3.0391,3.0762,3.085,3.0889,3.0889,3.0889,3.0889,3.0889,3.0889,3.0889,3.0889,3.0889,3.0889,3.0889,3.0889,3.0889,3.0889,3.0889,3.0889,3.0889,3.0889,3.0889,3.0889,3.0889,3.0889,3.0889,3.0889,3.0889,3.0889,3.0889,3.0889,3.0889,3.0889,3.0889,3.0889,3.0889,3.0889,3.0889,3.0889,3.4637,3.8043,3.8043,3.8043,3.8372,3.9478,3.9697,3.9697,3.9697,3.9697,3.9697,3.9697,3.9697,3.9697,3.9697,3.8699,3.8043,3.8043,3.8043,3.8477,3.9581,3.9697,3.9697,3.9697,3.8594,3.8043,3.8043,3.8043,3.8582,3.9697,3.9697,3.9697,3.9697,3.9697,3.9697,0.0,0.0,0.0,0.0,2.1289,0.0,0.0,0.0,1.8867,1.8398,0.0,0.0,0.0,0.0,0.0,0.0,0.0,0.0,1.8574,1.9922,2.1445,2.2656,2.3477,2.3975,2.4072,2.374,2.417,2.5762,2.5205,2.5459,2.7002,2.75,2.793,2.835,2.8721,2.8965,2.9062,2.9814,3.0225,3.0273,3.0693,3.0889,3.0889,3.0889,3.0889,3.0889,3.0889,3.0889,3.0889,3.0889,3.0889,3.0889,3.0889,3.0889,3.0889,3.0889,3.0889,3.0889,3.0889,3.0889,3.0889,3.0889,3.0889,3.0889,3.0889,3.0889,3.0889,3.0889,3.0889,3.0889,3.0889,3.0889,3.0889,3.0889,3.0889,3.0889,3.0889,3.145,3.1883,3.1883,3.1883,3.354,3.8804,3.9697,3.9697,3.9697,3.9697,3.9697,3.9697,3.9697,3.9697,3.9697,3.4969,3.1883,3.1883,3.1883,3.408,3.9362,3.9697,3.9697,3.9697,3.4637,3.1883,3.1883,3.1883,3.4526,3.9697,3.9697,3.9697,3.9697,3.9697,3.9697,0.0,0.0,0.0,0.0,0.0,0.0,1.9521,0.0,1.9023,0.0,0.0,0.0,0.0,0.0,0.0,0.0,1.8398,0.0,0.0,0.0,1.9834,0.0,0.0,0.0,2.2949,2.2881,2.3389,2.4863,2.417,2.4434,2.6182,2.6914,2.749,2.792,2.834,2.8672,2.8916,2.9531,2.9961,3.0205,3.0674,3.0889,3.0889,3.0889,3.0889,3.0889,3.0889,3.0889,3.0889,3.0889,3.0889,3.0889,3.0889,3.0889,3.0889,3.0889,3.0889,3.0889,3.0889,3.0889,3.0889,3.0889,3.0889,3.0889,3.0889,3.0889,3.0889,3.0889,3.0889,3.0889,3.0889,3.0889,3.0889,3.0889,3.0889,3.0889,3.0889,3.0889,3.0889,3.0889,3.0889,3.1662,3.4202,3.4637,3.4637,3.4637,3.4637,3.4637,3.4637,3.4637,3.4637,3.4637,3.2322,3.0889,3.0889,3.0889,3.1998,3.4414,3.4637,3.4637,3.4637,3.2217,3.0889,3.0889,3.0889,3.2102,3.4637,3.4637,3.4637,3.4637,3.8149,3.9697,2.3467,0.0,0.0,0.0,0.0,0.0,0.0,0.0,0.0,0.0,0.0,0.0,0.0,0.0,0.0,0.0,0.0,1.8144,0.0,0.0,0.0,0.0,0.0,0.0,0.0,2.1553,2.1963,2.3603,2.2812,2.3213,2.5439,2.6377,2.71,2.7646,2.8076,2.8437,2.874,2.918,2.9609,3.0029,3.0488,3.0771,3.0889,3.0889,3.0889,3.0889,3.0889,3.0889,3.0889,3.0889,3.0889,3.0889,3.0889,3.0889,3.0889,3.0889,3.0889,3.0889,3.0889,3.0889,3.0889,3.0889,3.0889,3.0889,3.0889,3.0889,3.0889,3.0889,3.0889,3.0889,3.0889,3.0889,3.0889,3.0889,3.0889,3.0889,3.0889,3.0889,3.0889,3.0889,3.0889,3.0889,3.0889,3.0889,3.0889,3.0889,3.0889,3.0889,3.0889,3.0889,3.0889,3.0889,3.0889,3.0889,3.0889,3.0889,3.0889,3.0889,3.0889,3.0889,3.0889,3.0889,3.0889,3.0889,3.0889,3.0889,3.0889,3.0889,3.0889,3.0995,3.6942,3.9697,0.0,0.0,0.0,2.124,0.0,0.0,0.0,0.0,2.0391,0.0,0.0,0.0,0.0,0.0,0.0,0.0,0.0,0.0,0.0,0.0,0.0,0.0,0.0,0.0,0.0,1.9131,1.9209,0.0,2.0752,2.1504,2.4902,2.5928,2.6797,2.7637,2.8076,2.8301,2.831,2.873,2.916,2.959,3.0019,3.0459,3.0889,3.0889,3.0889,3.0889,3.0889,3.0889,3.0889,3.0889,3.0889,3.0889,3.0889,3.0889,3.0889,3.0889,3.0889,3.0889,3.0889,3.0889,3.0889,3.0889,3.0889,3.0889,3.0889,3.0889,3.0889,3.0889,3.0889,3.0889,3.0889,3.0889,3.0889,3.0889,3.0889,3.0889,3.0889,3.0889,3.0889,3.0889,3.0889,3.0889,3.0889,3.0889,3.0889,3.0889,3.0889,3.0889,3.0889,3.0889,3.0889,3.0889,3.0889,3.0889,3.0889,3.0889,3.0889,3.0889,3.0889,3.0889,3.0889,3.0889,3.0889,3.0889,3.0889,3.0889,3.0889,3.0889,3.0889,3.0995,3.6942,3.9697,0.0,0.0,2.4365,2.2353,0.0,0.0,0.0,0.0,0.0,0.0,0.0,0.0,0.0,0.0,0.0,0.0,0.0,0.0,0.0,0.0,0.0,0.0,0.0,0.0,0.0,0.0,0.0,0.0,1.9446,0.0,2.2935,2.465,2.5918,2.6797,2.751,2.8018,2.8291,2.8711,2.8994,2.915,2.9853,3.0273,3.0439,3.0752,3.0889,3.0889,3.0889,3.0889,3.0889,3.0889,3.0889,3.0889,3.0889,3.0889,3.0889,3.0889,3.0889,3.0889,3.0889,3.0889,3.0889,3.0889,3.0889,3.0889,3.0889,3.0889,3.0889,3.0889,3.0889,3.0889,3.0889,3.0889,3.0889,3.0889,3.0889,3.0889,3.0889,3.0889,3.0889,3.0889,3.0889,3.0889,3.0889,3.0889,3.0889,3.0889,3.0889,3.0889,3.0889,3.0889,3.0889,3.0889,3.0889,3.0889,3.0889,3.0889,3.0889,3.0889,3.0889,3.0889,3.0889,3.0889,3.0889,3.0889,3.0889,3.0889,3.0889,3.0889,3.0889,3.1005,3.2985,3.3866,2.4697,2.4853,0.0,2.3135,2.2539,0.0,2.0137,0.0,2.1016,0.0,0.0,0.0,0.0,0.0,0.0,0.0,0.0,0.0,0.0,1.5547,0.0,0.0,0.0,0.0,0.0,0.0,1.7389,1.945,1.8935,0.0,0.0,2.4131,2.5478,2.6357,2.7217,2.7861,2.8291,2.8564,2.8769,2.8926,2.9473,2.9902,3.0205,3.0508,3.0732,3.0889,3.0889,3.0889,3.0889,3.0889,3.0889,3.0889,3.0889,3.0889,3.0889,3.0889,3.0889,3.0889,3.0889,3.0889,3.0889,3.0889,3.0889,3.0889,3.0889,3.0889,3.0889,3.0889,3.0889,3.0889,3.0889,3.0889,3.0889,3.0889,3.0889,3.0889,3.0889,3.0889,3.0889,3.0889,3.0889,3.0889,3.0889,3.0889,3.0889,3.0889,3.0889,3.0889,3.0889,3.0889,3.0889,3.0889,3.0889,3.0889,3.0889,3.0889,3.0889,3.0889,3.0889,3.0889,3.0889,3.0889,3.0889,3.0889,3.0889,3.0889,3.0889,3.0889,3.0889,3.0889,3.0889,3.0889]},{"header":{"parameterUnit":"m.s-1","parameterCategory":1,"la1":30.6,"la2":29.2853,"lo1":-89.7004,"lo2":-87.6739,"dy":0.0162,"dx":0.0183,"nx":112,"ny":82,"refTime":"2024-08-06T06:00:00:Z","depth":0,"parameterNumber":3,"parameterNumberName":"V-component_of_WINDS"},"data":[0.0,0.0,0.0,0.0,0.0,0.0,0.0,0.0,0.0,0.0,0.0,0.0,0.0,0.0,0.0,0.0,0.0,0.0,0.0,0.0,0.0,0.0,0.0,0.0,0.0,0.0,0.0,0.0,0.0,0.0,0.0,0.0,0.0,0.0,0.0,0.0,0.0,0.0,0.0,0.0,0.0,0.0,0.0,0.0,0.0,0.0,0.0,0.0,0.0,0.0,0.0,0.0,0.0,0.0,0.0,0.0,0.0,0.0,0.0,0.0,0.0,0.0,0.0,0.0,0.0,0.0,0.0,0.0,0.0,0.0,0.0,0.0,0.0,0.0,0.0,0.0,0.0,0.0,0.0,0.0,0.0,0.0,0.0,0.0,0.0,0.0,0.0,0.0,0.0,0.0,-1.1366,-1.2204,-1.2366,-1.1811,-1.034,-1.0107,-0.9446,-0.7975,0.0,0.0,0.0,0.0,0.0,0.0,0.0,0.0,0.0,0.0,0.0,0.0,0.0,0.0,0.0,0.0,0.0,0.0,0.0,0.0,0.0,0.0,0.0,0.0,0.0,0.0,0.0,0.0,0.0,0.0,0.0,0.0,0.0,0.0,0.0,0.0,0.0,0.0,0.0,0.0,0.0,0.0,0.0,0.0,0.0,0.0,0.0,0.0,0.0,0.0,0.0,0.0,0.0,0.0,0.0,0.0,0.0,0.0,0.0,0.0,0.0,0.0,0.0,0.0,0.0,0.0,0.0,0.0,0.0,0.0,0.0,0.0,0.0,0.0,0.0,0.0,0.0,0.0,0.0,0.0,0.0,0.0,0.0,0.0,0.0,0.0,0.0,0.0,0.0,0.0,0.0,0.0,0.0,0.0,0.0,0.0,0.0,0.0,0.0,0.0,0.0,0.0,0.0,0.0,-1.0964,-1.2595,-1.2555,-1.1943,-1.089,-1.014,-0.9232,-0.7961,0.0,0.0,0.0,0.0,0.0,0.0,0.0,0.0,0.0,0.0,0.0,0.0,0.0,0.0,0.0,0.0,0.0,0.0,0.0,0.0,0.0,0.0,0.0,0.0,0.0,0.0,0.0,0.0,0.0,0.0,0.0,0.0,0.0,0.0,0.0,0.0,0.0,0.0,0.0,0.0,0.0,0.0,0.0,0.0,0.0,0.0,0.0,0.0,0.0,0.0,0.0,0.0,0.0,0.0,0.0,0.0,0.0,0.0,0.0,0.0,0.0,0.0,0.0,0.0,0.0,0.0,0.0,0.0,0.0,0.0,0.0,0.0,0.0,0.0,0.0,0.0,0.0,0.0,0.0,0.0,0.0,0.0,0.0,0.0,0.0,0.0,0.0,0.0,0.0,0.0,0.0,0.0,0.0,0.0,0.0,0.0,0.0,0.0,0.0,0.0,0.0,0.0,0.0,-1.1261,-1.1538,-1.2158,-1.2364,-1.1881,-1.0557,-1.0,-0.9185,-0.7955,-0.7058,0.0,0.0,0.0,0.0,0.0,0.0,0.0,0.0,0.0,0.0,0.0,0.0,0.0,0.0,0.0,0.0,0.0,0.0,0.0,0.0,0.0,0.0,0.0,0.0,0.0,0.0,0.0,0.0,0.0,0.0,0.0,0.0,0.0,0.0,0.0,0.0,0.0,0.0,0.0,0.0,0.0,0.0,0.0,0.0,0.0,0.0,0.0,0.0,0.0,0.0,0.0,0.0,0.0,0.0,0.0,0.0,0.0,0.0,0.0,0.0,0.0,0.0,0.0,0.0,0.0,0.0,0.0,0.0,0.0,0.0,0.0,0.0,0.0,0.0,0.0,0.0,0.0,0.0,0.0,0.0,0.0,0.0,0.0,0.0,0.0,0.0,0.0,0.0,0.0,0.0,0.0,0.0,0.0,0.0,0.0,0.0,0.0,0.0,0.0,0.0,0.0,0.0,-1.2556,-1.2342,-1.1906,-1.2117,-1.1728,-1.0262,-0.9694,-0.8931,-0.7882,-0.6647,0.0,0.0,0.0,0.0,0.0,0.0,0.0,0.0,0.0,0.0,0.0,0.0,0.0,0.0,0.0,0.0,0.0,0.0,0.0,0.0,0.0,0.0,0.0,0.0,0.0,0.0,0.0,0.0,0.0,0.0,0.0,0.0,0.0,0.0,0.0,0.0,0.0,0.0,0.0,0.0,0.0,0.0,0.0,0.0,0.0,0.0,0.0,0.0,0.0,0.0,0.0,0.0,0.0,0.0,0.0,0.0,0.0,0.0,0.0,0.0,0.0,0.0,0.0,0.0,0.0,0.0,0.0,0.0,0.0,0.0,0.0,0.0,0.0,0.0,0.0,0.0,0.0,0.0,0.0,0.0,0.0,0.0,0.0,0.0,0.0,0.0,0.0,0.0,0.0,0.0,0.0,0.0,0.0,0.0,0.0,0.0,0.0,0.0,0.0,0.0,0.0,0.0,-1.2629,-1.308,-1.2324,-1.2058,-1.1471,-1.0404,-0.9197,-0.8239,-0.758,-0.6176,0.0,0.0,0.0,0.0,0.0,0.0,0.0,0.0,0.0,0.0,0.0,0.0,0.0,0.0,0.0,0.0,0.0,0.0,0.0,0.0,0.0,0.0,0.0,0.0,0.0,0.0,0.0,0.0,0.0,0.0,0.0,0.0,0.0,0.0,0.0,0.0,0.0,0.0,0.0,0.0,0.0,0.0,0.0,0.0,0.0,0.0,0.0,0.0,0.0,0.0,0.0,0.0,0.0,0.0,0.0,0.0,0.0,0.0,0.0,0.0,0.0,0.0,0.0,0.0,0.0,0.0,0.0,0.0,0.0,0.0,0.0,0.0,0.0,0.0,0.0,0.0,0.0,0.0,0.0,0.0,0.0,0.0,0.0,0.0,0.0,0.0,0.0,0.0,0.0,0.0,0.0,0.0,0.0,0.0,0.0,0.0,0.0,0.0,0.0,0.0,0.0,0.0,-1.2278,-1.272,0.0,-1.2202,-1.1631,-1.0431,-0.9877,-0.8912,-0.7305,0.0,0.0,0.0,0.0,0.0,0.0,0.0,0.0,0.0,0.0,0.0,0.0,0.0,0.0,0.0,0.0,0.0,0.0,0.0,0.0,0.0,0.0,0.0,0.0,0.0,0.0,0.0,0.0,0.0,0.0,0.0,0.0,0.0,0.0,0.0,0.0,0.0,0.0,0.0,0.0,0.0,0.0,0.0,0.0,0.0,0.0,0.0,0.0,0.0,0.0,0.0,0.0,0.0,0.0,0.0,0.0,0.0,0.0,0.0,0.0,0.0,0.0,0.0,0.0,0.0,0.0,0.0,0.0,0.0,0.0,0.0,0.0,0.0,0.0,0.0,0.0,0.0,0.0,0.0,0.0,0.0,0.0,0.0,0.0,0.0,0.0,0.0,0.0,0.0,0.0,0.0,0.0,0.0,0.0,0.0,0.0,0.0,0.0,0.0,0.0,0.0,0.0,-1.1275,-1.2274,-1.2782,0.0,-1.2256,-1.1774,-1.0825,-1.0217,-0.9129,-0.744,0.0,0.0,0.0,0.0,0.0,0.0,0.0,0.0,0.0,0.0,0.0,0.0,0.0,0.0,0.0,0.0,0.0,0.0,0.0,0.0,0.0,0.0,0.0,0.0,0.0,0.0,0.0,0.0,0.0,0.0,0.0,0.0,0.0,0.0,0.0,0.0,0.0,0.0,0.0,0.0,0.0,0.0,0.0,0.0,0.0,0.0,0.0,0.0,0.0,0.0,0.0,0.0,0.0,0.0,0.0,0.0,0.0,0.0,0.0,0.0,0.0,0.0,0.0,0.0,0.0,0.0,0.0,0.0,0.0,0.0,0.0,0.0,0.0,0.0,0.0,0.0,0.0,0.0,0.0,0.0,0.0,0.0,0.0,0.0,0.0,0.0,0.0,0.0,0.0,0.0,0.0,0.0,0.0,0.0,0.0,0.0,0.0,0.0,0.0,0.0,0.0,0.0,-1.1326,-1.2797,-1.36,-1.2978,-1.2236,-1.1814,-1.1765,-1.0018,-0.8701,0.0,0.0,0.0,0.0,0.0,0.0,0.0,0.0,0.0,0.0,0.0,0.0,0.0,0.0,0.0,0.0,0.0,0.0,0.0,0.0,0.0,0.0,0.0,0.0,0.0,0.0,0.0,0.0,0.0,0.0,0.0,0.0,0.0,0.0,0.0,0.0,0.0,0.0,0.0,0.0,0.0,0.0,0.0,0.0,0.0,0.0,0.0,0.0,0.0,0.0,0.0,0.0,0.0,0.0,0.0,0.0,0.0,0.0,0.0,0.0,0.0,0.0,0.0,0.0,0.0,0.0,0.0,0.0,0.0,0.0,0.0,0.0,0.0,0.0,0.0,0.0,0.0,0.0,0.0,0.0,0.0,0.0,0.0,0.0,0.0,0.0,0.0,0.0,0.0,0.0,0.0,0.0,0.0,0.0,0.0,0.0,0.0,0.0,0.0,0.0,0.0,0.0,0.0,-1.1399,-1.3181,-1.4014,-1.3017,-1.2715,-1.2197,-1.1166,-1.1011,-0.9916,-0.7461,0.0,0.0,0.0,0.0,0.0,0.0,0.0,0.0,0.0,0.0,0.0,0.0,0.0,0.0,0.0,0.0,0.0,0.0,0.0,0.0,0.0,0.0,0.0,0.0,0.0,0.0,0.0,0.0,0.0,0.0,0.0,0.0,0.0,0.0,0.0,0.0,0.0,0.0,0.0,0.0,0.0,0.0,0.0,0.0,0.0,0.0,0.0,0.0,0.0,0.0,0.0,0.0,0.0,0.0,0.0,0.0,0.0,0.0,0.0,0.0,0.0,0.0,0.0,0.0,0.0,0.0,0.0,0.0,0.0,0.0,0.0,0.0,0.0,0.0,0.0,0.0,0.0,0.0,0.0,0.0,0.0,0.0,0.0,0.0,0.0,0.0,0.0,0.0,0.0,0.0,0.0,0.0,0.0,0.0,0.0,0.0,0.0,0.0,0.0,0.0,0.0,0.0,-1.1435,-1.3351,-1.4247,-1.3017,-1.2881,-1.2569,-1.1692,-1.1724,-1.0824,-0.8442,0.0,0.0,0.0,0.0,0.0,0.0,0.0,0.0,0.0,0.0,0.0,0.0,0.0,0.0,0.0,0.0,0.0,0.0,0.0,0.0,0.0,0.0,0.0,0.0,0.0,0.0,0.0,0.0,0.0,0.0,0.0,0.0,0.0,0.0,0.0,0.0,0.0,0.0,0.0,0.0,0.0,0.0,0.0,0.0,0.0,0.0,0.0,0.0,0.0,0.0,0.0,0.0,0.0,0.0,0.0,0.0,0.0,0.0,0.0,0.0,0.0,0.0,0.0,0.0,0.0,0.0,0.0,0.0,0.0,0.0,0.0,0.0,0.0,0.0,0.0,0.0,0.0,0.0,0.0,0.0,0.0,0.0,0.0,0.0,0.0,0.0,0.0,0.0,0.0,0.0,0.0,0.0,0.0,0.0,0.0,0.0,0.0,0.0,0.0,0.0,0.0,0.0,-1.1564,-1.3417,-1.4312,-1.3173,-1.2988,-1.2939,-1.289,-1.2264,-1.1422,-1.031,0.0,0.0,0.0,0.0,0.0,0.0,0.0,0.0,0.0,0.0,0.0,0.0,0.0,0.0,0.0,0.0,0.0,0.0,0.0,0.0,0.0,0.0,0.0,0.0,0.0,0.0,0.0,0.0,0.0,0.0,0.0,0.0,0.0,0.0,0.0,0.0,0.0,0.0,0.0,0.0,0.0,0.0,0.0,0.0,0.0,0.0,0.0,0.0,0.0,0.0,0.0,0.0,0.0,0.0,0.0,0.0,0.0,0.0,0.0,0.0,-1.4902,0.0,0.0,0.0,0.0,0.0,0.0,0.0,0.0,0.0,0.0,0.0,0.0,0.0,0.0,0.0,0.0,0.0,0.0,0.0,0.0,0.0,0.0,0.0,0.0,0.0,0.0,0.0,0.0,0.0,0.0,0.0,0.0,0.0,0.0,0.0,0.0,0.0,0.0,0.0,0.0,0.0,-1.2642,-1.4179,-1.4886,-1.4167,-1.3651,-1.3167,-1.2646,-1.265,-1.1911,-1.0079,-0.9621,0.0,0.0,0.0,0.0,0.0,0.0,0.0,0.0,0.0,0.0,0.0,0.0,0.0,0.0,0.0,0.0,0.0,0.0,0.0,0.0,0.0,0.0,0.0,0.0,0.0,0.0,0.0,0.0,0.0,0.0,0.0,0.0,0.0,0.0,0.0,0.0,0.0,0.0,0.0,0.0,0.0,0.0,0.0,0.0,0.0,0.0,0.0,0.0,0.0,0.0,0.0,0.0,0.0,0.0,0.0,0.0,0.0,0.0,0.0,0.0,-1.5869,0.0,0.0,0.0,0.0,0.0,0.0,0.0,0.0,0.0,0.0,0.0,0.0,0.0,0.0,0.0,0.0,0.0,0.0,0.0,0.0,0.0,0.0,0.0,0.0,0.0,0.0,0.0,0.0,0.0,0.0,0.0,0.0,0.0,0.0,0.0,0.0,0.0,0.0,0.0,0.0,-1.3011,-1.4395,-1.5165,-1.4795,-1.4194,-1.3565,-1.3053,-1.3099,-1.255,-1.1086,-1.064,0.0,0.0,0.0,0.0,0.0,0.0,0.0,0.0,0.0,0.0,0.0,0.0,0.0,0.0,0.0,0.0,0.0,0.0,0.0,0.0,0.0,0.0,0.0,0.0,0.0,0.0,0.0,0.0,0.0,0.0,0.0,0.0,0.0,0.0,0.0,0.0,0.0,0.0,0.0,0.0,0.0,0.0,0.0,0.0,0.0,0.0,0.0,0.0,0.0,0.0,0.0,0.0,0.0,-2.0388,-2.0388,-2.0388,-2.0388,-2.0388,-2.0275,-1.8455,-1.7451,-1.7087,-1.7087,0.0,0.0,0.0,0.0,0.0,0.0,0.0,0.0,0.0,0.0,0.0,0.0,0.0,0.0,0.0,0.0,0.0,0.0,0.0,0.0,0.0,0.0,0.0,0.0,-1.7451,-1.6992,0.0,0.0,0.0,0.0,0.0,0.0,0.0,0.0,0.0,0.0,0.0,0.0,-1.3298,-1.4673,-1.5482,-1.5321,-1.4656,-1.4111,-1.376,-1.3594,-1.3203,-1.2453,-1.1681,-1.0646,0.0,0.0,0.0,0.0,0.0,0.0,0.0,0.0,0.0,0.0,0.0,0.0,0.0,0.0,0.0,0.0,0.0,0.0,0.0,0.0,0.0,0.0,0.0,0.0,0.0,0.0,0.0,0.0,0.0,0.0,0.0,0.0,-1.0295,-1.2497,0.0,0.0,0.0,0.0,0.0,0.0,0.0,0.0,0.0,0.0,0.0,0.0,0.0,-1.9083,-1.9359,-1.9371,-2.0489,-2.2627,-2.2627,-2.2627,-2.2627,-2.2627,-2.2627,-2.2673,-2.2326,0.0,-1.9371,-1.9371,0.0,0.0,0.0,0.0,0.0,0.0,0.0,0.0,0.0,0.0,0.0,0.0,0.0,0.0,0.0,0.0,0.0,0.0,0.0,0.0,0.0,0.0,-1.9284,-1.9346,-1.9422,-1.9359,0.0,-1.5897,-1.3179,-1.2686,-1.0974,0.0,0.0,0.0,0.0,0.0,0.0,0.0,-1.4272,-1.5637,-1.637,-1.5698,-1.5074,-1.4678,-1.4619,-1.3936,-1.3457,-1.335,-1.2531,-1.175,-1.1104,-0.963,0.0,0.0,0.0,0.0,0.0,0.0,0.0,0.0,0.0,0.0,0.0,0.0,0.0,0.0,0.0,0.0,0.0,0.0,0.0,0.0,0.0,0.0,0.0,0.0,0.0,0.0,0.0,0.0,0.0,-1.2639,-1.5316,-1.5069,-1.5039,-1.4175,0.0,0.0,0.0,0.0,0.0,0.0,0.0,0.0,0.0,-2.02,-2.1167,-2.1669,-2.1669,-2.1669,-2.2799,-2.5008,-2.5008,-2.5008,-2.5008,-2.5008,-2.5008,-2.5008,-2.5008,-2.4456,-2.3452,-2.2184,-2.0363,-1.8047,0.0,0.0,0.0,0.0,-1.4458,-1.8355,-1.8355,-1.8995,0.0,-1.9798,0.0,0.0,0.0,0.0,0.0,0.0,0.0,0.0,0.0,0.0,-2.0363,-2.0677,-2.0752,-2.0752,-2.0752,-1.8414,-1.6075,0.0,-1.3762,-1.2172,-1.1383,0.0,0.0,0.0,0.0,-1.3828,-1.4758,-1.5665,-1.6158,-1.6158,-1.5525,-1.5039,-1.4805,-1.4443,-1.4014,-1.3535,-1.3154,-1.2374,-1.1123,-1.0216,-0.9049,0.0,0.0,0.0,0.0,0.0,0.0,0.0,0.0,0.0,0.0,0.0,0.0,0.0,0.0,0.0,0.0,0.0,0.0,0.0,0.0,0.0,0.0,0.0,0.0,0.0,0.0,0.0,0.0,-1.5802,-1.9055,-1.7264,-1.7213,-1.6497,0.0,0.0,0.0,0.0,0.0,0.0,-1.8179,-1.9761,-2.1681,-2.3916,-2.3991,-2.3991,-2.3991,-2.3991,-2.482,-2.6533,-2.6533,-2.6533,-2.6533,-2.6533,-2.6533,-2.6533,-2.6533,-2.6533,-2.6395,-2.4669,-2.2673,-2.0382,-1.7811,-1.6404,-1.555,-1.4102,-1.6547,-2.0652,-2.0652,-2.0652,-2.0652,-2.0652,-2.1782,-2.2965,-2.246,0.0,0.0,0.0,0.0,-2.2184,-2.1481,-2.1292,-2.1393,-2.1807,-2.1907,-2.1907,-2.1907,-2.0296,-1.8646,0.0,-1.6118,-1.4478,-1.3382,0.0,0.0,0.0,0.0,-1.4139,-1.5132,-1.5652,-1.6005,-1.6224,-1.5748,-1.5283,-1.4971,-1.4844,-1.4512,-1.3877,-1.3633,-1.2884,-1.154,-1.0854,-0.9787,-0.8285,0.0,0.0,0.0,0.0,0.0,0.0,0.0,0.0,0.0,0.0,0.0,0.0,0.0,0.0,0.0,0.0,0.0,0.0,0.0,0.0,0.0,0.0,0.0,0.0,0.0,0.0,0.0,0.0,0.0,-1.8688,-1.9217,0.0,0.0,0.0,0.0,-1.6346,-1.8392,-2.0564,-2.2627,-2.2852,-2.3991,-2.6294,-2.6357,-2.6357,-2.6357,-2.6357,-2.642,-2.6533,-2.6533,-2.6533,-2.6533,-2.6533,-2.6533,-2.6533,-2.6533,-2.6533,-2.6521,-2.6408,-2.4983,-2.2902,-2.2718,-2.2677,-2.2577,-2.2505,-2.2655,-2.2902,-2.2902,-2.2902,-2.2902,-2.2902,-2.2977,-2.2736,-2.0614,-2.1292,0.0,0.0,-2.4607,-2.4406,-2.3301,-2.2952,-2.2965,-2.2977,-2.299,-2.299,-2.299,-2.1366,-1.9712,0.0,-1.7183,-1.5385,-1.5502,0.0,-1.46,-1.4619,-1.5267,-1.5659,-1.5389,-1.6042,-1.6177,-1.5517,-1.541,-1.54,-1.5381,-1.501,-1.4766,-1.4727,-1.3955,-1.3445,-1.3365,-1.171,-1.0615,-1.0283,-0.8912,0.0,0.0,0.0,0.0,0.0,0.0,0.0,0.0,0.0,0.0,0.0,0.0,0.0,0.0,0.0,0.0,0.0,0.0,0.0,0.0,0.0,0.0,0.0,0.0,0.0,0.0,0.0,0.0,-2.3603,-2.1551,0.0,-2.0715,-1.8191,-1.7702,-2.0511,-2.2836,-2.4431,-2.5234,-2.5272,-2.5636,-2.6496,-2.6533,-2.6533,-2.6533,-2.6533,-2.6533,-2.6533,-2.6533,-2.6533,-2.6533,-2.6533,-2.6533,-2.6533,-2.6533,-2.6533,-2.6533,-2.6533,-2.5988,-2.5272,-2.5272,-2.5272,-2.5272,-2.5272,-2.5272,-2.5272,-2.5272,-2.5272,-2.5272,-2.5272,-2.5272,-2.4858,-2.2623,-2.2439,-2.3315,-2.4506,-2.5335,-2.5624,-2.4506,-2.4217,-2.4217,-2.4217,-2.4217,-2.413,-2.3766,-2.2234,-2.073,-2.0239,-1.8068,-1.6184,-1.5969,-1.5782,-1.5664,-1.5664,-1.5889,-1.6108,-1.6201,-1.6505,-1.6447,-1.5919,-1.583,-1.5723,-1.5439,-1.5273,-1.4951,-1.4394,-1.4082,-1.3445,-1.2469,-1.1796,-1.1006,-1.0039,-0.9383,-0.843,0.0,0.0,0.0,0.0,0.0,0.0,0.0,0.0,0.0,0.0,0.0,0.0,0.0,0.0,0.0,0.0,0.0,0.0,0.0,0.0,0.0,0.0,0.0,0.0,0.0,0.0,-2.1559,-2.5117,-2.331,-2.1549,-2.0928,-1.9546,-2.0288,-2.3979,-2.5624,-2.6533,-2.6533,-2.6533,-2.6533,-2.6533,-2.7193,-2.7582,-2.7582,-2.7582,-2.7582,-2.7582,-2.7582,-2.7582,-2.7582,-2.7582,-2.7582,-2.7582,-2.7582,-2.7582,-2.7582,-2.7582,-2.7582,-2.7507,-2.6823,-2.6533,-2.6533,-2.6533,-2.6533,-2.6533,-2.6533,-2.6533,-2.6533,-2.6533,-2.6533,-2.6189,-2.4707,-2.4255,-2.4406,-2.5159,-2.59,-2.6251,-2.5322,-2.5084,-2.5034,-2.4858,-2.482,-2.4591,-2.3936,-2.2639,-2.1397,-2.0753,-1.8699,-1.7021,-1.6582,-1.6514,-1.6514,-1.6514,-1.6377,-1.6455,-1.6894,-1.6826,-1.6621,-1.6318,-1.6289,-1.6113,-1.5674,-1.5498,-1.5166,-1.46,-1.416,-1.3399,-1.2289,-1.1758,-1.0965,-0.9814,-0.9588,-0.8913,-0.7788,0.0,0.0,0.0,0.0,0.0,0.0,0.0,0.0,0.0,0.0,0.0,0.0,0.0,0.0,0.0,0.0,0.0,0.0,0.0,0.0,0.0,0.0,0.0,-2.133,-2.2775,-2.3949,-2.2887,-2.4463,-2.3369,-1.739,-2.0723,-2.4243,-2.6471,-2.6634,-2.6634,-2.6634,-2.6634,-2.6634,-2.6634,-2.8662,-2.9792,-2.9792,-2.9792,-2.9792,-2.9792,-2.9792,-2.9792,-2.9792,-2.9792,-2.9792,-2.9792,-2.9792,-2.9792,-2.9792,-2.9792,-2.9792,-2.9578,-2.7406,-2.6634,-2.6553,-2.6408,-2.6314,-2.6314,-2.6452,-2.6533,-2.6533,-2.6533,-2.6533,-2.6533,-2.6533,-2.6533,-2.6533,-2.6533,-2.6533,-2.6395,-2.5774,-2.5624,-2.5498,-2.4996,-2.487,-2.4586,-2.3592,-2.2684,-2.1782,-2.0885,-1.9292,-1.7988,-1.749,-1.7412,-1.7402,-1.7402,-1.7041,0.0,-1.7344,-1.7031,-1.6768,-1.6694,-1.6748,-1.6572,-1.6123,-1.5684,-1.542,-1.5391,-1.4219,-1.338,-1.3104,-1.1688,-1.0584,-0.988,-0.9652,-0.9454,-0.9332,0.0,0.0,0.0,0.0,0.0,0.0,0.0,0.0,0.0,0.0,0.0,0.0,0.0,0.0,0.0,0.0,0.0,0.0,0.0,0.0,0.0,-2.6183,-2.8607,-2.7244,-2.5864,-2.5436,-2.6732,-2.5768,-2.4709,-2.3852,-2.6289,-2.8222,-2.8837,-2.8875,-2.8875,-2.8875,-2.8875,-2.8875,-2.8875,-2.9478,-2.9792,-2.9792,-2.9792,-2.9792,-2.9792,-2.9792,-2.9792,-2.9792,-2.9792,-2.9792,-2.9792,-2.9792,-2.9792,-2.9792,-2.9792,-2.9792,-2.9729,-2.9114,-2.8875,-2.8363,-2.3891,-2.2188,-2.2627,-2.5499,-2.6533,-2.6533,-2.6533,-2.6533,-2.6533,-2.6533,-2.6533,-2.6533,-2.6533,-2.6533,-2.6496,-2.6332,-2.6226,-2.6189,-2.605,-2.6013,-2.582,-2.5115,-2.4309,-2.3499,-2.2809,-2.1228,-1.9684,-1.8498,-1.8037,-1.7842,-1.7842,-1.7734,0.0,-1.7822,-1.7734,-1.7539,-1.7236,-1.7207,-1.7021,-1.6582,-1.6143,-1.5615,-1.5,-1.4336,-1.3772,-1.3422,-1.2968,-1.2428,-1.1757,-1.0802,-1.0271,0.0,0.0,0.0,0.0,0.0,0.0,0.0,0.0,0.0,0.0,0.0,0.0,0.0,0.0,0.0,0.0,0.0,0.0,0.0,0.0,0.0,0.0,-2.8622,-3.121,-3.121,-2.8973,-2.7701,-2.8664,-2.7223,-2.664,-2.7745,-2.9038,-2.9792,-2.9792,-2.9792,-2.9792,-2.9792,-2.9792,-2.9792,-2.9792,-2.9792,-2.9792,-2.9792,-2.9792,-2.9792,-2.9792,-2.9792,-2.9792,-2.9792,-2.9792,-2.9792,-2.9792,-2.9792,-2.9792,-2.9792,-2.9792,-2.9792,0.0,0.0,0.0,0.0,0.0,-2.4448,-2.4747,-2.7078,-2.7858,-2.7708,-2.6766,-2.6533,-2.6533,-2.6533,-2.6533,-2.6533,-2.6533,-2.6533,-2.6533,-2.6533,-2.6533,-2.6533,-2.6533,-2.6533,-2.6296,-2.5536,-2.4957,-2.4364,-2.3642,-2.2154,0.0,-1.991,-1.9092,-1.8486,-1.8301,-1.8271,-1.8213,-1.8037,-1.8008,-1.792,-1.7676,-1.7646,-1.7471,-1.7041,-1.6602,0.0,0.0,0.0,-1.4048,-1.3351,-1.3069,0.0,0.0,0.0,0.0,0.0,0.0,0.0,0.0,-1.248,-1.2744,0.0,0.0,0.0,0.0,0.0,0.0,0.0,0.0,0.0,0.0,0.0,0.0,0.0,0.0,0.0,0.0,-3.142,-3.3724,-3.3724,-3.1997,-3.0458,-2.9632,-2.866,-2.8549,-2.9679,-2.9792,-2.9792,-2.9792,-2.9792,-2.9792,-2.9792,0.0,0.0,0.0,0.0,-2.9792,-2.9792,-2.9792,-2.9792,-2.9792,-2.9792,-2.9792,-2.9792,-2.9792,-2.9792,-2.9792,-2.9792,-2.9792,-2.9792,-2.9792,-2.9792,-2.9792,-2.9792,-2.9792,-2.9792,-2.9792,-2.9792,-2.9792,-2.9792,0.0,0.0,-2.7482,-2.6898,-2.6898,-2.6898,-2.6898,-2.6898,-2.6898,-2.6722,-2.6559,-2.6615,-2.6622,-2.6546,-2.6609,-2.6502,-2.6245,-2.537,-2.5158,-2.4933,-2.4036,-2.2732,-2.1795,-2.1649,-2.0305,-1.916,-1.8769,-1.8711,-1.8555,-1.8135,-1.8076,-1.8057,-1.8018,0.0,0.0,-1.749,-1.7051,-1.6611,-1.6172,-1.5381,-1.4467,-1.347,-1.2884,-1.2603,-1.256,-1.3525,-1.405,-1.405,-1.5446,-1.5918,-1.5596,-1.4043,-1.4121,0.0,0.0,0.0,0.0,0.0,0.0,0.0,0.0,0.0,0.0,0.0,0.0,0.0,0.0,0.0,-3.3455,-3.4622,-3.5115,-3.5115,-3.4286,-3.3216,-3.1886,-2.9539,-2.8549,-2.9679,-2.9792,-2.9792,-2.9792,-2.9792,-2.9792,-2.9792,-2.9792,-2.9792,-2.9792,-2.9792,-2.9792,-2.9792,-2.9792,-2.9792,-2.9792,0.0,0.0,-2.9792,-2.9792,-2.9792,-2.9792,-2.9792,-2.9792,-2.9792,-2.9792,-2.9792,-2.9792,-2.9792,-2.9792,-2.9792,-2.9792,-2.9792,-2.9792,-2.9792,-2.9792,-2.9716,-2.9289,-2.9151,-2.9151,-2.9151,-2.9151,0.0,-2.9151,-2.7858,-2.6666,-2.7557,-2.713,-2.6647,-2.7017,-2.6779,-2.6465,-2.6233,-2.6233,-2.6164,-2.5943,-2.5063,-2.4054,-2.3234,-2.1011,-1.9258,-1.918,-1.916,-1.9004,-1.8574,-1.8446,-1.8389,-1.8047,-1.8008,-1.7978,-1.79,-1.75,-1.707,-1.6631,-1.6103,-1.5771,-1.5505,-1.5722,-1.568,-1.5327,-1.5523,-1.5631,-1.5631,-1.5977,-1.6387,-1.6982,-1.6309,-1.6162,0.0,0.0,0.0,0.0,0.0,0.0,0.0,0.0,0.0,0.0,0.0,-2.1306,-2.6587,0.0,-3.2407,-3.507,-3.5504,-3.5504,-3.5504,-3.5205,-3.4534,-3.3303,-3.1484,-3.0207,-2.9806,-2.9792,-2.9792,-2.9792,-2.9792,-2.9792,-2.9792,-2.9792,-2.9792,-2.9792,-2.9792,-2.9792,-2.9792,-2.9792,-2.9792,-2.9792,-2.9792,-2.9792,-2.9792,-2.9792,-2.9792,-2.9792,-2.9792,-2.9792,-2.9792,-2.9792,-2.9792,-2.9792,-2.9792,-2.9792,-2.9792,-2.9792,-2.9792,-2.9792,-2.9792,-2.9792,-2.9792,-2.9792,-2.9792,-2.9792,-2.9792,-2.9792,-2.9792,-2.9792,-2.8988,-2.826,-2.8812,-2.8273,-2.7607,-2.767,-2.7482,-2.7205,-2.6929,-2.6866,-2.6791,-2.6584,-2.5664,-2.4862,-2.4337,-2.2677,-2.1136,-2.0492,-2.0814,-2.0923,-2.0449,-2.0397,-2.0218,-1.9754,-1.9712,-1.9427,-1.8741,-1.7883,-1.7285,-1.707,-1.6641,-1.6396,-1.6396,-1.6611,-1.6631,-1.6406,-1.6611,-1.6719,-1.6719,-1.7148,-1.7578,-1.8008,-1.8008,-1.7891,0.0,0.0,0.0,0.0,0.0,0.0,0.0,0.0,-3.1913,-3.1913,-3.0417,-2.9759,-3.1913,-3.2302,-3.3006,-3.516,-3.5504,-3.5504,-3.5504,-3.5504,-3.5213,-3.4394,-3.3602,-3.2263,-3.0011,-2.9792,-2.9792,-2.9792,-2.9792,-2.9792,-2.9792,-2.9792,-2.9792,-2.9792,-2.9792,-2.9792,-2.9792,-2.9792,-2.9792,-2.9792,-2.9792,-2.9792,-2.9792,-2.9792,-2.9792,-2.9792,-2.9792,-2.9792,-2.9792,-2.9792,-2.9792,-2.9792,-2.9792,-2.9792,-2.9792,-2.9792,-2.9792,-2.9792,-2.9792,-2.9792,-2.9792,-2.9792,-2.9792,-2.9792,-2.9792,-2.9792,-2.9792,-2.9792,-2.9792,-2.9792,-2.9792,-2.9252,-2.8624,-2.8335,-2.8185,-2.7984,-2.7544,-2.7356,-2.7155,-2.6703,-2.5947,-2.5229,-2.5016,-2.448,-2.3609,-2.2058,-2.2501,-2.2835,-2.2398,-2.2342,-2.215,-2.1587,-2.1531,-2.1041,-1.9737,-1.866,-1.8012,-1.7754,-1.7422,-1.7227,-1.7227,-1.7227,-1.7227,-1.7227,-1.7578,-1.7754,-1.7754,-1.8428,-1.876,-1.8769,-1.9209,-1.9219,-2.1746,-2.3555,-2.5148,-2.597,-2.791,-2.9684,0.0,0.0,-3.3275,-3.3275,-3.3993,-3.4711,-3.5011,-3.5055,-3.516,-3.5459,-3.5504,-3.5504,-3.5504,-3.5504,-3.5439,-3.5359,-3.5213,-3.3782,-3.0152,-2.9792,-2.9792,-2.9792,-2.9792,-2.9792,-2.9792,-2.9792,-2.9792,-2.9792,-2.9792,-2.9792,-2.9792,-2.9792,-2.9792,-2.9792,-2.9792,-2.9792,-2.9792,-2.9792,-2.9792,-2.9792,-2.9792,-2.9792,-2.9792,-2.9792,-2.9792,-2.9792,-2.9792,-2.9792,-2.9792,-2.9792,-2.9792,-2.9792,-2.9792,-2.9792,-2.9792,-2.9792,-2.9792,-2.9792,-2.9792,-2.9792,-2.9792,-2.9792,-2.9792,-2.9792,-2.9792,-2.9252,-2.8725,-2.8812,-2.8461,-2.8084,-2.8021,-2.7632,-2.7268,-2.7205,-2.6721,-2.6025,-2.5158,-2.5664,-2.5475,-2.3593,-2.3363,-2.3268,-2.2846,-2.279,-2.2669,-2.2161,-2.2116,-2.1683,-2.0748,-2.0485,-2.0052,-1.9144,-1.9023,-1.9004,-1.9004,-1.9004,-1.9004,-1.9004,-1.9053,-1.9072,-1.9072,-1.917,-1.9219,-1.9219,-1.9648,-1.9814,-2.6445,-2.7267,-2.758,0.0,-3.0431,-3.133,-3.1495,-3.2362,-3.341,-3.4457,-3.5115,-3.5504,-3.5504,-3.5504,-3.5504,0.0,-3.5504,-3.5504,-3.5504,-3.5504,-3.5504,-3.5504,-3.5504,-3.4868,-3.3297,-3.3143,-3.3143,-3.3143,-3.206,-3.0921,-2.9869,-3.0382,-3.0444,-2.9817,-2.9792,-2.9792,-2.9792,-2.9792,-2.9792,-2.9792,-2.9792,-2.9792,-2.9792,-2.9792,-2.9792,-2.9792,-2.9792,-2.9792,-2.9792,-2.9792,-2.9792,-2.9792,-2.9792,-2.9792,-2.9792,-2.9792,-2.9792,-2.9792,-2.9792,-2.9792,-2.9792,-2.9792,-2.9792,-2.9792,-2.9792,-2.9792,-2.9792,-2.9792,-2.9792,-2.9792,-2.9792,-2.9566,-2.9352,-2.9415,-2.9252,-2.9001,-2.8662,-2.8398,-2.8147,-2.7821,-2.7318,-2.6859,-2.6424,-2.6445,-2.6233,-2.5346,-2.5276,-2.5204,-2.4987,-2.5033,-2.4816,-2.4273,-2.3467,-2.2536,-2.1574,-2.1096,-2.0339,-1.936,-1.9287,-1.9287,-1.9287,-1.9287,-1.9287,-1.9287,-1.9287,-1.9287,-1.9287,-1.9531,-1.9648,-1.9668,-2.0098,-2.043,-2.9303,0.0,0.0,-3.1453,-3.2331,-3.2542,-3.2317,-3.2946,-3.3948,-3.5235,-3.5504,-3.5504,-3.5504,-3.5504,-3.5504,-3.5504,-3.5504,-3.5504,-3.5504,-3.5504,-3.5504,-3.5504,-3.5504,-3.5504,-3.5504,-3.5504,-3.5504,-3.5504,-3.451,-3.3135,-3.1323,-3.2137,-3.2029,-3.0498,-3.0193,-3.0143,-3.0231,-3.0231,-3.0231,-3.0231,-3.0231,-3.0231,-3.0218,-2.993,-2.9905,-3.008,-2.988,-2.9792,-2.9792,-2.9792,-2.9792,-2.9792,-2.9792,-2.9792,-2.9792,-2.9792,-2.9792,-2.9792,-2.9792,-2.9792,-2.9792,-2.9792,-2.9792,-2.9792,-2.9792,-2.9792,-2.9792,-2.9792,-2.9792,-2.9792,-2.9792,-2.9792,-2.9792,-2.9792,-2.9792,-2.9679,-2.9252,-2.9038,-2.8812,-2.8411,-2.7883,-2.7507,-2.7507,-2.718,-2.6866,-2.6703,-2.6691,-2.6697,-2.6546,-2.6533,-2.6302,-2.5875,-2.4927,-2.3795,-2.2509,-2.1898,-2.0989,-1.9713,-1.9639,-1.9639,-1.9639,-1.9639,-1.9639,-1.9639,-1.9639,-1.9639,-1.9639,-1.9941,-2.0156,-2.0283,-2.0605,-2.0986,0.0,0.0,-2.9275,-3.2622,-3.311,-3.299,-3.3918,-3.4801,-3.5444,-3.5489,-3.5504,-3.5504,-3.5504,-3.5504,-3.5504,-3.5504,-3.5504,-3.5504,-3.5504,-3.5504,-3.5504,-3.5504,-3.5504,-3.5504,0.0,-3.5504,-3.5504,-3.5504,-3.6574,-3.6501,-3.4868,-3.5577,-3.478,-3.1996,-3.1223,-3.1009,-3.1336,-3.1336,-3.1336,-3.1336,-3.1336,-3.1336,-3.1311,-3.0269,-3.0181,-3.0809,-3.0105,-2.9792,-2.9792,-2.9792,-2.9792,-2.9792,-2.9792,-2.9792,-2.9792,-2.9792,-2.9792,-2.9792,-2.9792,-2.9792,-2.9792,-2.9792,-2.9792,-2.9792,-2.9792,-2.9792,-2.9792,-2.9792,-2.9792,-2.9792,-2.9792,-2.9792,-2.9792,-2.9792,-2.9792,-2.9779,-2.9767,-2.9327,-2.8925,-2.89,-2.8461,-2.8084,-2.8084,-2.8059,-2.7871,-2.7344,-2.7256,-2.7067,-2.6596,-2.6533,-2.6521,-2.6496,-2.6414,-2.5603,-2.3616,-2.3396,-2.2595,-2.0672,-2.0527,-2.0527,-2.0527,-2.0527,-2.0527,-2.0527,-2.0527,-2.0527,-2.0527,-2.0537,-2.0771,-2.1191,-2.1211,-2.1445,0.0,0.0,-3.3743,-3.5834,-3.5821,-3.5385,-3.5707,-3.5619,-3.5504,-3.5504,-3.5504,-3.5504,-3.5504,-3.5504,-3.5504,-3.5504,-3.5504,-3.5504,-3.5504,-3.5504,-3.5504,-3.5504,-3.5504,0.0,0.0,0.0,0.0,-3.5504,-3.6312,-3.628,-3.5022,-3.5985,-3.5733,-3.3759,-3.3788,-3.3813,-3.3544,-3.2856,-3.2475,-3.2488,-3.1965,-3.1775,-3.1788,-3.1913,-3.1838,-3.1574,-3.0834,-3.0444,-3.0306,-2.9942,-2.9792,-2.9792,-2.9792,-2.9792,-2.9792,-2.9792,-2.9792,-2.9792,-2.9792,-2.9792,-2.9792,-2.9792,-2.9792,-2.9792,-2.9792,-2.9792,-2.9792,-2.9792,-2.9792,-2.9792,-2.9792,-2.9792,-2.9792,-2.9792,-2.9792,-2.9792,-2.9792,-2.9641,-2.9503,-2.9503,-2.9038,-2.8649,-2.8649,-2.8348,-2.8047,-2.7858,-2.7205,-2.6666,-2.6546,-2.6533,-2.6533,-2.6533,-2.6533,-2.5943,-2.4636,-2.3891,-2.2925,-2.1593,-2.0934,-2.0566,-2.0566,-2.0566,-2.0566,-2.0566,-2.0566,-2.0713,-2.1016,-2.1016,-2.124,-2.167,-2.167,-2.1894,-3.4996,-3.5438,-3.5346,-3.7623,-3.7738,-3.7203,-3.6859,-3.6352,-3.5958,-3.5554,-3.5504,-3.522,-3.4262,-3.332,-3.329,-3.519,-3.5893,-3.6193,-3.6193,-3.6193,-3.6252,-3.6417,-3.6447,-3.6372,0.0,0.0,0.0,-3.5863,-3.6671,-3.693,-3.6234,-3.7171,-3.7096,-3.5789,-3.6093,-3.5941,-3.5155,-3.4461,-3.3926,-3.3555,-3.3196,-3.2759,-3.2378,-3.2654,-3.2516,-3.2014,-3.1235,-3.0821,-3.067,-3.0043,-2.9792,-2.9792,-2.9792,-2.9792,-2.9792,-2.9792,-2.9792,-2.9792,-2.9792,-2.9792,-2.9792,-2.9792,-2.9792,-2.9792,-2.9792,-2.9792,-2.9792,-2.9792,-2.9792,-2.9792,-2.9792,-2.9792,-2.9792,-2.9792,-2.9792,-2.9792,-2.9792,-2.9792,-2.9792,-2.9792,-2.949,-2.9239,-2.9239,-2.8775,-2.8398,-2.8398,-2.7632,-2.7042,-2.7042,-2.7042,-2.7042,-2.7042,-2.6866,-2.6226,-2.4833,-2.3993,-2.2925,-2.1593,-2.0934,-2.0566,-2.0566,-2.0723,-2.0801,-2.0801,-2.0957,-2.1182,-2.1465,-2.1465,-2.1689,-2.2109,-2.2109,-2.2334,-3.6113,-3.5318,-3.4566,-3.8112,-3.8778,-3.8351,-3.7338,-3.704,-3.6768,-3.5797,-3.5554,-3.4562,-3.1595,0.0,-2.9833,-3.4613,-3.6543,-3.7434,-3.7494,-3.7464,-3.7614,0.0,0.0,0.0,0.0,0.0,0.0,-3.6626,0.0,-3.8392,-3.8392,-3.905,-3.8943,-3.7919,-3.7904,-3.742,-3.6355,-3.629,-3.5748,-3.4746,-3.4746,-3.4191,-3.3142,-3.2503,-3.2252,-3.2202,-3.1336,-3.0959,-3.0896,-3.0168,-2.9867,-2.9829,-2.9829,-2.9817,-2.9792,-2.9792,-2.9792,-2.9792,-2.9792,-2.9792,-2.9792,-2.9792,-2.9792,-2.9792,-2.9792,-2.9792,-2.9792,-2.9792,-2.9792,-2.9792,-2.9792,-2.9792,-2.9792,-2.9792,-2.9792,-2.9792,-2.9792,-2.9792,-2.9792,-2.9792,-2.9792,-2.9792,-2.9792,-2.934,-2.8976,-2.8976,-2.8524,-2.8172,-2.8109,-2.8109,-2.8109,-2.8109,-2.7632,-2.6565,-2.4589,-2.3936,-2.2777,-2.0858,-2.0713,-2.0635,-2.0635,-2.1045,-2.1269,-2.1269,-2.167,-2.1894,-2.1924,-2.1924,-2.2139,-2.2549,-2.2549,-2.2754,-3.7127,-3.799,-3.8601,-3.9564,-3.9315,-3.8745,-3.8469,-3.7674,-3.7055,-3.7175,-3.6321,-3.3273,-2.5997,0.0,0.0,-3.452,-3.6013,0.0,-3.8766,-3.8347,0.0,-3.8108,0.0,-3.7539,-3.7419,-3.7853,0.0,0.0,-3.8212,-3.8392,-3.8392,-3.905,-3.9265,-3.9017,-3.9017,-3.8855,-3.862,-3.7814,-3.6866,-3.5814,-3.5047,-3.4594,-3.4262,-3.3331,-3.2855,-3.2817,-3.2164,-3.1876,-3.1825,-3.1223,-3.0758,-3.0407,-3.0407,-3.0156,-2.9792,-2.9792,-2.9792,-2.9792,-2.9792,-2.9792,-2.9792,-2.9792,-2.9792,-2.9792,-2.9792,-2.9792,-2.9792,-2.9792,-2.9792,-2.9792,-2.9792,-2.9792,-2.9792,-2.9792,-2.9792,-2.9792,-2.9792,-2.9792,-2.9792,-2.9792,-2.9792,-2.9792,-2.9792,-2.9666,-2.9578,-2.9578,-2.9453,-2.9063,-2.821,-2.8109,-2.8109,-2.8109,-2.7984,-2.736,-2.6059,-2.5161,-2.4073,-2.267,-2.1919,-2.1553,-2.1553,-2.166,-2.1719,-2.1719,-2.1826,-2.2041,-2.2353,-2.2353,-2.2568,-2.2978,-2.2978,-2.3037,-3.9039,-4.0037,-4.0747,-4.0747,-4.0118,-3.9437,-3.9437,-3.887,-3.7698,-3.5362,-3.423,0.0,-2.4544,-2.9688,0.0,0.0,0.0,0.0,-3.8781,-3.8557,-3.8347,0.0,-3.8706,0.0,-3.8721,-3.932,-3.9709,0.0,-3.9439,-3.914,-3.8856,-3.9484,-3.9709,-3.9424,-3.9424,-3.9424,-3.9424,-3.8782,-3.7979,-3.693,-3.6318,-3.5615,-3.4664,-3.4108,-3.3556,-3.3056,0.0,-3.2591,-3.2566,-3.2252,-3.1763,-3.121,-3.121,-3.0783,-3.0156,-3.0156,-2.9993,-2.9792,-2.9792,-2.9792,-2.9792,-2.9792,-2.9792,-2.9792,-2.9792,-2.9792,-2.9792,-2.9792,-2.9792,-2.9792,-2.9792,-2.9792,-2.9792,-2.9792,-2.9792,-2.9792,-2.9792,-2.9792,-2.9792,-2.9792,-2.9792,-2.9792,-2.9792,-2.9792,-2.9792,-2.9792,-2.9792,-2.9566,-2.8925,-2.885,-2.885,-2.885,-2.8612,-2.784,-2.6356,-2.544,-2.4366,-2.2798,-2.2185,-2.1885,-2.1885,-2.206,-2.2158,-2.2158,-2.2344,-2.2549,-2.2783,-2.2783,-2.291,-2.3135,-2.3135,-2.3135,-4.0882,-4.1508,-4.1897,-4.1491,-4.073,-3.9969,-3.958,-3.9174,-3.7398,-3.2087,0.0,-2.8822,-2.4915,-2.6673,-2.9492,-3.2001,0.0,-3.5692,-3.8353,-3.8613,-3.8817,-3.9454,-4.0053,-4.0427,-4.0516,-4.1055,-4.1384,-4.1384,-4.0935,-4.0367,-3.9709,-4.0217,-4.0277,-3.9694,-3.9679,-3.9679,-3.9679,-3.9589,-3.9077,-3.811,-3.7872,-3.688,-3.5061,-3.4828,-3.4191,-3.3313,-3.3154,-3.3081,-3.3081,-3.3081,-3.2654,-3.2014,-3.2014,-3.1486,-3.0721,-3.0721,-3.0369,-2.9905,-2.9905,-2.9854,-2.9792,-2.9792,-2.9792,-2.9792,-2.9792,-2.9792,-2.9792,-2.9792,-2.9792,-2.9792,-2.9792,-2.9792,-2.9792,-2.9792,-2.9792,-2.9792,-2.9792,-2.9792,-2.9792,-2.9792,-2.9792,-2.9792,-2.9792,-2.9792,-2.9792,-2.9792,-2.9792,-2.9792,-2.9792,-2.9792,-2.9792,-2.9792,-2.934,-2.824,-2.6303,-2.552,-2.4335,-2.2373,-2.2124,-2.2051,-2.2051,-2.2402,-2.2598,-2.2598,-2.2949,-2.3135,-2.3135,-2.3135,-2.3135,-2.3135,-2.3135,-2.3135,-4.024,-4.2134,-4.3453,-4.0967,-4.0206,-3.9428,-3.6958,-3.4489,0.0,0.0,-2.6691,-2.3613,-2.2835,-2.6404,-2.9916,-3.1221,0.0,0.0,0.0,0.0,-3.9581,0.0,0.0,0.0,0.0,0.0,0.0,0.0,0.0,-4.1728,-4.107,-4.1145,-4.116,-4.1055,-4.104,-4.104,-4.104,-4.0502,-4.0144,-3.9892,-3.8481,-3.7601,-3.7204,-3.5453,-3.4581,-3.4345,-3.3471,0.0,-3.3081,-3.3081,-3.2717,-3.2177,-3.2177,-3.18,-3.1248,-3.1248,-3.0922,-3.047,-3.047,-3.0168,-2.9792,-2.9792,-2.9792,-2.9792,-2.9792,-2.9792,-2.9792,-2.9792,-2.9792,-2.9792,-2.9792,-2.9792,-2.9792,-2.9792,-2.9792,-2.9792,-2.9792,-2.9792,-2.9792,-2.9792,-2.9792,-2.9792,-2.9792,-2.9792,-2.9792,-2.9792,-2.9792,-2.9792,-2.9792,-2.9792,-2.9792,-2.9792,-2.9704,-2.9139,-2.7794,-2.6829,-2.5639,-2.4398,-2.3408,-2.292,-2.292,-2.2988,-2.3027,-2.3027,-2.3096,-2.3135,-2.3135,-2.3135,-2.3135,-2.3135,-2.3135,-2.3135,-4.0865,-4.2675,-4.4231,-4.2777,-4.0663,-3.7144,-3.026,0.0,0.0,0.0,-2.3968,-2.231,-2.231,0.0,0.0,0.0,0.0,0.0,0.0,0.0,0.0,0.0,0.0,0.0,0.0,0.0,0.0,0.0,0.0,-4.2432,-4.1429,-4.1384,-4.1384,-4.1384,-4.1384,-4.1384,-4.1384,-4.107,-4.0905,-4.0905,-4.0098,-3.9375,-3.8808,-3.7433,-3.6562,-3.5899,-3.4559,0.0,-3.3869,-3.3313,-3.2918,-3.2667,-3.2667,-3.2315,-3.1813,-3.1813,-3.1486,-3.1022,-3.1022,-3.0846,-3.0583,-3.0306,-3.003,-2.9792,-2.9792,-2.9792,-2.9792,-2.9792,-2.9792,-2.9792,-2.9792,-2.9792,-2.9792,-2.9792,-2.9792,-2.9792,-2.9792,-2.9792,-2.9792,-2.9792,-2.9792,-2.9792,-2.9792,-2.9792,-2.9792,-2.9792,-2.9792,-2.9792,-2.9792,-2.9792,-2.9792,-2.9792,-2.9792,-2.9365,-2.8176,-2.7602,-2.6871,-2.5714,-2.4638,-2.3963,-2.3963,-2.3387,-2.3135,-2.3135,-2.3135,-2.3135,-2.3135,-2.3135,-2.3135,-2.3135,-2.3135,-2.3135,-4.1644,-4.2895,-4.4012,-4.369,-4.073,-3.5453,-2.6048,-2.4441,0.0,0.0,-2.2412,-2.231,-2.231,0.0,0.0,0.0,0.0,0.0,0.0,0.0,0.0,0.0,0.0,0.0,0.0,0.0,0.0,0.0,0.0,0.0,-4.1848,-4.1803,-4.1803,-4.1803,-4.1803,-4.1803,-4.1803,-4.1669,-4.1594,-4.1594,-4.1444,-4.0959,-4.011,-3.9367,-3.8489,-3.7446,-3.5681,0.0,0.0,-3.3556,-3.3081,-3.3081,-3.3081,-3.2805,-3.239,-3.239,-3.2039,-3.1562,-3.1562,-3.1486,-3.1323,-3.0922,-3.0419,-2.9942,-2.9829,-2.9792,-2.9792,-2.9792,-2.9792,-2.9792,-2.9792,-2.9792,-2.9792,-2.9792,-2.9792,-2.9792,-2.9792,-2.9792,-2.9792,-2.9792,-2.9792,-2.9792,-2.9792,-2.9792,-2.9792,-2.9792,-2.9792,-2.9792,-2.9792,-2.9792,-2.9792,-2.9792,-2.9792,-2.9443,-2.8518,-2.8255,-2.7763,-2.6883,-2.5797,-2.5126,-2.5126,-2.4049,-2.3464,-2.3464,-2.3222,-2.3135,-2.3135,-2.3135,-2.3135,-2.3135,-2.3135,-2.3135,-4.1863,-4.2354,-4.2185,-4.0832,-3.9191,-3.6349,-3.0395,0.0,0.0,-2.3731,-2.2767,-2.231,-2.231,-2.3004,-2.478,0.0,0.0,-3.237,0.0,0.0,0.0,0.0,0.0,0.0,0.0,0.0,0.0,0.0,0.0,0.0,-4.3165,-4.315,-4.315,-4.315,-4.315,-4.315,-4.315,-4.2566,-4.2267,-4.2267,-4.1669,-4.1369,-4.1217,-4.0144,-3.9312,-3.8531,-3.6442,0.0,0.0,-3.3556,-3.3081,-3.3081,-3.3081,-3.3043,-3.3006,-3.3006,-3.2629,-3.2139,-3.2139,-3.1813,-3.1386,-3.1336,-3.0959,-3.0444,-2.9942,-2.9792,-2.9792,-2.9792,-2.9792,-2.9792,-2.9792,-2.9792,-2.9792,-2.9792,-2.9792,-2.9792,-2.9792,-2.9792,-2.9792,-2.9792,-2.9792,-2.9792,-2.9792,-2.9792,-2.9792,-2.9792,-2.9792,-2.9792,-2.9792,-2.9792,-2.9792,-2.9792,-2.9792,-2.9792,-2.9624,-2.8688,-2.8084,-2.7936,-2.6953,-2.6307,-2.6307,-2.521,-2.4617,-2.4617,-2.3637,-2.3135,-2.3135,-2.3135,-2.3135,-2.3135,-2.3135,-2.3135,-4.0798,-4.161,-4.1931,-4.0443,-3.8294,-3.5165,-2.9989,0.0,-2.6488,-2.3393,-2.2513,-2.231,-2.231,-2.2547,-2.3557,-2.6064,-2.6858,-2.8627,-3.2814,0.0,0.0,0.0,0.0,0.0,0.0,0.0,0.0,0.0,0.0,0.0,-4.3359,-4.3329,-4.3329,-4.3329,-4.3329,-4.3329,-4.3329,-4.3075,-4.294,-4.294,-4.2686,-4.2551,-4.2551,-4.1729,-4.1233,-4.089,-3.8913,-3.7763,0.0,-3.598,-3.5368,-3.4952,-3.4952,-3.4568,-3.4037,-3.4037,-3.3487,-3.2729,-3.2729,-3.2591,-3.2353,-3.2001,-3.175,-3.1474,-3.0922,-3.0532,-3.0281,-3.0281,-3.0043,-2.9792,-2.9792,-2.9792,-2.9792,-2.9792,-2.9792,-2.9792,-2.9792,-2.9792,-2.9792,-2.9792,-2.9792,-2.9792,-2.9792,-2.9792,-2.9792,-2.9792,-2.9792,-2.9792,-2.9792,-2.9792,-2.9792,-2.9792,-2.9792,-2.9792,-2.9792,-2.9365,-2.9106,-2.9106,-2.8108,-2.7441,-2.7441,-2.6378,-2.5797,-2.5797,-2.5389,-2.4808,-2.4125,-2.4125,-2.38,-2.3135,-2.3135,-2.3135,-3.9884,-4.0849,-4.139,-4.0341,-3.8007,-3.4759,0.0,-2.8433,-2.6742,-2.3071,-2.231,-2.231,-2.231,-2.231,-2.2858,-2.4545,-2.5046,-2.673,-3.1117,-3.3611,0.0,0.0,0.0,0.0,0.0,0.0,0.0,0.0,0.0,0.0,-4.3943,-4.3718,-4.3524,-4.3344,-4.3329,-4.3329,-4.3329,-4.3329,-4.3329,-4.3329,-4.3329,-4.3329,-4.3329,-4.2865,-4.2551,-4.2327,-4.0777,-3.9722,0.0,-3.7704,-3.6888,-3.646,-3.6281,-3.5734,-3.5129,-3.4815,-3.4191,-3.3556,-3.324,-3.3081,-3.3006,-3.2604,-3.2466,-3.2403,-3.2001,-3.1399,-3.0846,-3.0846,-3.057,-3.0231,-3.008,-3.0043,-2.9993,-2.9829,-2.9792,-2.9792,-2.9792,-2.9792,-2.9792,-2.9792,-2.9792,-2.9792,-2.9792,-2.9792,-2.9792,-2.9792,-2.9792,-2.9792,-2.9792,-2.9792,-2.9792,-2.9792,-2.9792,-2.9792,-2.9792,-2.9792,-2.9792,-2.9792,-2.9028,-2.8597,-2.8597,-2.7533,-2.6964,-2.6964,-2.6637,-2.6141,-2.5294,-2.5294,-2.4882,-2.4145,-2.4145,-2.3887,-3.9357,-4.0087,-4.0104,-4.007,-3.8413,-3.5791,0.0,-2.9431,-2.6742,-2.3071,-2.231,-2.231,-2.231,-2.231,-2.2858,-2.4545,-2.597,-2.8217,-3.2031,-3.5069,0.0,0.0,0.0,0.0,0.0,0.0,0.0,0.0,0.0,0.0,-4.5274,-4.4661,-4.4003,-4.3359,-4.3329,-4.3329,-4.3329,-4.3329,-4.3329,-4.3329,-4.3329,-4.3329,-4.3329,-4.3329,-4.297,-4.2357,-4.1244,-4.0371,0.0,-3.7886,-3.7232,-3.7162,-3.6446,-3.6198,-3.6053,-3.5047,-3.4664,-3.4511,-3.3471,-3.3081,-3.3081,-3.3068,-3.3068,-3.3068,-3.3056,-3.2277,-3.1386,-3.1386,-3.1386,-3.1248,-3.0733,-3.0608,-3.047,-2.993,-2.9792,-2.9792,-2.9792,-2.9792,-2.9792,-2.9792,-2.9792,-2.9792,-2.9792,-2.9792,-2.9792,-2.9792,-2.9792,-2.9792,-2.9792,-2.9792,-2.9792,-2.9792,-2.9792,-2.9792,-2.9792,-2.9792,-2.9792,-2.9792,-2.9792,-2.9792,-2.9792,-2.8688,-2.8084,-2.8084,-2.7046,-2.6472,-2.6472,-2.6472,-2.6483,-2.6472,-2.6472,-2.588,-3.4312,-3.5179,-3.5668,-3.4338,-3.3102,-3.1495,-2.8738,-2.7182,-2.5558,-2.2868,-2.231,-2.231,-2.231,-2.231,-2.3194,-2.5933,-2.7008,-2.8721,0.0,0.0,0.0,0.0,0.0,0.0,0.0,0.0,0.0,0.0,0.0,0.0,-4.5319,-4.5095,-4.4691,-4.4018,-4.3569,-4.3329,-4.3329,-4.3329,-4.3329,-4.3329,-4.3329,-4.3329,-4.3329,-4.3329,-4.3225,-4.303,-4.2684,-4.2139,0.0,-4.0984,-4.0212,-3.9393,-3.9188,-3.8355,-3.7266,-3.6958,-3.6318,-3.5668,-3.5346,-3.5183,-3.5116,-3.4428,-3.4191,-3.4037,-3.3313,-3.2554,-3.1876,-3.1499,-3.1386,-3.1348,-3.1185,-3.1148,-3.1097,-3.0922,-3.0884,-3.0884,-3.0884,-3.0608,-3.0357,-3.0357,-3.0043,-2.9792,-2.9792,-2.9792,-2.9792,-2.9792,-2.9792,-2.9792,-2.9792,-2.9792,-2.9792,-2.9792,-2.9792,-2.9792,-2.9792,-2.9792,-2.9792,-2.9792,-2.9792,-2.9792,-2.9792,-2.9443,-2.9275,-2.9275,-2.8961,-2.8371,-2.7602,-2.7602,-2.7382,-2.706,-2.706,-2.7071,-3.0956,-3.2137,-3.2861,-3.1528,-3.0429,-2.9161,-2.7148,-2.5913,-2.4644,-2.2716,-2.231,-2.231,-2.231,-2.253,-2.3395,-2.5487,-2.7008,0.0,0.0,0.0,0.0,0.0,0.0,0.0,0.0,0.0,0.0,0.0,0.0,0.0,-4.6082,-4.5813,-4.5499,-4.508,-4.4182,-4.3703,-4.3703,-4.3464,-4.3329,-4.3329,-4.3329,-4.3329,-4.3329,-4.3329,-4.3329,-4.3329,-4.3329,-4.3105,0.0,-4.2462,-4.1878,-4.1115,-4.0876,-3.9965,-3.8748,-3.8341,-3.7619,-3.6774,-3.6369,-3.6198,-3.6132,-3.544,-3.4979,-3.4594,-3.3869,-3.3145,-3.2466,-3.2127,-3.2026,-3.1976,-3.175,-3.17,-3.165,-3.1436,-3.1386,-3.1386,-3.1386,-3.1135,-3.0909,-3.0909,-3.0633,-3.0394,-3.0394,-3.0394,-3.0394,-3.0394,-3.0231,-3.0105,-3.0105,-2.993,-2.9792,-2.9792,-2.9792,-2.9792,-2.9792,-2.9792,-2.9792,-2.9792,-2.9792,-2.9792,-2.9792,-2.9792,-2.9792,-2.9792,-2.9792,-2.9456,-2.8767,-2.8974,-2.9003,-2.8845,-2.8425,-2.843,0.0,-3.0417,-3.1139,-3.0717,-2.9587,-2.8197,-2.6725,-2.5355,0.0,-2.2598,-2.231,-2.2378,-2.2581,-2.3088,-2.3712,-2.4365,-2.6739,0.0,0.0,0.0,0.0,0.0,0.0,0.0,0.0,0.0,0.0,0.0,0.0,0.0,-4.7309,-4.6726,-4.6396,-4.6396,-4.514,-4.4436,-4.4392,-4.3733,-4.3404,-4.3404,-4.3359,-4.3329,-4.3329,-4.3329,-4.3329,0.0,-4.3329,-4.3329,0.0,-4.2686,-4.2402,-4.2297,-4.1683,-4.1055,-4.0382,-3.9328,-3.8601,-3.781,-3.683,-3.6476,-3.6448,-3.6369,-3.5588,-3.4828,-3.4828,-3.4037,-3.3081,-3.3081,-3.3081,-3.2955,-3.2416,-3.2277,-3.2139,-3.1637,-3.1512,-3.1512,-3.1512,-3.1474,-3.1449,-3.1449,-3.1411,-3.1386,-3.1386,-3.1386,-3.1386,-3.1386,-3.0984,-3.067,-3.067,-3.0218,-2.9905,-2.9905,-2.9905,-2.9905,-2.9905,-2.9829,-2.9792,-2.9792,-2.9792,-2.9817,-2.9854,-2.9854,-2.9867,-2.9905,-2.9905,-2.9905,-2.9905,-3.0419,-3.0934,-3.1449,-3.042,-3.0013,-2.464,0.0,-2.638,-2.504,-2.4705,-2.4458,0.0,-2.3494,-2.3393,-2.2496,0.0,-2.3004,-2.5253,-2.4881,-2.5931,0.0,0.0,0.0,0.0,0.0,0.0,0.0,0.0,0.0,0.0,0.0,0.0,0.0,0.0,-4.7309,-4.7309,-4.716,-4.707,-4.707,-4.6277,-4.5603,-4.5065,-4.4407,-4.4077,-4.4077,-4.3584,-4.3329,-4.3329,-4.3329,-4.3329,-4.3329,-4.3329,-4.3329,-4.3329,-4.3165,-4.2821,-4.2342,-4.2192,-4.1728,-4.1145,-4.0903,-4.0321,-3.9758,-3.9504,-3.9106,-3.8531,-3.7663,-3.6696,-3.5814,-3.5814,-3.4568,-3.3081,-3.3081,-3.3081,-3.3043,-3.2918,-3.2867,-3.2842,-3.2717,-3.2679,-3.2679,-3.2679,-3.234,-3.2014,-3.2014,-3.1675,-3.1386,-3.1386,-3.1386,-3.1386,-3.1386,-3.1286,-3.121,-3.121,-3.1097,-3.1009,-3.1009,-3.1009,-3.1009,-3.1009,-3.0269,-2.9792,-2.9792,-2.9792,-2.998,-3.0407,-3.0419,-3.0608,-3.1009,-3.1009,-3.1009,-3.1009,-3.1148,-3.1486,-3.2026,-3.1763,-3.1903,-2.3021,-2.426,-2.5363,-2.4288,-2.422,-2.4306,-2.3917,0.0,0.0,0.0,0.0,-2.3393,-2.5321,0.0,0.0,0.0,0.0,0.0,0.0,0.0,0.0,0.0,0.0,0.0,0.0,0.0,0.0,0.0,0.0,-4.7309,-4.7309,-4.7309,-4.7309,-4.7309,-4.6965,-4.6456,-4.5783,-4.5095,-4.4766,-4.4751,-4.4092,-4.3778,-4.3778,-4.3464,-4.3329,-4.3329,-4.3329,-4.3329,-4.3329,-4.3329,-4.3135,-4.2806,-4.2806,-4.2402,-4.1833,-4.1833,-4.1414,-4.0846,-4.0846,-4.0427,-3.9785,-3.915,-3.8059,-3.693,-3.693,-3.5828,-3.4485,-3.4485,-3.4485,-3.4485,-3.4485,-3.4485,-3.4485,-3.4485,-3.4485,-3.4485,-3.4485,-3.3918,-3.3309,-3.3309,-3.2675,-3.2164,-3.2164,-3.2164,-3.2164,-3.2164,-3.2314,-3.2529,-3.2529,-3.2697,-3.2699,-3.2169,-3.2169,-3.1928,-3.1468,-3.0859,-3.052,-3.052,-3.052,-3.0658,-3.0959,-3.0972,-3.1097,-3.1386,-3.1386,-3.1512,-3.1763,-3.1763,-3.2051,-3.2604,-3.2604,-3.278,-2.3206,-2.4931,-2.6485,-2.5581,-2.5641,-2.5896,-2.5659,0.0,0.0,0.0,0.0,0.0,0.0,0.0,0.0,0.0,0.0,0.0,0.0,0.0,0.0,0.0,0.0,0.0,0.0,0.0,0.0,0.0,0.0,-4.7309,-4.7309,-4.7309,-4.7309,-4.7309,-4.7309,-4.704,-4.6486,-4.5798,-4.5454,-4.5439,-4.4781,-4.4466,-4.4436,-4.3778,-4.3479,-4.3479,0.0,0.0,-4.3329,-4.3329,-4.3329,-4.3329,-4.3329,-4.3,-4.2506,-4.2506,-4.2087,-4.1519,-4.1414,-4.101,-4.0546,-4.0546,-3.9519,-3.8344,-3.8243,-3.7562,-3.6794,-3.671,-3.6448,-3.6198,-3.6198,-3.6198,-3.6198,-3.6198,-3.6198,-3.6198,-3.6198,-3.5507,-3.4897,-3.4897,-3.4108,-3.3398,-3.3556,-3.3484,-3.3398,-3.3556,-3.3901,-3.4206,-3.4206,-3.4562,-3.4416,-3.3357,-3.3291,-3.2815,-3.1719,-3.165,-3.165,-3.165,-3.1486,-3.1436,-3.1512,-3.1599,-3.165,-3.165,-3.165,-3.1876,-3.234,-3.234,-3.2591,-3.3081,-3.3081,-3.3081,-2.5063,-2.7485,-2.8626,-2.5038,-2.5831,-2.713,-2.5896,0.0,0.0,0.0,0.0,0.0,0.0,0.0,0.0,0.0,0.0,0.0,0.0,0.0,0.0,0.0,0.0,0.0,0.0,0.0,0.0,0.0,0.0,-4.7309,-4.7309,-4.7309,-4.7309,-4.7309,-4.7309,-4.7249,-4.716,-4.6501,-4.6172,-4.6157,-4.5469,-4.5155,-4.5125,-4.4466,-4.4167,-4.4122,0.0,-4.3329,-4.3329,-4.3329,-4.3329,-4.3329,-4.3329,-4.3269,-4.318,-4.318,-4.2776,-4.2132,-4.1579,-4.1309,-4.1235,-4.1235,-4.1084,-4.0725,-4.0174,-3.9921,-3.9639,-3.9091,-3.7572,-3.6198,-3.6198,-3.6198,-3.6198,-3.6198,-3.6198,-3.6198,-3.6198,-3.6053,-3.5974,-3.5974,-3.5116,-3.4733,-3.5588,-3.5047,-3.4733,-3.5588,-3.5812,-3.5823,-3.5823,-3.5912,-3.5555,-3.4563,-3.44,-3.4001,-3.289,-3.2817,-3.2817,-3.2817,-3.1913,-3.1599,-3.2064,-3.2554,-3.2817,-3.2817,-3.2817,-3.2855,-3.2943,-3.2943,-3.2993,-3.3081,-3.3081,-3.3081,-2.3984,-2.6236,-2.7928,-2.6616,-2.8851,-3.114,-3.0074,0.0,0.0,0.0,0.0,0.0,0.0,0.0,0.0,0.0,0.0,0.0,0.0,0.0,0.0,0.0,0.0,0.0,0.0,0.0,0.0,0.0,0.0,0.0,-4.7309,-4.7309,-4.7309,-4.7309,-4.7309,-4.7309,-4.7309,-4.701,-4.686,-4.6845,-4.6172,-4.5858,-4.5828,-4.5155,-4.4646,-4.4302,0.0,-4.3658,-4.3329,-4.3329,-4.3329,-4.3329,-4.3329,-4.3329,-4.3329,-4.3329,-4.3135,-4.2836,-4.2536,-4.2207,-4.1908,-4.1908,-4.1669,-4.1324,-4.1025,-4.0935,-4.0816,-4.0277,-3.9047,-3.7965,-3.7965,-3.7965,-3.7965,-3.7965,-3.7965,-3.7965,-3.7965,-3.7965,-3.7738,-3.7175,-3.6225,-3.5668,-3.6119,-3.5814,-3.5668,-3.6119,-3.6682,-3.7098,-3.7098,-3.7572,-3.7496,-3.6489,-3.6411,-3.5922,-3.4884,-3.4802,-3.4332,-3.3154,-3.2591,-3.2416,-3.2667,-3.3487,-3.3713,-3.3081,-3.3628,-3.3713,-3.3081,-3.3081,-3.3081,-3.3081,-3.3382,-3.352,-2.329,-2.5132,-2.725,-2.8442,0.0,-3.3541,-3.3863,0.0,0.0,0.0,0.0,0.0,0.0,0.0,0.0,0.0,0.0,0.0,0.0,0.0,0.0,0.0,0.0,0.0,0.0,0.0,0.0,0.0,0.0,0.0,-4.7309,-4.7309,-4.7309,-4.7309,-4.7309,-4.7309,-4.7309,-4.7309,-4.7309,-4.7294,-4.68,-4.6546,-4.6531,-4.5843,-4.5259,-4.4781,-4.4616,-4.4167,-4.3569,-4.3569,-4.3464,-4.3329,-4.3329,-4.3329,-4.3329,-4.3329,-4.3329,-4.3329,-4.3329,-4.3015,-4.2581,-4.2581,-4.2252,-4.1803,-4.1594,-4.1534,-4.1444,-4.0995,-4.0397,-3.9813,-3.9499,-3.9574,-3.9664,-3.9469,-3.9424,-3.9424,-3.9424,-3.9424,-3.9177,-3.8308,-3.7496,-3.6916,-3.6916,-3.676,-3.6682,-3.6916,-3.7663,-3.8144,-3.8144,-3.887,-3.9017,-3.7919,-3.7829,-3.7343,-3.6277,-3.6198,-3.5494,-3.394,-3.3869,-3.3869,-3.3869,-3.4568,-3.465,-3.3856,-3.465,-3.4729,-3.4075,-3.3747,-3.3738,-3.3878,-3.406,-3.4085,-2.4978,-2.6522,-2.8095,-2.9604,-3.0192,0.0,-3.4692,-3.432,0.0,-3.6857,0.0,0.0,0.0,0.0,0.0,0.0,0.0,0.0,0.0,0.0,0.0,0.0,0.0,0.0,0.0,0.0,0.0,0.0,0.0,0.0,-4.7309,-4.7309,-4.7309,-4.7309,-4.7309,-4.7309,-4.7309,-4.7309,-4.7309,-4.7309,-4.7249,-4.7234,-4.7219,-4.6546,-4.6217,-4.6142,-4.5499,-4.4855,-4.4242,-4.4242,-4.3883,-4.3329,-4.3329,-4.3329,-4.3329,-4.3329,-4.3329,-4.3329,-4.3329,-4.3299,-4.3269,-4.3269,-4.3225,-4.3045,-4.2222,-4.1983,-4.1893,-4.1459,-4.1294,-4.0965,-3.9738,-4.0023,-4.0427,-3.9604,-3.9424,-3.9424,-3.9424,-3.9424,-3.9352,-3.9265,-3.925,-3.9177,-3.9177,-3.8308,-3.7994,-3.9017,-3.9265,-3.9265,-3.9265,-3.9337,-3.9017,-3.7919,-3.7829,-3.7343,-3.6277,-3.6198,-3.6132,-3.5974,-3.5974,-3.5974,-3.5974,-3.6053,-3.6053,-3.5974,-3.6039,-3.6342,-3.6919,-3.5875,-3.566,-3.626,-3.5149,-3.4663,-2.3584,-2.5751,-2.8215,-2.9928,-3.1244,0.0,0.0,-3.733,-3.8836,-4.0916,-4.1728,0.0,0.0,0.0,0.0,0.0,0.0,0.0,0.0,0.0,0.0,0.0,0.0,0.0,0.0,0.0,0.0,0.0,0.0,0.0,-4.7309,-4.7309,-4.7309,-4.7309,-4.7309,-4.7309,-4.7309,-4.7309,-4.7309,-4.7309,-4.7309,-4.7309,-4.7294,-4.7055,-4.6711,-4.6307,-4.6052,-4.5544,-4.4885,-4.4481,-4.4167,-4.3898,-4.3494,-4.3329,-4.3329,-4.3329,-4.3329,-4.3329,-4.3329,-4.3329,-4.3329,-4.3329,-4.3329,-4.3269,-4.294,-4.2836,-4.2806,-4.2641,-4.2596,-4.2297,-4.098,-4.0277,-3.9828,-3.9499,-4.0666,-4.1848,-4.1848,-4.1848,-4.1698,-4.1145,-4.0606,-4.0322,-4.0591,-4.0307,-4.0157,-4.0562,-4.0292,-4.0172,-4.0591,-4.0277,-3.9921,-3.9653,-3.9106,-3.862,-3.8204,-3.8204,-3.8437,-3.8961,-3.7211,-3.6377,-3.6764,-3.7428,-3.769,-3.7425,-3.8084,-3.8211,-3.7799,-3.7386,-3.7329,-3.7561,-3.6674,-3.6339,-2.3532,-2.5664,-2.8266,-3.0238,0.0,0.0,-3.7195,-3.9394,-4.1491,-4.369,-4.4367,0.0,0.0,0.0,0.0,0.0,0.0,0.0,0.0,0.0,0.0,0.0,0.0,0.0,0.0,0.0,0.0,0.0,0.0,0.0,-4.7309,-4.7309,-4.7309,-4.7309,-4.7309,-4.7309,-4.7309,-4.7309,-4.7309,-4.7309,-4.7309,-4.7309,-4.7309,-4.7309,-4.7055,-4.6636,-4.6636,-4.6247,-4.5589,-4.514,-4.4691,-4.4242,-4.3584,-4.3329,-4.3329,-4.3329,-4.3329,-4.3329,-4.3329,-4.3329,-4.3329,-4.3329,-4.3329,-4.3329,-4.3329,-4.3329,-4.3329,-4.3329,-4.3329,-4.312,-4.2237,-4.1324,-4.0651,-4.0651,-4.2028,-4.3329,-4.3329,-4.3329,-4.315,-4.2566,-4.1953,-4.1519,-4.1399,-4.1384,-4.1384,-4.1384,-4.0995,-4.0726,-4.0756,-4.0726,-4.0771,-4.092,-4.0397,-4.0038,-4.0038,-4.0038,-4.0292,-4.0891,-3.8967,-3.8033,-3.8487,-3.9237,-3.9518,-3.9207,-3.9952,-4.0054,-3.9505,-3.9166,-3.91,-3.9214,-3.8456,-3.7958,-2.5484,-2.6708,-2.8399,0.0,0.0,0.0,-3.9259,-4.0138,-4.1221,-4.4976,0.0,0.0,0.0,0.0,0.0,0.0,0.0,0.0,0.0,0.0,0.0,0.0,0.0,0.0,0.0,0.0,0.0,0.0,0.0,-4.8377,-4.7381,-4.7309,-4.7309,-4.7309,-4.7309,-4.7309,-4.7309,-4.7309,-4.7309,-4.7309,-4.7309,-4.7309,-4.7309,-4.7309,-4.7309,-4.7309,-4.7309,-4.6935,-4.6337,-4.6322,-4.5529,-4.4257,-4.3599,-4.3344,-4.3344,-4.3329,-4.3329,-4.3329,-4.3329,-4.3329,-4.3329,-4.3329,-4.3329,-4.3329,-4.3329,-4.3329,-4.3329,-4.3329,-4.3329,-4.3329,-4.3329,-4.3329,-4.3329,-4.3329,-4.3329,-4.3329,-4.3329,-4.3329,-4.3329,-4.3329,-4.3329,-4.2925,-4.1624,-4.1399,-4.1399,-4.1399,-4.1399,-4.092,-3.9604,-4.0591,-4.1399,-4.1399,-4.1399,-4.1399,-4.1399,-4.1399,-4.1399,-4.1399,-4.1399,-4.1384,-4.1384,-4.1384,-4.1384,-4.1399,-4.1399,-4.1713,-4.2372,-4.1179,-4.0982,-4.1587,-4.0404,-3.9271,-2.4929,-2.7452,0.0,0.0,0.0,0.0,0.0,-4.2861,0.0,0.0,0.0,0.0,0.0,0.0,0.0,0.0,0.0,0.0,0.0,0.0,0.0,0.0,0.0,0.0,0.0,0.0,0.0,0.0,0.0,-4.8677,-4.8377,-4.7679,-4.7309,-4.7309,-4.7309,-4.7309,-4.7309,-4.7309,-4.7309,-4.7309,-4.7309,-4.7309,-4.7309,-4.7309,-4.7309,-4.7309,-4.7309,-4.7189,-4.698,-4.6516,-4.5798,-4.4945,-4.4287,-4.4018,-4.3973,-4.3509,-4.3329,-4.3329,-4.3329,-4.3329,-4.3329,-4.3329,-4.3329,-4.3329,-4.3329,-4.3329,-4.3329,-4.3329,-4.3329,-4.3329,-4.3329,-4.3329,-4.3329,-4.3329,-4.3329,-4.3329,-4.3329,-4.3329,-4.3329,-4.3329,-4.3329,-4.321,-4.2821,-4.2761,-4.2761,-4.2761,-4.2761,-4.2282,-4.0965,-4.1938,-4.2761,-4.2761,-4.2761,-4.2761,-4.2761,-4.2761,-4.2761,-4.2761,-4.2761,-4.2342,-4.1414,-4.1669,-4.2132,-4.2746,-4.2761,-4.2851,-4.3045,-4.2698,-4.2628,-4.2805,-4.1601,-4.0901,-2.73,0.0,0.0,0.0,0.0,0.0,0.0,0.0,0.0,0.0,0.0,0.0,0.0,0.0,0.0,0.0,0.0,0.0,0.0,0.0,0.0,0.0,0.0,0.0,0.0,0.0,0.0,0.0,-5.0381,-4.9679,-4.8825,-4.8225,-4.7679,-4.7294,-4.7309,-4.7309,-4.7309,-4.7309,-4.7309,-4.7309,-4.7309,-4.7309,-4.7309,-4.7309,-4.7309,-4.7309,-4.7309,-4.7309,-4.7249,-4.6591,-4.6082,-4.5633,-4.496,-4.4706,-4.4631,-4.3958,-4.3718,-4.3688,-4.3419,-4.3329,-4.3329,-4.3329,-4.3329,-4.3329,-4.3329,-4.3329,-4.3329,-4.3329,-4.3329,-4.3329,-4.3329,-4.3329,-4.3329,-4.3329,-4.3329,-4.3329,-4.3329,-4.3329,-4.3329,-4.3329,-4.3329,-4.3329,-4.3329,-4.3329,-4.3329,-4.3329,-4.3329,-4.3045,-4.2252,-4.2851,-4.3329,-4.3329,-4.3329,-4.3329,-4.3329,-4.3329,-4.3329,-4.3329,-4.3329,-4.2985,-4.2192,-4.2417,-4.2791,-4.3329,-4.3329,-4.3329,-4.3329,-4.3329,-4.3329,-4.325,-4.2629,-4.2029,0.0,0.0,0.0,0.0,0.0,0.0,0.0,0.0,0.0,0.0,0.0,0.0,0.0,0.0,0.0,0.0,0.0,0.0,0.0,0.0,0.0,0.0,0.0,0.0,0.0,0.0,0.0,-5.2153,-5.1993,-5.1064,-4.9215,-4.8988,-4.8527,-4.7624,-4.7452,-4.7452,-4.7624,-4.7381,-4.7381,-4.7467,-4.7294,-4.7309,-4.7309,-4.7309,-4.7309,-4.7309,-4.7309,-4.7309,-4.7249,-4.6651,-4.6411,-4.6337,-4.5663,-4.5394,-4.5304,-4.4646,-4.4407,-4.4317,-4.3673,-4.3464,-4.3449,-4.3359,-4.3329,-4.3329,-4.3329,-4.3329,-4.3329,-4.3329,-4.3329,-4.3329,-4.3329,-4.3329,-4.3329,-4.3329,-4.3329,-4.3329,-4.3329,-4.3329,-4.3329,-4.3329,-4.3329,-4.3329,-4.3329,-4.3329,-4.3329,-4.3329,-4.3329,-4.3329,-4.3329,-4.3329,-4.3329,-4.3329,-4.3329,-4.3329,-4.3329,-4.3329,-4.3329,-4.3329,-4.3329,-4.3329,-4.3329,-4.3329,-4.3329,-4.3329,-4.3329,-4.3329,-4.3329,-4.3329,-4.3329,-4.3329,-4.3329,-4.2725,0.0,0.0,0.0,0.0,0.0,0.0,0.0,0.0,0.0,0.0,0.0,0.0,0.0,0.0,0.0,0.0,0.0,0.0,0.0,0.0,0.0,0.0,0.0,0.0,0.0,0.0,-5.3416,-5.3179,-5.24,-5.1687,-5.1229,-5.0458,-4.9931,-4.971,-4.8922,-4.8922,-4.971,-4.8088,-4.7694,-4.8444,-4.7694,-4.7309,-4.7309,-4.7309,-4.7309,-4.7309,-4.7309,-4.7309,-4.7294,-4.716,-4.71,-4.7025,-4.6367,-4.6097,-4.6022,-4.5334,-4.508,-4.502,-4.4556,-4.4407,-4.4287,-4.3569,-4.3329,-4.3329,-4.3329,-4.3329,-4.3329,-4.3329,-4.3329,-4.3329,-4.3329,-4.3329,-4.3329,-4.3329,-4.3329,-4.3329,-4.3329,-4.3329,-4.3329,-4.3329,-4.3329,-4.3329,-4.3329,-4.3329,-4.3329,-4.3329,-4.3329,-4.3329,-4.3329,-4.3329,-4.3329,-4.3329,-4.3329,-4.3329,-4.3329,-4.3329,-4.3329,-4.3329,-4.3329,-4.3329,-4.3329,-4.3329,-4.3329,-4.3329,-4.3329,-4.3329,-4.3329,-4.3329,-4.3329,-4.3329,-4.3329,-4.3155,0.0,0.0,0.0,0.0,0.0,0.0,0.0,0.0,0.0,0.0,0.0,0.0,0.0,0.0,0.0,0.0,0.0,0.0,0.0,0.0,0.0,0.0,0.0,0.0,0.0,0.0,-5.3501,-5.3501,-5.2956,-5.247,-5.1921,-5.1394,-5.093,-5.0413,-4.9852,-4.9852,-5.0397,-4.8856,-4.8293,-4.8825,-4.7764,-4.7309,-4.7309,-4.7309,-4.7309,-4.7309,-4.7309,-4.7309,-4.7309,-4.7309,-4.7309,-4.7279,-4.6935,-4.68,-4.6711,-4.6037,-4.5783,-4.5678,-4.4945,-4.4825,-4.4796,-4.3688,-4.3329,-4.3329,-4.3329,-4.3329,-4.3329,-4.3329,-4.3329,-4.3329,-4.3329,-4.3329,-4.3329,-4.3329,-4.3329,-4.3329,-4.3329,-4.3329,-4.3329,-4.3329,-4.3329,-4.3329,-4.3329,-4.3329,-4.3329,-4.3329,-4.3329,-4.3329,-4.3329,-4.3329,-4.3329,-4.3329,-4.3329,-4.3329,-4.3329,-4.3329,-4.3329,-4.3329,-4.3329,-4.3329,-4.3329,-4.3329,-4.3329,-4.3329,-4.3329,-4.3329,-4.3329,-4.3329,-4.3329,-4.3329,-4.3329,-4.3329,0.0,0.0,0.0,0.0,0.0,0.0,0.0,0.0,0.0,0.0,0.0,0.0,0.0,0.0,0.0,0.0,0.0,0.0,0.0,0.0,0.0,0.0,0.0,0.0,0.0,-5.3501,-5.3501,-5.3501,-5.3501,-5.311,-5.2241,-5.2153,-5.1776,-5.0946,-5.0795,-5.0719,-5.0946,-4.9694,-4.9069,-4.9054,-4.7834,-4.7309,-4.7309,-4.7309,-4.7309,-4.7309,-4.7309,-4.7309,-4.7309,-4.7309,-4.7309,-4.7309,-4.7309,-4.7309,-4.7234,-4.6696,-4.6486,-4.6367,-4.5469,-4.5364,-4.5469,-4.4377,-4.4018,-4.4018,-4.4018,-4.4018,-4.4018,-4.4018,-4.4018,-4.4018,-4.4018,-4.4018,-4.4018,-4.4018,-4.4018,-4.3898,-4.3434,-4.3329,-4.3329,-4.3329,-4.3329,-4.3329,-4.3329,-4.3329,-4.3329,-4.3329,-4.3329,-4.3329,-4.3329,-4.3329,-4.3329,-4.3329,-4.3329,-4.3329,-4.3329,-4.3329,-4.3329,-4.3329,-4.3329,-4.3329,-4.3329,-4.3329,-4.3329,-4.3329,-4.3329,-4.3329,-4.3329,-4.3329,-4.3329,-4.3329,-4.3494,-4.3479,0.0,0.0,0.0,0.0,0.0,0.0,0.0,0.0,0.0,0.0,0.0,0.0,0.0,0.0,0.0,0.0,0.0,0.0,0.0,0.0,0.0,0.0,0.0,0.0,-5.3501,-5.3501,-5.3501,-5.3501,-5.3501,-5.3433,-5.3264,-5.3264,-5.3195,-5.311,-5.217,-5.217,-5.311,-5.1171,-5.0165,-5.0165,-4.8225,-4.7309,-4.7309,-4.7309,-4.7309,-4.7309,-4.7309,-4.7309,-4.7309,-4.7309,-4.7309,-4.7309,-4.7309,-4.7309,-4.7294,-4.7204,-4.7174,-4.716,-4.701,-4.6995,-4.701,-4.683,-4.677,-4.677,-4.677,-4.677,-4.677,-4.677,-4.677,-4.677,-4.677,-4.677,-4.677,-4.677,-4.677,-4.6142,-4.3823,-4.3329,-4.3329,-4.3329,-4.3329,-4.3329,-4.3329,-4.3329,-4.3329,-4.3329,-4.3329,-4.3329,-4.3329,-4.3329,-4.3329,-4.3329,-4.3329,-4.3329,-4.3329,-4.3329,-4.3329,-4.3329,-4.3329,-4.3329,-4.3329,-4.3329,-4.3329,-4.3329,-4.3329,-4.3329,-4.3329,-4.3329,-4.3329,-4.3359,-4.4152,-4.4092,0.0,0.0,0.0,0.0,0.0,0.0,0.0,0.0,0.0,0.0,0.0,0.0,0.0,0.0,0.0,0.0,0.0,0.0,0.0,0.0,0.0,0.0,0.0,0.0,-5.3501,-5.3501,-5.3501,-5.3501,-5.3501,-5.3501,-5.3501,-5.3501,-5.3501,-5.3501,-5.3025,-5.3025,-5.3518,-5.2026,-5.093,-5.0413,-4.9472,-4.9004,-4.9004,-4.9004,-4.8392,-4.7309,-4.7309,-4.7309,-4.7309,-4.7309,-4.7309,-4.7309,-4.7309,-4.7309,-4.7309,-4.7309,-4.7309,-4.7309,-4.7309,-4.7309,-4.7309,-4.7309,-4.7309,-4.7309,-4.7309,-4.7309,-4.7309,-4.7309,-4.7309,-4.7309,-4.7309,-4.7309,-4.7309,-4.7309,-4.7309,-4.698,-4.5813,-4.4392,-4.3329,-4.3329,-4.3329,-4.3329,-4.3329,-4.3329,-4.3329,-4.3329,-4.3329,-4.3329,-4.3329,-4.3329,-4.3329,-4.3329,-4.4661,-4.5559,-4.5559,-4.5559,-4.5559,-4.5559,-4.5559,-4.5559,-4.5559,-4.5559,-4.5559,-4.5559,-4.4092,-4.3329,-4.3329,-4.3329,-4.3329,-4.3359,-4.4496,-4.4825,0.0,0.0,0.0,0.0,0.0,0.0,0.0,0.0,0.0,0.0,0.0,0.0,0.0,0.0,0.0,0.0,0.0,0.0,0.0,0.0,0.0,0.0,0.0,-5.3281,-5.3484,-5.3501,-5.3501,-5.3501,-5.3501,-5.3501,-5.3501,-5.3501,-5.3501,-5.3501,-5.3501,-5.3501,-5.3501,-5.247,-5.1541,-5.0779,-5.055,-5.0397,-5.0397,-5.0397,-4.9551,-4.8072,-4.7764,-4.7538,-4.7309,-4.7309,-4.7309,-4.7309,-4.7309,-4.7309,-4.7309,-4.7309,-4.7309,-4.7309,-4.7309,-4.7309,-4.7309,-4.7309,-4.7309,-4.7309,-4.7309,-4.7309,-4.7309,-4.7309,-4.7309,-4.7309,-4.7309,-4.7309,-4.7309,-4.7309,-4.7309,-4.7309,-4.7309,-4.5738,-4.4347,-4.4347,-4.4347,-4.4347,-4.4347,-4.4347,-4.4347,-4.4347,-4.4347,-4.4347,-4.4347,-4.4347,-4.4347,-4.4347,-4.6127,-4.7309,-4.7309,-4.7309,-4.7309,-4.7309,-4.7309,-4.7309,-4.7309,-4.7309,-4.7309,-4.7309,-4.5364,-4.4347,-4.4347,-4.4347,-4.4347,-4.4362,-4.5349,-4.5798,0.0,0.0,0.0,0.0,0.0,0.0,0.0,0.0,0.0,0.0,0.0,0.0,0.0,0.0,0.0,0.0,0.0,0.0,0.0,0.0,0.0,0.0,-5.2367,-5.2655,-5.3433,-5.3501,-5.3501,-5.3501,-5.3501,-5.3501,-5.3501,-5.3501,-5.3501,-5.3501,-5.3501,-5.3501,-5.3501,-5.247,-5.1849,-5.1832,-5.0855,-5.0397,-5.0397,-5.0397,-5.032,-5.0165,-4.915,-4.8141,-4.7309,-4.7309,-4.7309,-4.7309,-4.7309,-4.7309,-4.7309,-4.7309,-4.7309,-4.7309,-4.7309,-4.7309,-4.7309,-4.7309,-4.7309,-4.7309,-4.7309,-4.7309,-4.7309,-4.7309,-4.7309,-4.7309,-4.7309,-4.7309,-4.7309,-4.7309,-4.7309,-4.7309,-4.7309,-4.7189,-4.71,-4.71,-4.71,-4.71,-4.71,-4.71,-4.71,-4.71,-4.71,-4.71,-4.71,-4.71,-4.71,-4.71,-4.7219,-4.7309,-4.7309,-4.7309,-4.7309,-4.7309,-4.7309,-4.7309,-4.7309,-4.7309,-4.7309,-4.7309,-4.7174,-4.71,-4.71,-4.71,-4.71,-4.71,-4.7174,-4.7204,0.0,0.0,0.0,0.0,0.0,0.0,0.0,0.0,0.0,0.0,0.0,0.0,0.0,0.0,0.0,0.0,0.0,0.0,0.0,0.0,0.0,-5.1572,-5.1606,-5.1894,-5.2655,-5.2739,-5.2942,-5.3467,-5.3501,-5.3501,-5.3501,-5.3501,-5.3501,-5.3501,-5.3501,-5.3501,-5.3501,-5.311,-5.2956,-5.2939,-5.2557,-5.2416,-5.2416,-5.2416,-5.201,-5.132,-5.0989,-5.0227,-4.9327,-4.9327,-4.9327,-4.9247,-4.8743,-4.8057,-4.7309,-4.7309,-4.7309,-4.7309,-4.7309,-4.7309,-4.7309,-4.7309,-4.7309,-4.7309,-4.7309,-4.7309,-4.7309,-4.7309,-4.7309,-4.7309,-4.7309,-4.7309,-4.7309,-4.7309,-4.7309,-4.7309,-4.7309,-4.7309,-4.7309,-4.7309,-4.7309,-4.7309,-4.7309,-4.7309,-4.7309,-4.7309,-4.7309,-4.7309,-4.7309,-4.7309,-4.7309,-4.7309,-4.7309,-4.7309,-4.7309,-4.7309,-4.7309,-4.7309,-4.7309,-4.7309,-4.7309,-4.7309,-4.7309,-4.7309,-4.7309,-4.7309,-4.7309,-4.7309,-4.7309,-4.7309,-4.7309,-4.7309,0.0,0.0,0.0,0.0,0.0,0.0,0.0,0.0,0.0,0.0,0.0,0.0,0.0,0.0,0.0,0.0,0.0,0.0,0.0,0.0,-5.0557,-5.0811,-5.0845,-5.1133,-5.186,-5.1944,-5.2164,-5.2706,-5.2959,0.0,-5.3112,-5.3348,-5.3501,-5.3501,-5.3501,-5.3501,-5.3501,-5.3501,-5.3501,-5.3501,-5.3501,-5.3501,-5.3501,-5.3501,-5.311,-5.247,-5.247,-5.1631,-5.0397,-5.0397,-5.0242,-4.9993,-4.9742,-4.8677,-4.7467,-4.8856,-4.9407,-4.9407,-4.9407,-4.9407,-4.9407,-4.9407,-4.8475,-4.7309,-4.7309,-4.7309,-4.7309,-4.7309,-4.7309,-4.7309,-4.7309,-4.7309,-4.7309,-4.7309,-4.7309,-4.7309,-4.7309,-4.7309,-4.7309,-4.7309,-4.7309,-4.7309,-4.7309,-4.7309,-4.7309,-4.7309,-4.7309,-4.7309,-4.7309,-4.7309,-4.7309,-4.7309,-4.7309,-4.7309,-4.7309,-4.7309,-4.7309,-4.7309,-4.7309,-4.7309,-4.7309,-4.7309,-4.7309,-4.7309,-4.7309,-4.7309,-4.7309,-4.7309,-4.7309,-4.7309,-4.7309,-4.7309,0.0,0.0,0.0,0.0,0.0,0.0,0.0,0.0,0.0,0.0,0.0,0.0,0.0,0.0,0.0,0.0,0.0,0.0,0.0,0.0,-4.9272,-4.9965,-5.005,-5.0355,-5.1116,-5.1183,-5.12,-5.1217,-5.186,-5.2266,-5.2266,-5.3044,-5.3467,-5.3467,-5.3501,-5.3501,-5.3501,-5.3501,-5.3501,-5.3501,-5.3501,-5.3501,-5.3501,-5.3501,-5.3501,-5.3501,-5.3501,-5.2345,-5.0474,-5.0474,-5.0071,-4.9488,-5.0227,-4.9247,-4.8003,-5.2026,-5.3501,-5.3501,-5.3501,-5.3501,-5.3501,-5.3501,-5.0795,-4.7452,-4.7452,-4.7452,-4.7452,-4.7452,-4.7381,-4.7309,-4.7309,-4.7309,-4.7309,-4.7309,-4.7309,-4.7309,-4.7309,-4.7309,-4.7309,-4.7309,-4.7309,-4.7309,-4.7309,-4.7309,-4.7309,-4.7309,-4.7309,-4.7309,-4.7309,-4.7309,-4.7309,-4.7309,-4.7309,-4.7309,-4.7309,-4.7309,-4.7309,-4.7309,-4.7309,-4.7309,-4.7309,-4.7309,-4.7309,-4.7309,-4.7309,-4.7309,-4.7309,-4.7309,-4.7309,-4.7309,-4.7309,-4.7309,-2.2483,0.0,0.0,0.0,0.0,0.0,0.0,0.0,0.0,0.0,0.0,0.0,0.0,0.0,0.0,0.0,0.0,0.0,0.0,-4.8663,-4.9086,-4.9272,-4.9306,-4.9593,-5.0321,-5.0388,-5.0625,0.0,-5.1403,-5.1522,-5.1522,-5.2232,-5.2638,-5.2638,-5.3196,-5.3501,-5.3501,-5.3501,-5.3501,-5.3501,-5.3501,-5.3501,-5.3501,-5.3501,-5.3501,-5.3501,-5.3501,-5.3195,-5.2644,-5.2644,-5.2487,-5.24,-5.2557,-5.2258,-5.1954,-5.311,-5.3501,-5.3501,-5.3501,-5.3501,-5.3501,-5.3501,-5.2731,-5.1793,-5.1793,-5.1793,-5.1793,-5.1793,-4.9631,-4.7309,-4.7309,-4.7309,-4.7309,-4.7309,-4.7309,-4.7309,-4.7309,-4.7309,-4.7309,-4.7309,-4.7309,-4.7309,-4.7309,-4.7309,-4.7309,-4.7309,-4.7309,-4.7309,-4.7309,-4.7309,-4.7309,-4.7309,-4.7309,-4.7309,-4.7309,-4.7309,-4.7309,-4.7309,-4.7309,-4.7309,-4.7309,-4.7309,-4.7309,-4.7309,-4.7309,-4.7309,-4.7309,-4.7309,-4.7309,-4.7309,-4.7309,-4.7309,0.0,0.0,0.0,0.0,0.0,0.0,0.0,-3.1511,0.0,0.0,0.0,0.0,0.0,0.0,0.0,0.0,0.0,0.0,-4.7361,-4.7817,-4.8206,-4.8511,-4.8545,-4.8832,-4.956,-4.9644,-4.9813,-5.027,-5.0574,-5.0879,-5.12,-5.1623,-5.1995,-5.2283,-5.2756,-5.3162,-5.3501,-5.3501,-5.3501,-5.3501,-5.3501,-5.3501,-5.3501,-5.3501,-5.3501,-5.3501,-5.3501,-5.3501,-5.3501,-5.3501,-5.3501,-5.3501,-5.3501,-5.3501,-5.3501,-5.3501,-5.3501,-5.3501,-5.3501,-5.3501,-5.3501,-5.3501,-5.3501,-5.3501,-5.3501,-5.3501,-5.3501,-5.3501,-5.172,-4.9868,-4.9868,-4.9868,-4.9472,-4.7694,-4.7309,-4.7309,-4.7309,-4.7309,-4.7309,-4.7309,-4.7309,-4.7309,-4.7309,-4.7309,-4.7309,-4.7309,-4.7309,-4.7309,-4.7309,-4.7309,-4.7309,-4.7309,-4.7309,-4.7309,-4.7309,-4.7309,-4.7309,-4.7309,-4.7309,-4.7309,-4.7309,-4.7309,-4.7309,-4.7309,-4.7309,-4.7309,-4.7309,-4.7309,-4.7309,-4.7309,-4.7309,-4.7309,-2.6607,-2.6285,0.0,0.0,-2.8288,0.0,-3.2422,-3.1428,-3.0448,0.0,0.0,0.0,0.0,0.0,0.0,0.0,0.0,-4.457,-4.6295,-4.6684,-4.7039,-4.7716,-4.78,-4.8054,-4.8697,-4.8832,-4.8883,-4.8883,-4.956,-5.0253,-5.093,-5.1048,-5.1386,-5.2029,-5.2215,-5.2638,-5.3365,-5.3467,-5.3501,-5.3501,-5.3501,-5.3501,-5.3501,-5.3501,-5.3501,-5.3501,-5.3501,-5.3501,-5.3501,-5.3501,-5.3501,-5.3501,-5.3501,-5.3501,-5.3501,-5.3501,-5.3501,-5.3501,-5.3501,-5.3501,-5.3501,-5.3501,-5.3501,-5.3501,-5.3501,-5.3501,-5.3501,-5.3501,-5.3501,-5.3501,-5.3501,-5.3501,-5.2574,-4.8856,-4.8003,-4.8003,-4.8003,-4.7624,-4.7309,-4.7309,-4.7309,-4.7309,-4.7309,-4.7309,-4.7309,-4.7309,-4.7309,-4.7309,-4.7309,-4.7309,-4.7309,-4.7309,-4.7309,-4.7309,-4.7309,-4.7309,-4.7309,-4.7309,-4.7309,-4.7309,-4.7309,-4.7309,-4.7309,-4.7309,-4.7309,-4.7309,-4.7309,-4.7309,-4.7309,-4.7309,-4.7309,-4.7309,-3.0345,-3.0531,-3.0717,-2.9668,0.0,0.0,-2.8503,-2.8674,-2.9491,0.0,0.0,0.0,0.0,0.0,0.0,0.0,0.0,-4.1238,-4.4536,-4.6041,-4.6836,-4.7005,-4.7005,-4.7073,-4.7208,-4.7784,-4.8122,-4.8122,-4.8798,-4.9289,-4.9424,-4.9982,-5.0371,-5.0507,-5.1674,-5.2384,-5.2536,-5.3179,-5.3501,-5.3501,-5.3501,-5.3501,-5.3501,-5.3501,-5.3501,-5.3501,-5.3501,-5.3501,-5.3501,-5.3501,-5.3501,-5.3501,-5.3501,-5.3501,-5.3501,-5.3501,-5.3501,-5.3501,-5.3501,-5.3501,-5.3501,-5.3501,-5.3501,-5.3501,-5.3501,-5.3501,-5.3501,-5.3501,-5.3501,-5.3501,-5.3501,-5.3501,-5.328,-5.2487,-5.2258,-5.2258,-5.2258,-4.9631,-4.7309,-4.7309,-4.7309,-4.7309,-4.7309,-4.7309,-4.7309,-4.7309,-4.7309,-4.7309,-4.7309,-4.7309,-4.7309,-4.7309,-4.7309,-4.7309,-4.7309,-4.7309,-4.7309,-4.7309,-4.7309,-4.7309,-4.7309,-4.7309,-4.7309,-4.7309,-4.7309,-4.7309,-4.7309,-4.7309,-4.7309,-4.7309,-4.7309,-4.7309,-3.3254,-3.3102,-3.3203,-3.2476,0.0,0.0,0.0,-2.9753,-2.9719,-3.2324,-3.1681,0.0,0.0,0.0,0.0,0.0,-3.7567,-3.9935,-4.1085,-4.3149,-4.4688,-4.506,-4.5111,-4.5415,-4.6177,-4.6599,-4.6972,-4.7327,-4.8037,-4.846,-4.846,-4.9154,-4.9712,-5.0084,-5.0811,-5.1555,-5.23,-5.2706,-5.3112,-5.3501,-5.3501,-5.3501,-5.3501,-5.3501,-5.3501,-5.3501,-5.3501,-5.3501,-5.3501,-5.3501,-5.3501,-5.3501,-5.3501,-5.3501,-5.3501,-5.3501,-5.3501,-5.3501,-5.3501,-5.3501,-5.3501,-5.3501,-5.3501,-5.3501,-5.3501,-5.3501,-5.3501,-5.3501,-5.3501,-5.3501,-5.3501,-5.3501,-5.3501,-5.3501,-5.3501,-5.3501,-5.3501,-5.0242,-4.7309,-4.7309,-4.7309,-4.7309,-4.7309,-4.7309,-4.7309,-4.7309,-4.7309,-4.7309,-4.7309,-4.7309,-4.7309,-4.7309,-4.7309,-4.7309,-4.7309,-4.7309,-4.7309,-4.7309,-4.7309,-4.7309,-4.7309,-4.7309,-4.7309,-4.7309,-4.7309,-4.7309,-4.7309,-4.7309,-4.7309,-4.7309,-4.7309,-4.7309,0.0,0.0,0.0,0.0,0.0,-3.2899,0.0,0.0,0.0,-3.4083,0.0,0.0,0.0,0.0,0.0,0.0,0.0,0.0,0.0,-3.914,0.0,-4.2439,-4.2811,-4.3487,-4.4722,-4.4705,-4.5111,-4.6278,-4.665,-4.709,-4.7682,-4.8392,-4.9137,-4.9847,-5.0016,-5.0659,-5.186,-5.2164,-5.2638,-5.3281,-5.3433,-5.3501,-5.3501,-5.3501,-5.3501,-5.3501,-5.3501,-5.3501,-5.3501,-5.3501,-5.3501,-5.3501,-5.3501,-5.3501,-5.3501,-5.3501,-5.3501,-5.3501,-5.3501,-5.3501,-5.3501,-5.3501,-5.3501,-5.3501,-5.3501,-5.3501,-5.3501,-5.3501,-5.3501,-5.3501,-5.3501,-5.3501,-5.3501,-5.3501,-5.3501,-5.3501,-5.3501,-5.0871,-4.8475,-4.8475,-4.8475,-4.824,-4.7467,-4.7309,-4.7309,-4.7309,-4.7309,-4.7309,-4.7309,-4.7309,-4.7309,-4.7309,-4.8003,-4.8475,-4.8475,-4.8475,-4.8157,-4.7381,-4.7309,-4.7309,-4.7309,-4.8088,-4.8475,-4.8475,-4.8475,-4.8072,-4.7309,-4.7309,-4.7309,-4.7309,-4.7309,-4.7309,0.0,0.0,0.0,0.0,-3.6874,0.0,0.0,0.0,-3.2679,-3.1867,0.0,0.0,0.0,0.0,0.0,0.0,0.0,0.0,-3.2171,-3.4506,-3.7144,-3.9242,-4.0663,-4.1525,-4.1694,-4.1119,-4.1863,-4.4621,-4.3656,-4.4096,-4.6769,-4.7631,-4.8376,-4.9103,-4.9746,-5.0168,-5.0338,-5.164,-5.235,-5.2435,-5.3162,-5.3501,-5.3501,-5.3501,-5.3501,-5.3501,-5.3501,-5.3501,-5.3501,-5.3501,-5.3501,-5.3501,-5.3501,-5.3501,-5.3501,-5.3501,-5.3501,-5.3501,-5.3501,-5.3501,-5.3501,-5.3501,-5.3501,-5.3501,-5.3501,-5.3501,-5.3501,-5.3501,-5.3501,-5.3501,-5.3501,-5.3501,-5.3501,-5.3501,-5.3501,-5.3501,-5.3501,-5.3127,-5.28,-5.28,-5.28,-5.1647,-4.7919,-4.7309,-4.7309,-4.7309,-4.7309,-4.7309,-4.7309,-4.7309,-4.7309,-4.7309,-5.0643,-5.28,-5.28,-5.28,-5.1245,-4.7538,-4.7309,-4.7309,-4.7309,-5.0871,-5.28,-5.28,-5.28,-5.0946,-4.7309,-4.7309,-4.7309,-4.7309,-4.7309,-4.7309,0.0,0.0,0.0,0.0,0.0,0.0,-3.3812,0.0,-3.2949,0.0,0.0,0.0,0.0,0.0,0.0,0.0,-3.1867,0.0,0.0,0.0,-3.4353,0.0,0.0,0.0,-3.9749,-3.9631,-4.051,-4.3064,-4.1863,-4.232,-4.5348,-4.6616,-4.7614,-4.8359,-4.9086,-4.9661,-5.0084,-5.115,-5.1894,-5.2317,-5.3129,-5.3501,-5.3501,-5.3501,-5.3501,-5.3501,-5.3501,-5.3501,-5.3501,-5.3501,-5.3501,-5.3501,-5.3501,-5.3501,-5.3501,-5.3501,-5.3501,-5.3501,-5.3501,-5.3501,-5.3501,-5.3501,-5.3501,-5.3501,-5.3501,-5.3501,-5.3501,-5.3501,-5.3501,-5.3501,-5.3501,-5.3501,-5.3501,-5.3501,-5.3501,-5.3501,-5.3501,-5.3501,-5.3501,-5.3501,-5.3501,-5.2956,-5.1187,-5.0871,-5.0871,-5.0871,-5.0871,-5.0871,-5.0871,-5.0871,-5.0871,-5.0871,-5.2487,-5.3501,-5.3501,-5.3501,-5.2731,-5.1021,-5.0871,-5.0871,-5.0871,-5.2574,-5.3501,-5.3501,-5.3501,-5.2644,-5.0871,-5.0871,-5.0871,-5.0871,-4.8392,-4.7309,-4.0646,0.0,0.0,0.0,0.0,0.0,0.0,0.0,0.0,0.0,0.0,0.0,0.0,0.0,0.0,0.0,0.0,-3.1427,0.0,0.0,0.0,0.0,0.0,0.0,0.0,-3.733,-3.8041,-4.0882,-3.9512,-4.0206,-4.4062,-4.5686,-4.6938,-4.7885,-4.8629,-4.9255,-4.9779,-5.0541,-5.1285,-5.2012,-5.2807,-5.3298,-5.3501,-5.3501,-5.3501,-5.3501,-5.3501,-5.3501,-5.3501,-5.3501,-5.3501,-5.3501,-5.3501,-5.3501,-5.3501,-5.3501,-5.3501,-5.3501,-5.3501,-5.3501,-5.3501,-5.3501,-5.3501,-5.3501,-5.3501,-5.3501,-5.3501,-5.3501,-5.3501,-5.3501,-5.3501,-5.3501,-5.3501,-5.3501,-5.3501,-5.3501,-5.3501,-5.3501,-5.3501,-5.3501,-5.3501,-5.3501,-5.3501,-5.3501,-5.3501,-5.3501,-5.3501,-5.3501,-5.3501,-5.3501,-5.3501,-5.3501,-5.3501,-5.3501,-5.3501,-5.3501,-5.3501,-5.3501,-5.3501,-5.3501,-5.3501,-5.3501,-5.3501,-5.3501,-5.3501,-5.3501,-5.3501,-5.3501,-5.3501,-5.3416,-4.9247,-4.7309,0.0,0.0,0.0,-3.6789,0.0,0.0,0.0,0.0,-3.5318,0.0,0.0,0.0,0.0,0.0,0.0,0.0,0.0,0.0,0.0,0.0,0.0,0.0,0.0,0.0,0.0,-3.3136,-3.3271,0.0,-3.5943,-3.7246,-4.3132,-4.4908,-4.6413,-4.7868,-4.8629,-4.9018,-4.9035,-4.9763,-5.0507,-5.1251,-5.1995,-5.2756,-5.3501,-5.3501,-5.3501,-5.3501,-5.3501,-5.3501,-5.3501,-5.3501,-5.3501,-5.3501,-5.3501,-5.3501,-5.3501,-5.3501,-5.3501,-5.3501,-5.3501,-5.3501,-5.3501,-5.3501,-5.3501,-5.3501,-5.3501,-5.3501,-5.3501,-5.3501,-5.3501,-5.3501,-5.3501,-5.3501,-5.3501,-5.3501,-5.3501,-5.3501,-5.3501,-5.3501,-5.3501,-5.3501,-5.3501,-5.3501,-5.3501,-5.3501,-5.3501,-5.3501,-5.3501,-5.3501,-5.3501,-5.3501,-5.3501,-5.3501,-5.3501,-5.3501,-5.3501,-5.3501,-5.3501,-5.3501,-5.3501,-5.3501,-5.3501,-5.3501,-5.3501,-5.3501,-5.3501,-5.3501,-5.3501,-5.3501,-5.3501,-5.3416,-4.9247,-4.7309,0.0,0.0,-4.2202,-3.8717,0.0,0.0,0.0,0.0,0.0,0.0,0.0,0.0,0.0,0.0,0.0,0.0,0.0,0.0,0.0,0.0,0.0,0.0,0.0,0.0,0.0,0.0,0.0,0.0,-3.6002,0.0,-4.2241,-4.3569,-4.4891,-4.6413,-4.7648,-4.8528,-4.9001,-4.9729,-5.0219,-5.049,-5.1708,-5.2435,-5.2723,-5.3264,-5.3501,-5.3501,-5.3501,-5.3501,-5.3501,-5.3501,-5.3501,-5.3501,-5.3501,-5.3501,-5.3501,-5.3501,-5.3501,-5.3501,-5.3501,-5.3501,-5.3501,-5.3501,-5.3501,-5.3501,-5.3501,-5.3501,-5.3501,-5.3501,-5.3501,-5.3501,-5.3501,-5.3501,-5.3501,-5.3501,-5.3501,-5.3501,-5.3501,-5.3501,-5.3501,-5.3501,-5.3501,-5.3501,-5.3501,-5.3501,-5.3501,-5.3501,-5.3501,-5.3501,-5.3501,-5.3501,-5.3501,-5.3501,-5.3501,-5.3501,-5.3501,-5.3501,-5.3501,-5.3501,-5.3501,-5.3501,-5.3501,-5.3501,-5.3501,-5.3501,-5.3501,-5.3501,-5.3501,-5.3501,-5.3501,-5.3433,-5.2026,-5.141,-4.2777,-4.3047,0.0,-4.007,-3.9039,0.0,-3.4878,0.0,-3.64,0.0,0.0,0.0,0.0,0.0,0.0,0.0,0.0,0.0,0.0,-2.6928,0.0,0.0,0.0,0.0,0.0,0.0,-3.2362,-3.6199,-3.5057,0.0,0.0,-4.2651,-4.413,-4.5652,-4.7141,-4.8257,-4.9001,-4.9475,-4.983,-5.0101,-5.1048,-5.1792,-5.2317,-5.2841,-5.323,-5.3501,-5.3501,-5.3501,-5.3501,-5.3501,-5.3501,-5.3501,-5.3501,-5.3501,-5.3501,-5.3501,-5.3501,-5.3501,-5.3501,-5.3501,-5.3501,-5.3501,-5.3501,-5.3501,-5.3501,-5.3501,-5.3501,-5.3501,-5.3501,-5.3501,-5.3501,-5.3501,-5.3501,-5.3501,-5.3501,-5.3501,-5.3501,-5.3501,-5.3501,-5.3501,-5.3501,-5.3501,-5.3501,-5.3501,-5.3501,-5.3501,-5.3501,-5.3501,-5.3501,-5.3501,-5.3501,-5.3501,-5.3501,-5.3501,-5.3501,-5.3501,-5.3501,-5.3501,-5.3501,-5.3501,-5.3501,-5.3501,-5.3501,-5.3501,-5.3501,-5.3501,-5.3501,-5.3501,-5.3501,-5.3501,-5.3501,-5.3501]}]]